[[{"header":{"parameterUnit":"m.s-1","parameterCategory":1,"la1":30.6,"la2":29.2853,"lo1":-89.7004,"lo2":-87.6739,"dy":0.0162,"dx":0.0183,"nx":112,"ny":82,"refTime":"2023-10-09T00:00:00:Z","depth":0,"parameterNumber":2,"parameterNumberName":"U-component_of_WINDS"},"data":[0.0,0.0,0.0,0.0,0.0,0.0,0.0,0.0,0.0,0.0,0.0,0.0,0.0,0.0,0.0,0.0,0.0,0.0,0.0,0.0,0.0,0.0,0.0,0.0,0.0,0.0,0.0,0.0,0.0,0.0,0.0,0.0,0.0,0.0,0.0,0.0,0.0,0.0,0.0,0.0,0.0,0.0,0.0,0.0,0.0,0.0,0.0,0.0,0.0,0.0,0.0,0.0,0.0,0.0,0.0,0.0,0.0,0.0,0.0,0.0,0.0,0.0,0.0,0.0,0.0,0.0,0.0,0.0,0.0,0.0,0.0,0.0,0.0,0.0,0.0,0.0,0.0,0.0,0.0,0.0,0.0,0.0,0.0,0.0,0.0,0.0,0.0,0.0,0.0,0.0,-2.2403,-2.1382,-2.2403,-2.3047,-2.2862,-2.296,-2.3135,-2.3135,0.0,0.0,0.0,0.0,0.0,0.0,0.0,0.0,0.0,0.0,0.0,0.0,0.0,0.0,0.0,0.0,0.0,0.0,0.0,0.0,0.0,0.0,0.0,0.0,0.0,0.0,0.0,0.0,0.0,0.0,0.0,0.0,0.0,0.0,0.0,0.0,0.0,0.0,0.0,0.0,0.0,0.0,0.0,0.0,0.0,0.0,0.0,0.0,0.0,0.0,0.0,0.0,0.0,0.0,0.0,0.0,0.0,0.0,0.0,0.0,0.0,0.0,0.0,0.0,0.0,0.0,0.0,0.0,0.0,0.0,0.0,0.0,0.0,0.0,0.0,0.0,0.0,0.0,0.0,0.0,0.0,0.0,0.0,0.0,0.0,0.0,0.0,0.0,0.0,0.0,0.0,0.0,0.0,0.0,0.0,0.0,0.0,0.0,0.0,0.0,0.0,0.0,0.0,0.0,-2.148,-2.1293,-2.2403,-2.2677,-2.1658,-2.2492,-2.3135,-2.3135,0.0,0.0,0.0,0.0,0.0,0.0,0.0,0.0,0.0,0.0,0.0,0.0,0.0,0.0,0.0,0.0,0.0,0.0,0.0,0.0,0.0,0.0,0.0,0.0,0.0,0.0,0.0,0.0,0.0,0.0,0.0,0.0,0.0,0.0,0.0,0.0,0.0,0.0,0.0,0.0,0.0,0.0,0.0,0.0,0.0,0.0,0.0,0.0,0.0,0.0,0.0,0.0,0.0,0.0,0.0,0.0,0.0,0.0,0.0,0.0,0.0,0.0,0.0,0.0,0.0,0.0,0.0,0.0,0.0,0.0,0.0,0.0,0.0,0.0,0.0,0.0,0.0,0.0,0.0,0.0,0.0,0.0,0.0,0.0,0.0,0.0,0.0,0.0,0.0,0.0,0.0,0.0,0.0,0.0,0.0,0.0,0.0,0.0,0.0,0.0,0.0,0.0,0.0,-2.0133,-1.9579,-2.0215,-2.0854,-2.0944,-2.0395,-2.0854,-2.14,-2.212,-2.212,0.0,0.0,0.0,0.0,0.0,0.0,0.0,0.0,0.0,0.0,0.0,0.0,0.0,0.0,0.0,0.0,0.0,0.0,0.0,0.0,0.0,0.0,0.0,0.0,0.0,0.0,0.0,0.0,0.0,0.0,0.0,0.0,0.0,0.0,0.0,0.0,0.0,0.0,0.0,0.0,0.0,0.0,0.0,0.0,0.0,0.0,0.0,0.0,0.0,0.0,0.0,0.0,0.0,0.0,0.0,0.0,0.0,0.0,0.0,0.0,0.0,0.0,0.0,0.0,0.0,0.0,0.0,0.0,0.0,0.0,0.0,0.0,0.0,0.0,0.0,0.0,0.0,0.0,0.0,0.0,0.0,0.0,0.0,0.0,0.0,0.0,0.0,0.0,0.0,0.0,0.0,0.0,0.0,0.0,0.0,0.0,0.0,0.0,0.0,0.0,0.0,0.0,-1.8503,-1.8411,-1.9047,-1.9579,-1.9761,-1.9497,-1.9761,-2.0395,-2.1667,-2.1203,0.0,0.0,0.0,0.0,0.0,0.0,0.0,0.0,0.0,0.0,0.0,0.0,0.0,0.0,0.0,0.0,0.0,0.0,0.0,0.0,0.0,0.0,0.0,0.0,0.0,0.0,0.0,0.0,0.0,0.0,0.0,0.0,0.0,0.0,0.0,0.0,0.0,0.0,0.0,0.0,0.0,0.0,0.0,0.0,0.0,0.0,0.0,0.0,0.0,0.0,0.0,0.0,0.0,0.0,0.0,0.0,0.0,0.0,0.0,0.0,0.0,0.0,0.0,0.0,0.0,0.0,0.0,0.0,0.0,0.0,0.0,0.0,0.0,0.0,0.0,0.0,0.0,0.0,0.0,0.0,0.0,0.0,0.0,0.0,0.0,0.0,0.0,0.0,0.0,0.0,0.0,0.0,0.0,0.0,0.0,0.0,0.0,0.0,0.0,0.0,0.0,0.0,-1.8772,-1.8956,-1.7963,-1.9852,-2.0755,-1.9579,-2.0486,-2.1667,-2.2862,-2.0854,0.0,0.0,0.0,0.0,0.0,0.0,0.0,0.0,0.0,0.0,0.0,0.0,0.0,0.0,0.0,0.0,0.0,0.0,0.0,0.0,0.0,0.0,0.0,0.0,0.0,0.0,0.0,0.0,0.0,0.0,0.0,0.0,0.0,0.0,0.0,0.0,0.0,0.0,0.0,0.0,0.0,0.0,0.0,0.0,0.0,0.0,0.0,0.0,0.0,0.0,0.0,0.0,0.0,0.0,0.0,0.0,0.0,0.0,0.0,0.0,0.0,0.0,0.0,0.0,0.0,0.0,0.0,0.0,0.0,0.0,0.0,0.0,0.0,0.0,0.0,0.0,0.0,0.0,0.0,0.0,0.0,0.0,0.0,0.0,0.0,0.0,0.0,0.0,0.0,0.0,0.0,0.0,0.0,0.0,0.0,0.0,0.0,0.0,0.0,0.0,0.0,0.0,-1.6936,-1.7023,-1.6567,-1.7296,-1.7654,-1.7203,-1.7561,-1.8748,-2.0764,0.0,0.0,0.0,0.0,0.0,0.0,0.0,0.0,0.0,0.0,0.0,0.0,0.0,0.0,0.0,0.0,0.0,0.0,0.0,0.0,0.0,0.0,0.0,0.0,0.0,0.0,0.0,0.0,0.0,0.0,0.0,0.0,0.0,0.0,0.0,0.0,0.0,0.0,0.0,0.0,0.0,0.0,0.0,0.0,0.0,0.0,0.0,0.0,0.0,0.0,0.0,0.0,0.0,0.0,0.0,0.0,0.0,0.0,0.0,0.0,0.0,0.0,0.0,0.0,0.0,0.0,0.0,0.0,0.0,0.0,0.0,0.0,0.0,0.0,0.0,0.0,0.0,0.0,0.0,0.0,0.0,0.0,0.0,0.0,0.0,0.0,0.0,0.0,0.0,0.0,0.0,0.0,0.0,0.0,0.0,0.0,0.0,0.0,0.0,0.0,0.0,0.0,-1.5832,-1.5832,-1.5832,-1.5832,-1.6204,-1.6386,-1.6386,-1.6386,-1.7304,-1.9405,0.0,0.0,0.0,0.0,0.0,0.0,0.0,0.0,0.0,0.0,0.0,0.0,0.0,0.0,0.0,0.0,0.0,0.0,0.0,0.0,0.0,0.0,0.0,0.0,0.0,0.0,0.0,0.0,0.0,0.0,0.0,0.0,0.0,0.0,0.0,0.0,0.0,0.0,0.0,0.0,0.0,0.0,0.0,0.0,0.0,0.0,0.0,0.0,0.0,0.0,0.0,0.0,0.0,0.0,0.0,0.0,0.0,0.0,0.0,0.0,0.0,0.0,0.0,0.0,0.0,0.0,0.0,0.0,0.0,0.0,0.0,0.0,0.0,0.0,0.0,0.0,0.0,0.0,0.0,0.0,0.0,0.0,0.0,0.0,0.0,0.0,0.0,0.0,0.0,0.0,0.0,0.0,0.0,0.0,0.0,0.0,0.0,0.0,0.0,0.0,0.0,0.0,-1.5832,-1.5832,-1.5832,-1.5832,-1.6951,-1.7692,-1.7692,-1.7692,-1.8234,0.0,0.0,0.0,0.0,0.0,0.0,0.0,0.0,0.0,0.0,0.0,0.0,0.0,0.0,0.0,0.0,0.0,0.0,0.0,0.0,0.0,0.0,0.0,0.0,0.0,0.0,0.0,0.0,0.0,0.0,0.0,0.0,0.0,0.0,0.0,0.0,0.0,0.0,0.0,0.0,0.0,0.0,0.0,0.0,0.0,0.0,0.0,0.0,0.0,0.0,0.0,0.0,0.0,0.0,0.0,0.0,0.0,0.0,0.0,0.0,0.0,0.0,0.0,0.0,0.0,0.0,0.0,0.0,0.0,0.0,0.0,0.0,0.0,0.0,0.0,0.0,0.0,0.0,0.0,0.0,0.0,0.0,0.0,0.0,0.0,0.0,0.0,0.0,0.0,0.0,0.0,0.0,0.0,0.0,0.0,0.0,0.0,0.0,0.0,0.0,0.0,0.0,0.0,-1.5832,-1.5832,-1.5832,-1.5832,-1.6109,-1.6386,-1.6386,-1.6386,-1.6942,-1.8377,0.0,0.0,0.0,0.0,0.0,0.0,0.0,0.0,0.0,0.0,0.0,0.0,0.0,0.0,0.0,0.0,0.0,0.0,0.0,0.0,0.0,0.0,0.0,0.0,0.0,0.0,0.0,0.0,0.0,0.0,0.0,0.0,0.0,0.0,0.0,0.0,0.0,0.0,0.0,0.0,0.0,0.0,0.0,0.0,0.0,0.0,0.0,0.0,0.0,0.0,0.0,0.0,0.0,0.0,0.0,0.0,0.0,0.0,0.0,0.0,0.0,0.0,0.0,0.0,0.0,0.0,0.0,0.0,0.0,0.0,0.0,0.0,0.0,0.0,0.0,0.0,0.0,0.0,0.0,0.0,0.0,0.0,0.0,0.0,0.0,0.0,0.0,0.0,0.0,0.0,0.0,0.0,0.0,0.0,0.0,0.0,0.0,0.0,0.0,0.0,0.0,0.0,-1.5992,-1.6005,-1.6052,-1.6166,-1.6179,-1.6179,-1.6179,-1.6179,-1.6538,-1.749,0.0,0.0,0.0,0.0,0.0,0.0,0.0,0.0,0.0,0.0,0.0,0.0,0.0,0.0,0.0,0.0,0.0,0.0,0.0,0.0,0.0,0.0,0.0,0.0,0.0,0.0,0.0,0.0,0.0,0.0,0.0,0.0,0.0,0.0,0.0,0.0,0.0,0.0,0.0,0.0,0.0,0.0,0.0,0.0,0.0,0.0,0.0,0.0,0.0,0.0,0.0,0.0,0.0,0.0,0.0,0.0,0.0,0.0,0.0,0.0,0.0,0.0,0.0,0.0,0.0,0.0,0.0,0.0,0.0,0.0,0.0,0.0,0.0,0.0,0.0,0.0,0.0,0.0,0.0,0.0,0.0,0.0,0.0,0.0,0.0,0.0,0.0,0.0,0.0,0.0,0.0,0.0,0.0,0.0,0.0,0.0,0.0,0.0,0.0,0.0,0.0,0.0,-1.6279,-1.6313,-1.6413,-1.6673,-1.6707,-1.6707,-1.6707,-1.6707,-1.6714,-1.6747,0.0,0.0,0.0,0.0,0.0,0.0,0.0,0.0,0.0,0.0,0.0,0.0,0.0,0.0,0.0,0.0,0.0,0.0,0.0,0.0,0.0,0.0,0.0,0.0,0.0,0.0,0.0,0.0,0.0,0.0,0.0,0.0,0.0,0.0,0.0,0.0,0.0,0.0,0.0,0.0,0.0,0.0,0.0,0.0,0.0,0.0,0.0,0.0,0.0,0.0,0.0,0.0,0.0,0.0,0.0,0.0,0.0,0.0,0.0,0.0,-2.1132,-2.132,0.0,0.0,0.0,0.0,0.0,0.0,0.0,0.0,0.0,0.0,0.0,0.0,0.0,0.0,0.0,0.0,0.0,0.0,0.0,0.0,0.0,0.0,0.0,0.0,0.0,0.0,0.0,0.0,0.0,0.0,0.0,0.0,0.0,0.0,0.0,0.0,0.0,0.0,0.0,0.0,-1.6607,-1.6613,-1.664,-1.67,-1.6707,-1.6707,-1.6707,-1.6707,-1.6807,-1.7041,-1.7054,0.0,0.0,0.0,0.0,0.0,0.0,0.0,0.0,0.0,0.0,0.0,0.0,0.0,0.0,0.0,0.0,0.0,0.0,0.0,0.0,0.0,0.0,0.0,0.0,0.0,0.0,0.0,0.0,0.0,0.0,0.0,0.0,0.0,0.0,0.0,0.0,0.0,0.0,0.0,0.0,0.0,0.0,0.0,0.0,0.0,0.0,0.0,0.0,0.0,0.0,0.0,0.0,0.0,0.0,0.0,0.0,0.0,0.0,0.0,-2.1857,-2.1952,0.0,0.0,0.0,0.0,0.0,0.0,0.0,0.0,0.0,0.0,0.0,0.0,0.0,0.0,0.0,0.0,0.0,0.0,0.0,0.0,0.0,0.0,0.0,0.0,0.0,0.0,0.0,0.0,0.0,0.0,0.0,0.0,0.0,0.0,0.0,0.0,0.0,0.0,0.0,0.0,-1.6901,-1.6921,-1.6974,-1.7114,-1.7128,-1.7128,-1.7128,-1.7128,-1.7194,-1.7348,-1.7361,0.0,0.0,0.0,0.0,0.0,0.0,0.0,0.0,0.0,0.0,0.0,0.0,0.0,0.0,0.0,0.0,0.0,0.0,0.0,0.0,0.0,0.0,0.0,0.0,0.0,0.0,0.0,0.0,0.0,0.0,0.0,0.0,0.0,0.0,0.0,0.0,0.0,0.0,0.0,0.0,0.0,0.0,0.0,0.0,0.0,0.0,0.0,0.0,0.0,0.0,0.0,0.0,0.0,-2.2316,-2.2799,-2.1869,-2.2897,-2.3564,-2.3877,-2.3516,-2.3359,-2.3359,-2.3359,0.0,0.0,0.0,0.0,0.0,0.0,0.0,0.0,0.0,0.0,0.0,0.0,0.0,0.0,0.0,0.0,0.0,0.0,0.0,0.0,0.0,0.0,-2.2115,-2.0874,-2.083,-2.0309,-1.7296,0.0,0.0,0.0,0.0,0.0,0.0,0.0,0.0,0.0,0.0,0.0,-1.7194,-1.7228,-1.7315,-1.7555,-1.7582,-1.7582,-1.7582,-1.7582,-1.7582,-1.7582,-1.7582,-1.7582,0.0,0.0,0.0,0.0,0.0,0.0,0.0,0.0,0.0,0.0,0.0,0.0,0.0,0.0,0.0,0.0,0.0,0.0,0.0,0.0,0.0,0.0,0.0,0.0,0.0,0.0,0.0,0.0,0.0,0.0,0.0,0.0,-1.5832,-1.5832,0.0,0.0,0.0,0.0,0.0,0.0,0.0,0.0,0.0,0.0,0.0,0.0,0.0,-2.0034,-2.1025,-2.1662,-2.2308,-2.3233,-2.389,-2.4156,-2.3963,-2.4156,-2.4277,-2.4336,-2.4277,0.0,-2.4248,-2.4248,0.0,0.0,0.0,0.0,0.0,0.0,0.0,0.0,0.0,0.0,0.0,0.0,0.0,0.0,0.0,0.0,0.0,0.0,0.0,0.0,0.0,0.0,-2.3763,-2.2523,-2.2277,-2.1993,-2.0446,-2.0271,-2.0023,-1.8679,-1.9384,-1.9894,0.0,0.0,0.0,0.0,0.0,0.0,-1.7522,-1.7522,-1.7542,-1.7582,-1.7582,-1.7582,-1.7582,-1.7582,-1.7582,-1.7582,-1.7582,-1.7582,-1.7582,-1.7582,0.0,0.0,0.0,0.0,0.0,0.0,0.0,0.0,0.0,0.0,0.0,0.0,0.0,0.0,0.0,0.0,0.0,0.0,0.0,0.0,0.0,0.0,0.0,0.0,0.0,0.0,0.0,0.0,0.0,-1.5832,-1.5832,-1.5832,-1.5832,-1.5832,0.0,0.0,0.0,0.0,0.0,0.0,0.0,0.0,0.0,-2.0477,-2.1437,-2.2205,-2.2664,-2.317,-2.3572,-2.4141,-2.4336,-2.4414,-2.4414,-2.4414,-2.4551,-2.4785,-2.4785,-2.4922,-2.5117,-2.4619,-2.4414,-2.4414,0.0,0.0,0.0,0.0,-2.4414,-2.4414,-2.4414,-2.4414,-2.4414,-2.4414,0.0,0.0,0.0,0.0,0.0,0.0,0.0,-2.4322,-2.3756,-2.4217,-2.4682,-2.4108,-2.4193,-2.4172,-2.3671,-2.3574,-2.2903,-2.0516,-2.0744,-2.1073,-2.0484,-2.0512,0.0,0.0,0.0,-1.9922,-1.9922,-1.9922,-1.9922,-1.9922,-1.9922,-1.9922,-1.9922,-1.922,-1.8708,-1.8708,-1.7989,-1.7582,-1.7582,-1.7582,-1.7582,0.0,0.0,0.0,0.0,0.0,0.0,0.0,0.0,0.0,0.0,0.0,0.0,0.0,0.0,0.0,0.0,0.0,0.0,0.0,0.0,0.0,0.0,0.0,0.0,0.0,0.0,0.0,0.0,-1.5832,-1.5832,-1.5832,-1.6109,-1.6298,0.0,0.0,0.0,0.0,0.0,0.0,-1.9943,-2.0942,-2.1644,-2.1913,-2.3252,-2.3945,-2.3945,-2.4365,-2.458,-2.458,-2.4697,-2.4756,-2.4756,-2.4756,-2.4932,-2.5244,-2.5244,-2.543,-2.5684,-2.5029,-2.4756,-2.4756,-2.4756,-2.4756,-2.4756,-2.4756,-2.4756,-2.4756,-2.4756,-2.4756,-2.4756,-2.4756,-2.4756,-2.4756,-2.4756,0.0,0.0,0.0,0.0,-2.4756,-2.4756,-2.5,-2.5244,-2.5244,-2.5488,-2.5742,-2.5742,-2.5742,-2.4925,-2.2296,-2.227,-2.2567,-2.2257,-2.2257,0.0,-2.2257,-2.1651,-2.1143,-2.1143,-2.0837,-2.0633,-2.0633,-2.0633,-2.0633,-2.0633,-1.9723,-1.9117,-1.9117,-1.8199,-1.7582,-1.7582,-1.7582,-1.7582,-1.7582,0.0,0.0,0.0,0.0,0.0,0.0,0.0,0.0,0.0,0.0,0.0,0.0,0.0,0.0,0.0,0.0,0.0,0.0,0.0,0.0,0.0,0.0,0.0,0.0,0.0,0.0,0.0,0.0,0.0,-1.5832,-1.685,0.0,0.0,0.0,0.0,-1.9405,-1.9497,-2.0034,-2.1114,-2.168,-2.2455,-2.366,-2.416,-2.4385,-2.4385,-2.4814,-2.5029,-2.5039,-2.5469,-2.5664,-2.5664,-2.5664,-2.5684,-2.5703,-2.5703,-2.5713,-2.5732,-2.5693,-2.5664,-2.5664,-2.5664,-2.5664,-2.5664,-2.5664,-2.5664,-2.5664,-2.5664,-2.5664,-2.5664,-2.5664,-2.5664,-2.5664,-2.5664,-2.5664,0.0,0.0,-2.5664,-2.5664,-2.5664,-2.5684,-2.5703,-2.5703,-2.5723,-2.5742,-2.5742,-2.5742,-2.5323,-2.3863,-2.4599,-2.5118,-2.3791,0.0,-2.3592,-2.3592,-2.1355,-1.9731,-1.9731,-1.8603,-1.7786,-1.7786,-1.7786,-1.7786,-1.7786,-1.7793,-1.7681,-1.7681,-1.7687,-1.7582,-1.7582,-1.7582,-1.7582,-1.7582,-1.7582,0.0,0.0,0.0,0.0,0.0,0.0,0.0,0.0,0.0,0.0,0.0,0.0,0.0,0.0,0.0,0.0,0.0,0.0,0.0,0.0,0.0,0.0,0.0,0.0,0.0,0.0,0.0,0.0,-1.6951,-1.6669,0.0,-1.868,-1.9222,-1.9861,-2.0593,-2.1654,-2.2441,-2.29,-2.33,-2.3721,-2.4189,-2.4609,-2.4834,-2.4834,-2.5273,-2.5498,-2.5508,-2.5664,-2.5742,-2.5742,-2.5742,-2.5742,-2.5742,-2.5742,-2.5742,-2.5742,-2.5742,-2.5742,-2.5742,-2.5742,-2.5742,-2.5742,-2.5742,-2.5742,-2.5742,-2.5742,-2.5742,-2.5742,-2.5742,-2.5742,-2.5742,-2.5742,-2.5742,-2.5742,-2.5742,-2.5742,-2.5742,-2.5742,-2.5742,-2.5742,-2.5742,-2.5742,-2.5742,-2.5742,-2.5742,-2.5538,-2.5118,-2.5333,-2.5538,-2.5118,-2.502,-2.502,-2.502,-2.4106,-2.3493,-2.3493,-2.3085,-2.2776,-2.2776,-2.2776,-2.2776,-2.2776,-2.2064,-2.1558,-2.1558,-1.9826,-1.8916,-1.8916,-1.8094,-1.7582,-1.7582,-1.7582,-1.7582,0.0,0.0,0.0,0.0,0.0,0.0,0.0,0.0,0.0,0.0,0.0,0.0,0.0,0.0,0.0,0.0,0.0,0.0,0.0,0.0,0.0,0.0,0.0,0.0,0.0,-1.6197,-1.6763,-1.7598,-1.7304,-1.784,-1.9943,-2.0124,-2.0637,-2.2067,-2.3166,-2.3857,-2.3994,-2.4404,-2.4639,-2.4639,-2.5068,-2.5293,-2.5293,-2.5586,-2.5742,-2.5742,-2.5742,-2.5742,-2.5742,-2.5742,-2.5742,-2.5742,-2.5742,-2.5742,-2.5742,-2.5742,-2.5742,-2.5742,-2.5742,-2.5742,-2.5742,-2.5742,-2.5742,-2.5742,-2.5742,-2.5742,-2.5742,-2.5742,-2.5742,-2.5742,-2.5742,-2.5742,-2.5742,-2.5742,-2.5742,-2.5742,-2.5742,-2.5742,-2.5742,-2.5742,-2.5742,-2.5742,-2.5742,-2.5742,-2.5742,-2.5742,-2.5742,-2.5742,-2.5742,-2.5742,-2.5781,-2.5937,-2.5419,-2.5115,-2.54,-2.4908,-2.4572,-2.4701,-2.472,-2.472,-2.472,-2.3987,-2.3472,-2.3472,-2.1713,-2.0682,-2.0682,-1.9331,-1.8603,-1.8603,-1.8102,-1.7689,-1.7582,0.0,0.0,0.0,0.0,0.0,0.0,0.0,0.0,0.0,0.0,0.0,0.0,0.0,0.0,0.0,0.0,0.0,0.0,0.0,0.0,0.0,0.0,0.0,-1.5832,-1.6943,-1.7692,-1.7777,-1.8772,-1.9951,-2.1221,-2.1311,-2.2039,-2.368,-2.3828,-2.4004,-2.4414,-2.4853,-2.5088,-2.5088,-2.5508,-2.5742,-2.5742,-2.5742,-2.5742,-2.5742,-2.5742,-2.5742,-2.5742,-2.5742,-2.5742,-2.5752,-2.5752,-2.5762,-2.5781,-2.5781,-2.5781,-2.5781,-2.5762,-2.5752,-2.5762,-2.5771,-2.5781,-2.5781,-2.5781,-2.5781,-2.5781,-2.5781,-2.5781,-2.5781,-2.5781,-2.5781,-2.5781,-2.5781,-2.5781,-2.5781,-2.5781,-2.5781,-2.5781,-2.5781,-2.5781,-2.5781,-2.5781,-2.5781,-2.5781,-2.5781,-2.5781,-2.5771,-2.5762,-2.5762,-2.5918,-2.6348,-2.4908,0.0,-2.4981,-2.3497,-2.257,-2.3026,-2.3059,-2.3059,-2.3059,-2.3059,-2.3059,-2.3059,-2.2953,-2.2953,-2.2847,-2.1564,-2.0816,-2.0816,-1.9038,-1.8017,-1.7714,0.0,0.0,0.0,0.0,0.0,0.0,0.0,0.0,0.0,0.0,0.0,0.0,0.0,0.0,0.0,0.0,0.0,0.0,0.0,0.0,0.0,-1.6574,-1.7225,-1.7225,-1.7505,-1.8326,-2.0059,-1.9861,-2.0417,-2.2919,-2.2307,-2.2473,-2.4117,-2.4541,-2.4766,-2.4883,-2.5312,-2.5557,-2.5557,-2.5674,-2.5742,-2.5742,-2.5742,-2.5742,-2.5742,-2.5742,-2.5742,-2.5742,-2.5742,-2.5908,-2.6211,-2.6211,-2.6377,-2.667,-2.667,-2.667,-2.6631,-2.6328,-2.6211,-2.624,-2.6553,-2.667,-2.667,-2.667,-2.667,-2.667,-2.667,-2.667,-2.667,-2.667,-2.667,-2.667,-2.667,-2.667,-2.667,-2.667,-2.667,-2.667,-2.667,-2.667,-2.667,-2.667,-2.667,-2.667,-2.667,-2.667,-2.6572,-2.626,-2.6465,-2.6699,-2.6826,-2.6425,-2.6212,-2.6452,-2.6058,-2.5713,-2.5825,-2.5834,-2.5834,-2.5834,-2.5834,-2.5834,-2.5834,-2.4977,-2.3904,-2.2847,-2.2421,-2.2314,-2.2314,-2.1798,-2.0964,0.0,0.0,0.0,0.0,0.0,0.0,0.0,0.0,0.0,0.0,0.0,0.0,0.0,0.0,0.0,0.0,0.0,0.0,0.0,0.0,0.0,0.0,-1.7225,-1.7692,-1.7692,-1.8141,-1.9139,-2.1042,-2.0823,-2.1381,-2.358,-2.2833,-2.2908,-2.4565,-2.4922,-2.5146,-2.5332,-2.5596,-2.5742,-2.5742,-2.5742,-2.5742,-2.5742,-2.5742,-2.5742,-2.5742,-2.5742,-2.583,-2.6006,-2.6006,-2.624,-2.665,-2.665,-2.6787,-2.7012,-2.7012,-2.7012,-2.6992,0.0,0.0,0.0,0.0,-2.7012,-2.7012,-2.7012,-2.7012,-2.7012,-2.7012,-2.7012,-2.7012,-2.7012,-2.7012,-2.7012,-2.7012,-2.7012,-2.7012,-2.7012,-2.7012,-2.7012,-2.7012,-2.7012,-2.7012,-2.7012,-2.7012,-2.7012,-2.7012,-2.7168,0.0,-2.6963,-2.6973,-2.708,-2.7256,-2.7139,-2.7139,-2.75,-2.7393,-2.7353,-2.7529,-2.7549,-2.7549,-2.7549,-2.7549,0.0,0.0,0.0,-2.5687,-2.4167,-2.4167,0.0,0.0,0.0,-2.1712,-2.0715,-2.0077,0.0,0.0,-1.943,-2.0144,0.0,0.0,0.0,0.0,0.0,0.0,0.0,0.0,0.0,0.0,0.0,0.0,0.0,0.0,0.0,0.0,-1.7684,-1.787,-1.7692,-1.8896,-2.0192,-2.1275,-2.1889,-2.262,-2.3826,-2.3317,-2.3513,-2.5012,-2.5146,-2.5322,-2.5713,-2.5742,0.0,0.0,0.0,-2.5742,-2.5742,-2.5742,-2.5762,-2.581,-2.581,-2.6035,-2.6455,-2.6455,-2.6689,-2.709,-2.709,-2.7109,-2.7158,-2.7158,-2.7158,-2.7158,-2.7109,-2.7119,-2.7158,-2.7158,-2.7158,-2.7158,-2.7158,0.0,0.0,-2.7158,-2.7158,-2.7158,-2.7158,-2.7158,-2.7158,-2.7158,-2.7158,-2.7158,-2.7158,-2.7158,-2.7158,-2.7158,-2.7158,-2.7158,-2.7158,-2.7158,-2.7158,-2.7158,-2.7471,-2.7734,-2.7734,-2.7412,-2.7295,-2.7676,-2.7412,-2.7432,-2.8193,-2.7969,-2.7881,-2.8252,-2.8291,0.0,-2.8291,-2.8291,-2.8291,-2.8291,-2.8174,-2.7511,-2.6381,-2.6155,-2.5439,-2.4013,-2.2694,-2.1775,-2.1364,-1.9981,-1.9974,-2.1356,-2.214,-2.2642,0.0,0.0,0.0,0.0,0.0,0.0,0.0,0.0,0.0,0.0,0.0,0.0,0.0,0.0,0.0,-1.6473,-1.7848,-1.8772,-1.787,-1.9853,-2.1624,-2.1807,-2.2809,-2.3779,-2.4756,-2.4704,-2.4927,-2.5576,-2.5605,-2.5644,-2.5732,-2.5742,-2.5742,-2.5742,-2.5742,-2.5742,-2.5742,-2.5742,-2.5918,-2.626,-2.626,0.0,-2.6894,-2.6894,-2.7129,-2.7539,-2.7539,-2.7734,-2.8047,-2.8047,-2.8047,-2.8018,-2.7676,-2.7744,-2.8047,-2.8047,-2.8047,-2.8047,-2.8047,-2.8047,-2.8047,-2.8047,-2.8047,-2.8047,-2.8047,-2.8047,0.0,-2.8047,-2.8047,-2.8047,-2.8047,-2.8047,-2.8047,-2.8047,-2.8047,-2.8047,-2.8047,-2.8047,-2.8047,-2.8047,-2.8115,-2.8174,-2.8174,-2.8105,-2.8076,-2.8164,-2.8105,-2.8105,-2.8271,-2.8223,-2.8203,-2.8281,-2.8291,-2.8291,-2.8291,-2.8291,-2.8291,-2.8291,-2.7168,-2.6943,-2.7843,-2.6717,-2.6454,-2.7387,-2.7056,-2.6344,-2.5042,-2.4824,-2.4824,-2.5025,-2.2365,-2.1779,0.0,0.0,0.0,0.0,0.0,0.0,0.0,0.0,0.0,0.0,0.0,-1.6943,-1.7576,0.0,-1.8403,-1.7755,-1.8672,-1.9371,-1.901,-2.0686,-2.174,-2.1067,-2.3019,-2.4301,-2.404,-2.4871,-2.5498,-2.5723,-2.5742,-2.5742,-2.5742,-2.5742,-2.5742,-2.5742,-2.5742,-2.5742,-2.5742,-2.5957,-2.6172,-2.6387,-2.6602,-2.6924,-2.7344,-2.7344,-2.7578,-2.7978,-2.7978,-2.8096,-2.8291,-2.8291,-2.8291,-2.8271,-2.8057,-2.8105,-2.8291,-2.8291,-2.8291,-2.8291,-2.8291,-2.8291,-2.8291,-2.8291,-2.8291,-2.8291,-2.8291,-2.8291,-2.8291,-2.8291,-2.8291,-2.8291,-2.8291,-2.8291,-2.8291,-2.8291,-2.8291,-2.8291,-2.8291,-2.8291,-2.8291,-2.8291,-2.8291,-2.8291,-2.8291,-2.8291,-2.8291,-2.8291,-2.8291,-2.8291,-2.8291,-2.8291,-2.8291,-2.8291,-2.8291,-2.8291,-2.8291,-2.8291,-2.8291,-2.8291,-2.7609,-2.7501,-2.8291,-2.7609,-2.7501,-2.8291,-2.7618,-2.6834,-2.6155,-2.538,-2.538,-2.6036,-2.4207,-2.4145,0.0,0.0,0.0,0.0,0.0,0.0,0.0,-1.6015,-1.648,-1.7505,-1.703,-1.7117,-1.9131,-1.868,-1.8319,-1.9039,-1.9646,-1.9887,-1.9796,-2.1392,-2.1955,-2.0326,-2.3079,-2.4708,-2.3602,-2.4821,-2.5742,-2.5742,-2.5742,-2.5742,-2.5742,-2.5742,-2.5742,-2.5742,-2.5742,-2.5781,-2.5859,-2.6211,-2.6465,-2.6641,-2.6982,-2.7363,-2.7783,-2.7783,-2.7969,-2.8291,-2.8291,-2.8291,-2.8291,-2.8291,-2.8291,-2.8291,-2.8291,-2.8291,-2.8291,-2.8291,-2.8291,-2.8291,-2.8291,-2.8291,-2.8291,-2.8291,-2.8291,-2.8291,-2.8291,-2.8291,-2.8291,-2.8291,-2.8291,-2.8291,-2.8291,-2.8291,-2.8291,-2.8291,-2.8291,-2.8291,-2.8291,-2.8291,-2.8291,-2.8291,-2.8291,-2.8291,-2.8291,-2.8291,-2.8291,-2.8291,-2.8291,-2.8291,-2.8291,-2.8291,-2.8291,-2.8291,-2.8291,-2.8291,-2.8291,-2.8291,-2.8291,-2.8291,-2.8291,-2.8291,-2.8291,-2.8291,-2.8291,-2.8291,-2.7159,-2.649,-2.649,-2.527,-2.527,-2.649,-2.649,-2.7168,-1.3197,-1.4752,-1.6201,-1.5929,-1.5852,-1.5832,0.0,-1.6669,-1.7505,-1.7692,-1.8411,-1.9123,-1.9488,-1.9405,-1.8948,-1.8048,-2.0063,-2.094,-1.8822,-2.2132,-2.3841,-2.1374,-2.3419,-2.5225,-2.5421,-2.5606,-2.5742,-2.5742,-2.5742,-2.5742,-2.5742,-2.5742,-2.5742,-2.5742,-2.5742,-2.5918,-2.6309,-2.6367,-2.6768,-2.7519,-2.7568,-2.7812,-2.8223,-2.8223,-2.8252,-2.8291,-2.8291,-2.8291,-2.8291,-2.8291,-2.8291,-2.8291,-2.8291,-2.8291,-2.8291,-2.8291,-2.8291,-2.8291,-2.8291,-2.8291,-2.8291,-2.8291,-2.8291,-2.8291,-2.8291,-2.8291,-2.8291,-2.8291,-2.8291,-2.8291,-2.8291,-2.8291,-2.8291,-2.8291,-2.8291,-2.8291,-2.8291,-2.8291,-2.8291,-2.8291,-2.8291,-2.8291,-2.8291,-2.8291,-2.8291,-2.8291,-2.8291,-2.8291,-2.8291,-2.8291,-2.8291,-2.8291,-2.8291,-2.8291,-2.8291,-2.8291,-2.8291,-2.8291,-2.8291,-2.8291,-2.8291,-2.8291,-2.8291,-2.8291,-2.8174,-2.8067,-2.8067,-2.7843,-2.7843,-2.8067,-2.8067,-2.8174,-1.4159,-1.5573,-1.6647,-1.64,-1.6079,-1.5832,-1.5832,-1.6763,-1.7692,-1.7692,-1.868,-1.9497,-1.9497,-2.0034,-2.0473,-2.0256,-2.1173,-2.2086,-2.2245,-2.3281,-2.3979,-2.3813,-2.4754,-2.5228,-2.459,-2.5226,-2.5742,-2.5742,-2.5742,-2.5742,-2.5742,-2.5742,-2.5742,-2.5742,-2.5986,-2.6201,-2.6387,-2.6885,-2.7314,-2.7666,-2.792,-2.8125,-2.8291,-2.8291,-2.8291,-2.8291,-2.8291,-2.8291,-2.8291,-2.8291,-2.8291,-2.8291,-2.8291,-2.8291,-2.8291,-2.8291,-2.8291,-2.8291,-2.8291,-2.8291,-2.8291,-2.8291,-2.8291,-2.8291,-2.8291,-2.8291,-2.8291,-2.8291,-2.8291,-2.8291,-2.8291,-2.8291,-2.8291,-2.8291,-2.8291,-2.8291,-2.8291,-2.8291,-2.8291,-2.8291,-2.8291,-2.8291,-2.8291,-2.8291,-2.8291,-2.8291,-2.8291,-2.8291,-2.8291,-2.8291,-2.8291,-2.8291,-2.8291,-2.8291,-2.8291,-2.8291,-2.8291,-2.8291,-2.8291,-2.8291,-2.8291,-2.8291,-2.8291,-2.8291,-2.8291,-2.8291,-2.8291,-2.8291,-2.8291,-2.8291,-2.8291,-2.8291,-1.5329,-1.6196,-1.6587,-1.6587,-1.6206,-1.5832,-1.5832,-1.703,-1.8141,-1.7785,-1.868,-1.9621,-2.0087,-2.065,-2.1228,-2.2023,-2.2557,-2.3122,-2.3888,-2.3988,-2.4281,-2.508,-2.543,-2.5323,-2.4304,-2.5128,-2.5742,-2.5742,-2.5742,-2.5742,-2.5742,-2.5742,-2.5742,-2.5742,-2.6162,-2.6445,-2.6562,-2.7295,-2.7725,-2.7842,-2.8144,-2.8291,-2.8291,-2.8291,-2.8291,-2.8291,-2.8291,-2.8291,-2.8291,-2.8291,-2.8291,-2.8291,-2.8291,-2.8291,-2.8291,-2.8291,-2.8291,-2.8291,-2.8291,-2.8291,-2.8291,-2.8291,-2.8291,-2.8291,-2.8291,-2.8291,-2.8291,-2.8291,-2.8291,-2.8291,-2.8291,-2.8291,-2.8291,-2.8291,-2.8291,-2.8291,-2.8291,-2.8291,-2.8291,-2.8291,-2.8291,-2.8291,-2.8291,-2.8291,-2.8291,-2.8291,-2.8291,-2.8291,-2.8291,-2.8291,-2.8291,-2.8291,-2.8291,-2.8291,-2.8291,-2.8291,-2.8291,-2.8291,-2.8291,-2.8291,-2.8291,-2.8291,-2.8291,-2.8291,-2.8291,-2.8291,-2.8291,-2.8291,-2.8291,-2.8291,-2.8291,-2.8291,-1.6742,-1.6734,-1.6286,-1.6286,-1.6052,-1.5832,-1.5832,-1.7662,-1.9131,-1.7963,-1.868,-1.997,-2.1651,-2.0957,-2.0696,-2.2326,-2.3985,-2.4145,-2.1688,-2.3831,-2.5206,-2.389,-2.4922,-2.5635,-2.5635,-2.5635,-2.5742,-2.5742,-2.5742,-2.5742,-2.5742,-2.5742,-2.5742,-2.5742,-2.6162,-2.6582,-2.6992,-2.7441,-2.7871,-2.8271,-2.8281,-2.8291,-2.8291,-2.8291,-2.8291,-2.8291,-2.8291,-2.8291,-2.8291,-2.8291,-2.8291,-2.8291,-2.8291,-2.8291,-2.8291,-2.8291,-2.8291,-2.8291,-2.8291,-2.8291,-2.8291,-2.8291,-2.8291,-2.8291,-2.8291,-2.8291,-2.8291,-2.8291,-2.8291,-2.8291,-2.8291,-2.8291,-2.8291,-2.8291,-2.8291,-2.8291,-2.8291,-2.8291,-2.8291,-2.8291,-2.8291,-2.8291,-2.8291,-2.8291,-2.8291,-2.8291,-2.8291,-2.8291,-2.8291,-2.8291,-2.8291,-2.8291,-2.8291,-2.8291,-2.8291,-2.8291,-2.8291,-2.8291,-2.8291,-2.8291,-2.8291,-2.8291,-2.8291,-2.8291,-2.8291,-2.8291,-2.8291,-2.8291,-2.8291,-2.8291,-2.8291,-2.8291,-1.7091,-1.686,-1.656,-1.656,-1.6192,-1.5832,-1.5832,-1.7124,-1.7956,-1.6669,-1.8033,-1.952,-1.9421,-2.0517,-2.1658,-2.2694,-2.4088,-2.4574,-2.3045,-2.4524,-2.5226,-2.389,-2.4913,-2.5742,-2.5742,-2.5742,-2.5742,-2.5742,-2.5742,-2.5742,-2.5742,-2.5742,-2.5869,-2.6162,-2.6582,-2.7012,-2.7441,-2.7871,-2.8154,-2.8291,-2.8291,-2.8291,-2.8291,-2.8291,-2.8291,-2.8291,-2.8291,-2.8291,-2.8291,-2.8291,-2.8291,-2.8291,-2.8291,-2.8291,-2.8291,-2.8291,-2.8291,-2.8291,-2.8291,-2.8291,-2.8291,-2.8291,-2.8291,-2.8291,-2.8291,-2.8291,-2.8291,-2.8291,-2.8291,-2.8291,-2.8291,-2.8291,-2.8291,-2.8291,-2.8291,-2.8291,-2.8291,-2.8291,-2.8291,-2.8291,-2.8291,-2.8291,-2.8291,-2.8291,-2.8291,-2.8291,-2.8291,-2.8291,-2.8291,-2.8291,-2.8291,-2.8291,-2.8291,-2.8291,-2.8291,-2.8291,-2.8291,-2.8291,-2.8291,-2.8291,-2.8291,-2.8291,-2.8291,-2.8291,-2.8291,-2.8291,-2.8291,-2.8291,-2.8291,-2.8291,-2.8291,-2.8291,-1.7328,-1.6934,-1.6573,-1.668,-1.6266,-1.5832,-1.5832,-1.7203,-1.8036,-1.6361,-1.8025,-1.9617,-1.8648,-2.0238,-2.2072,-2.3098,-2.4003,-2.4193,-2.3141,-2.4097,-2.451,-2.3176,-2.4196,-2.5128,-2.5635,-2.5226,-2.5226,-2.5635,-2.5742,-2.5742,-2.5742,-2.5742,-2.5937,-2.6377,-2.6797,-2.7226,-2.7666,-2.8086,-2.8291,-2.8291,-2.8291,-2.8291,-2.8291,-2.8291,-2.8291,-2.8291,-2.8291,-2.8291,-2.8291,-2.8291,-2.8291,-2.8291,-2.8291,-2.8291,-2.8291,-2.8291,-2.8291,-2.8291,-2.8291,-2.8291,-2.8291,-2.8291,-2.8291,-2.8291,-2.8291,-2.8291,-2.8291,-2.8291,-2.8291,-2.8291,-2.8291,-2.8291,-2.8291,-2.8291,-2.8291,-2.8291,-2.8291,-2.8291,-2.8291,-2.8291,-2.8291,-2.8291,-2.8291,-2.8291,-2.8291,-2.8291,-2.8291,-2.8291,-2.8291,-2.8291,-2.8291,-2.8291,-2.8291,-2.8291,-2.8291,-2.8291,-2.8291,-2.8291,-2.8291,-2.8291,-2.8291,-2.8291,-2.8291,-2.8291,-2.8291,-2.8291,-2.8291,-2.8291,-2.8291,-2.8291,-2.8291,-2.8291,-1.7488,-1.6941,-1.6359,-1.664,-1.6266,-1.5832,-1.5845,-1.7923,-1.928,-1.6856,-1.8521,-2.02,-1.9383,-2.0321,-2.1717,-2.3322,-2.3692,-2.3276,-2.1954,-2.2868,-2.3276,-2.1954,-2.2976,-2.4196,-2.5538,-2.451,-2.4196,-2.5528,-2.5635,-2.5742,-2.5742,-2.5762,-2.5967,-2.6406,-2.6826,-2.7256,-2.7695,-2.8096,-2.8291,-2.8291,-2.8291,-2.8291,-2.8291,-2.8291,-2.8291,-2.8291,-2.8291,-2.8291,-2.8291,-2.8291,-2.8291,-2.8291,-2.8291,-2.8291,-2.8291,-2.8291,-2.8291,-2.8291,-2.8291,-2.8291,-2.8291,-2.8291,-2.8291,-2.8291,-2.8291,-2.8291,-2.8291,-2.8291,-2.8291,-2.8291,-2.8291,-2.8291,-2.8291,-2.8291,-2.8291,-2.8291,-2.8291,-2.8291,-2.8291,-2.8291,-2.8291,-2.8291,-2.8291,-2.8291,-2.8291,-2.8291,-2.8291,-2.8291,-2.8291,-2.8291,-2.8291,-2.8291,-2.8291,-2.8291,-2.8291,-2.8291,-2.8291,-2.8291,-2.8291,-2.8291,-2.8291,-2.8291,-2.8291,-2.8291,-2.8291,-2.8291,-2.8291,-2.8291,-2.8291,-2.8291,-2.8291,-2.8291,-1.7295,-1.6934,-1.6613,-1.6687,-1.6266,-1.5885,-1.6112,-1.678,-1.7376,-1.7996,-1.7915,-1.7967,-1.8989,-2.0321,-2.142,-2.2097,-2.3076,-2.3583,-2.3276,-2.3484,-2.3583,-2.3276,-2.3484,-2.4196,-2.5538,-2.451,-2.3791,-2.4196,-2.5118,-2.5742,-2.5742,-2.6045,-2.6416,-2.6846,-2.7275,-2.7705,-2.8125,-2.8242,-2.8291,-2.8291,-2.8291,-2.8291,-2.8291,-2.8291,-2.8291,-2.8291,-2.8291,-2.8291,-2.8291,-2.8291,-2.8291,-2.8291,-2.8291,-2.8291,-2.8291,-2.8291,-2.8291,-2.8291,-2.8291,-2.8291,-2.8291,-2.8291,-2.8291,-2.8291,-2.8291,-2.8291,-2.8291,-2.8291,-2.8291,-2.8291,-2.8291,-2.8291,-2.8291,-2.8291,-2.8291,-2.8291,-2.8291,-2.8291,-2.8291,-2.8291,-2.8291,-2.8291,-2.8291,-2.8291,-2.8291,-2.8291,-2.8291,-2.8291,-2.8291,-2.8291,-2.8291,-2.8291,-2.8291,-2.8291,-2.8291,-2.8291,-2.8291,-2.8291,-2.8291,-2.8291,-2.8291,-2.8291,-2.8291,-2.8291,-2.8291,-2.8291,-2.8291,-2.8291,-2.8291,-2.8291,-2.8291,-2.8291,-1.7382,-1.7128,-1.6901,-1.6901,-1.6553,-1.6226,-1.6266,-1.7428,-1.8498,-1.8641,-1.8773,-1.9026,-1.9321,-2.0451,-2.1503,-2.1719,-2.2366,-2.2868,-2.2868,-2.2868,-2.2868,-2.2868,-2.2868,-2.3583,-2.5528,-2.3998,-2.3076,-2.3692,-2.4922,-2.543,-2.4815,-2.5836,-2.6582,-2.7002,-2.7441,-2.7861,-2.8291,-2.8291,-2.8291,-2.8291,-2.8291,-2.8291,-2.8291,-2.8291,-2.8291,-2.8291,-2.8291,-2.8291,-2.8291,-2.8291,-2.8291,-2.8291,-2.8291,-2.8291,-2.8291,-2.8291,-2.8291,-2.8291,-2.8291,-2.8291,-2.8291,-2.8291,-2.8291,-2.8291,-2.8291,-2.8291,-2.8291,-2.8291,-2.8291,-2.8291,-2.8291,-2.8291,-2.8291,-2.8291,-2.8291,-2.8291,-2.8291,-2.8291,-2.8291,-2.8291,-2.8291,-2.8291,-2.8291,-2.8291,-2.8291,-2.8291,-2.8291,-2.8291,-2.8291,-2.8291,-2.8291,-2.8291,-2.8291,-2.8291,-2.8291,-2.8291,-2.8291,-2.8291,-2.8291,-2.8291,-2.8291,-2.8291,-2.8291,-2.8291,-2.8291,-2.8291,-2.8291,-2.8291,-2.8291,-2.8291,-2.8291,-2.8291,-1.7582,-1.7368,-1.7148,-1.7148,-1.6927,-1.6653,-1.644,-1.8723,-2.0637,-1.9315,-2.0316,-2.1143,-2.0033,-2.0735,-2.1448,-2.1643,-2.1541,-2.155,-2.1954,-2.1853,-2.1752,-2.1954,-2.1853,-2.2767,-2.543,-2.3076,-2.1954,-2.3285,-2.4707,-2.4922,-2.3791,-2.5477,-2.6689,-2.7168,-2.7549,-2.792,-2.8291,-2.8291,-2.8291,-2.8291,-2.8291,-2.8291,-2.8291,-2.8291,-2.8291,-2.8291,-2.8291,-2.8291,-2.8291,-2.8291,-2.8291,-2.8291,-2.8291,-2.8291,-2.8291,-2.8291,-2.8291,-2.8291,-2.8291,-2.8291,-2.8291,-2.8291,-2.8291,-2.8291,-2.8291,-2.8291,-2.8291,-2.8291,-2.8291,-2.8291,-2.8291,-2.8291,-2.8291,-2.8291,-2.8291,-2.8291,-2.8291,-2.8291,-2.8291,-2.8291,-2.8291,-2.8291,-2.8291,-2.8291,-2.8291,-2.8291,-2.8291,-2.8291,-2.8291,-2.8291,-2.8291,-2.8291,-2.8291,-2.8291,-2.8291,-2.8291,-2.8291,-2.8291,-2.8291,-2.8291,-2.8291,-2.8291,-2.8291,-2.8291,-2.8291,-2.8291,-2.8291,-2.8291,-2.8291,-2.8291,-2.8291,-2.832,-1.7582,-1.7368,-1.7148,-1.7148,-1.6927,-1.676,-1.6954,-1.8369,-1.9899,-2.0909,-2.0554,-2.0231,-2.1143,-2.0538,-2.0341,-2.155,-2.0735,-2.0743,-2.3076,-2.2366,-2.2156,-2.3176,-2.2366,-2.2767,-2.543,-2.2265,-2.0538,-2.1954,-2.3276,-2.3998,-2.3683,-2.5743,-2.7266,-2.8047,-2.8144,-2.8223,-2.8291,-2.8291,-2.8291,-2.8291,-2.8291,-2.8291,-2.8291,-2.8291,-2.8291,-2.8291,-2.8291,-2.8291,-2.8291,-2.8291,-2.8291,-2.8291,-2.8291,-2.8291,-2.8291,-2.8291,-2.8291,-2.8291,-2.8291,-2.8291,-2.8291,-2.8291,-2.8291,-2.8291,-2.8291,-2.8291,-2.8291,-2.8291,-2.8291,-2.8291,-2.8291,-2.8291,-2.8291,-2.8291,-2.8291,-2.8291,-2.8291,-2.8291,-2.8291,-2.8291,-2.8291,-2.8291,-2.8291,-2.8291,-2.8291,-2.8291,-2.8291,-2.8291,-2.8291,-2.8291,-2.8291,-2.8291,-2.8291,-2.8291,-2.8291,-2.8291,-2.8291,-2.8291,-2.8291,-2.8291,-2.8291,-2.8291,-2.8291,-2.8291,-2.8291,-2.8291,-2.8291,-2.8291,-2.8291,-2.8291,-2.8291,-2.8476,-1.7582,-1.7482,-1.7375,-1.7375,-1.7268,-1.7161,-1.7154,-1.8373,-1.9592,-2.028,-2.0013,-1.9834,-2.0436,-2.0033,-1.9826,-2.0538,-2.0033,-2.0033,-2.1355,-2.1651,-2.1651,-2.1558,-2.1651,-2.2466,-2.451,-2.1558,-2.0128,-2.155,-2.2968,-2.3473,-2.2961,-2.5713,-2.7637,-2.8271,-2.8291,-2.8291,-2.8291,-2.8291,-2.8291,-2.8291,-2.8291,-2.8291,-2.8291,-2.8291,-2.8291,-2.8291,-2.8291,-2.8291,-2.8291,-2.8291,-2.8291,-2.8291,-2.8291,-2.8291,-2.8291,-2.8291,-2.8291,-2.8291,-2.8291,-2.8291,-2.8291,-2.8291,-2.8291,-2.8291,-2.8291,-2.8291,-2.8291,-2.8291,-2.8291,-2.8291,-2.8291,-2.8291,-2.8291,-2.8291,-2.8291,-2.8291,-2.8291,-2.8291,-2.8291,-2.8291,-2.8291,-2.8291,-2.8291,-2.8291,-2.8291,-2.8291,-2.8291,-2.8291,-2.8291,-2.8291,-2.8291,-2.8291,-2.8291,-2.8291,-2.8291,-2.8291,-2.8291,-2.8291,-2.8291,-2.8291,-2.8291,-2.8291,-2.8291,-2.8291,-2.8291,-2.8291,-2.8291,-2.8291,-2.8291,-2.8291,-2.8291,-2.8525,-1.7582,-1.7582,-1.7582,-1.7582,-1.7582,-1.7522,-1.7295,-1.8537,-1.9553,-1.9306,-1.9448,-1.9627,-1.9627,-1.9324,-1.922,-1.9524,-1.9324,-1.922,-1.9524,-2.0538,-2.0837,-1.9731,-2.0538,-2.1752,-2.3176,-2.0743,-1.9723,-2.1143,-2.2722,-2.3463,-2.3358,-2.6059,-2.7861,-2.8281,-2.8291,-2.8291,-2.8291,-2.8291,-2.8291,-2.8291,-2.8291,-2.8291,-2.8291,-2.8291,-2.8291,-2.8291,-2.8291,-2.8291,-2.8291,-2.8291,-2.8291,-2.8291,-2.8291,-2.8291,-2.8291,-2.8291,-2.8291,-2.8291,-2.8291,-2.8291,-2.8291,-2.8291,-2.8291,-2.8291,-2.8291,-2.8291,-2.8291,-2.8291,-2.8291,-2.8291,-2.8291,-2.8291,-2.8291,-2.8291,-2.8291,-2.8291,-2.8291,-2.8291,-2.8291,-2.8291,-2.8291,-2.8291,-2.8291,-2.8291,-2.8291,-2.8291,-2.8291,-2.8291,-2.8291,-2.8291,-2.8291,-2.8291,-2.8291,-2.8291,-2.8291,-2.8291,-2.8291,-2.8291,-2.8291,-2.8291,-2.8291,-2.8291,-2.8291,-2.8291,-2.8291,-2.8291,-2.8291,-2.8291,-2.8291,-2.8291,-2.8291,-2.8564,-1.7582,-1.7582,-1.7582,-1.7582,-1.7582,-1.7575,-1.7549,-1.8589,-1.962,-1.959,-1.9605,-1.9627,-1.9627,-1.861,-1.8199,-1.9428,-1.861,-1.8199,-1.9428,-1.9731,-1.9731,-1.9627,-1.9731,-2.0333,-2.1752,-1.942,-1.8297,-1.9731,-2.1748,-2.4044,-2.6423,-2.7299,-2.7861,-2.8281,-2.8291,-2.8291,-2.8291,-2.8291,-2.8291,-2.8291,-2.8291,-2.8291,-2.8291,-2.8291,-2.8291,-2.8291,-2.8291,-2.8291,-2.8291,-2.8291,-2.8291,-2.8291,-2.8291,-2.8291,-2.8291,-2.8291,-2.8291,-2.8291,-2.8291,-2.8291,-2.8291,-2.8291,-2.8291,-2.8291,-2.8291,-2.8291,-2.8291,-2.8291,-2.8291,-2.8291,-2.8291,-2.8291,-2.8291,-2.8291,-2.8291,-2.8291,-2.8291,-2.8291,-2.8291,-2.8291,-2.8291,-2.8291,-2.8291,-2.8291,-2.8291,-2.8291,-2.8291,-2.8291,-2.8291,-2.8291,-2.8291,-2.8291,-2.8291,-2.8291,-2.8291,-2.8291,-2.8291,-2.8291,-2.8291,-2.8291,-2.8291,-2.8291,-2.8291,-2.8291,-2.8291,-2.8291,-2.8291,-2.8291,-2.8291,-2.8291,-2.8291,-2.873,-1.7535,-1.7582,-1.7582,-1.7582,-1.7582,-1.7582,-1.7582,-1.7989,-1.8401,-1.8401,-1.8401,-1.8401,-1.8401,-1.7996,-1.7786,-1.8297,-1.7996,-1.7793,-1.8304,-1.9117,-1.9324,-1.8506,-1.9117,-1.9834,-2.0333,-1.8708,-1.8199,-1.9531,-2.0863,-2.2421,-2.4342,-2.6682,-2.7777,-2.7051,-2.7843,-2.8291,-2.8291,-2.8291,-2.8291,-2.8291,-2.8291,-2.8291,-2.8291,-2.8291,-2.8291,-2.8291,-2.8291,-2.8291,-2.8291,-2.8291,-2.8291,-2.8291,-2.8291,-2.8291,-2.8291,-2.8291,-2.8291,-2.8291,-2.8291,-2.8291,-2.8291,-2.8291,-2.8291,-2.8291,-2.8291,-2.8291,-2.8291,-2.8291,-2.8291,-2.8291,-2.8291,-2.8291,-2.8291,-2.8291,-2.8291,-2.8291,-2.8291,-2.8291,-2.8291,-2.8291,-2.8291,-2.8291,-2.8291,-2.8291,-2.8291,-2.8291,-2.8291,-2.8291,-2.8291,-2.8291,-2.8291,-2.8291,-2.8291,-2.8291,-2.8291,-2.8291,-2.8291,-2.8291,-2.8291,-2.8291,-2.8291,-2.8291,-2.8291,-2.8291,-2.8291,-2.8291,-2.8291,-2.8291,-2.8291,-2.8291,-2.8291,-2.8613,-1.7402,-1.7515,-1.7582,-1.7582,-1.7582,-1.7582,-1.7582,-1.7582,-1.7582,-1.7582,-1.7582,-1.7582,-1.7582,-1.7582,-1.7582,-1.7582,-1.7582,-1.7582,-1.7582,-1.8401,-1.8708,-1.7687,-1.8401,-1.902,-1.902,-1.8199,-1.7989,-1.8916,-2.0027,-2.0932,-2.1472,-2.4966,-2.6717,-2.6155,-2.7159,-2.7843,-2.8291,-2.8291,-2.8291,-2.8291,-2.8291,-2.8291,-2.8291,-2.8291,-2.8291,-2.8291,-2.8291,-2.8291,-2.8291,-2.8291,-2.8291,-2.8291,-2.8291,-2.8291,-2.8291,-2.8291,-2.8291,-2.8291,-2.8291,-2.8291,-2.8291,-2.8291,-2.8291,-2.8291,-2.8291,-2.8291,-2.8291,-2.8291,-2.8291,-2.8291,-2.8291,-2.8291,-2.8291,-2.8291,-2.8291,-2.8291,-2.8291,-2.8291,-2.8291,-2.8291,-2.8291,-2.8291,-2.8291,-2.8291,-2.8291,-2.8291,-2.8291,-2.8291,-2.8291,-2.8291,-2.8174,-2.7726,-2.7618,-2.7843,-2.8291,-2.8291,-2.8291,-2.8291,-2.8291,-2.8291,-2.8291,-2.8291,-2.8291,-2.8291,-2.8291,-2.8291,-2.8291,-2.8291,-2.8291,-2.8291,-2.8291,-2.8525,-1.7154,-1.7361,-1.7582,-1.7582,-1.7582,-1.7582,-1.7582,-1.7582,-1.7582,-1.7582,-1.7582,-1.7582,-1.7582,-1.7582,-1.7582,-1.7582,-1.7582,-1.7582,-1.7582,-1.7582,-1.7582,-1.7582,-1.7582,-1.7582,-1.7582,-1.7582,-1.7582,-1.7582,-1.9499,-2.0077,-1.8594,-2.1904,-2.4488,-2.6045,-2.6155,-2.6825,-2.8291,-2.8291,-2.8291,-2.8291,-2.8291,-2.8291,-2.8291,-2.8291,-2.8291,-2.8291,-2.8291,-2.8291,-2.8291,-2.8291,-2.8291,-2.8291,-2.8291,-2.8291,-2.8291,-2.8291,-2.8291,-2.8291,-2.8291,-2.8291,-2.8291,-2.8291,-2.8291,-2.8291,-2.8291,-2.8291,-2.8291,-2.8291,-2.8291,-2.8291,-2.8291,-2.8291,-2.8291,-2.8291,-2.8291,-2.8291,-2.8291,-2.8291,-2.8291,-2.8291,-2.8291,-2.8291,-2.8291,-2.8291,-2.8291,-2.8291,-2.8291,-2.8291,-2.8291,-2.8291,-2.7726,-2.6264,-2.6155,-2.6717,-2.8184,-2.8291,-2.8291,-2.8291,-2.8291,-2.8291,-2.8291,-2.8291,-2.8291,-2.8291,-2.8291,-2.8291,-2.8291,-2.8291,-2.8291,-2.8291,-2.8291,-2.8525,-1.7388,-1.7515,-1.7582,-1.7582,-1.7582,-1.7582,-1.7582,-1.7582,-1.7582,-1.7582,-1.7582,-1.7582,-1.7582,-1.7582,-1.7582,-1.7582,-1.7582,-1.7582,-1.7582,-1.7582,-1.7582,-1.7582,-1.7582,-1.7582,-1.7582,-1.7582,-1.7669,-1.7883,-1.8687,-1.9112,-1.8778,-2.0039,-2.1487,-2.3039,-2.5041,-2.6264,-2.6825,-2.7843,-2.8291,-2.8291,-2.8291,-2.8291,-2.8291,-2.8291,-2.8291,-2.8291,-2.8291,-2.8291,-2.8291,-2.8291,-2.8291,-2.8291,-2.8291,-2.8291,-2.8291,-2.8291,-2.8291,-2.8291,-2.8291,-2.8291,-2.8291,-2.8291,-2.8291,-2.8291,-2.8291,-2.8291,-2.8291,-2.8291,-2.8291,-2.8291,-2.8291,-2.8291,-2.8291,-2.8291,-2.8291,-2.8291,-2.8291,-2.8291,-2.8291,-2.8291,-2.8291,-2.8291,-2.8291,-2.8291,-2.8291,-2.8291,-2.8291,-2.8291,-2.8291,-2.8291,-2.8067,-2.7618,-2.7618,-2.6943,-2.538,-2.6164,-2.6825,-2.6825,-2.7726,-2.8291,-2.8291,-2.8291,-2.8291,-2.8291,-2.8291,-2.8291,-2.8291,-2.8291,-2.8291,-2.8291,-2.8291,-2.8525,-1.7402,-1.7502,-1.7582,-1.7582,-1.7582,-1.7582,-1.7582,-1.7582,-1.7582,-1.7582,-1.7582,-1.7582,-1.7582,-1.7582,-1.7582,-1.7582,-1.7582,-1.7582,-1.7582,-1.7582,-1.7582,-1.7582,-1.7582,-1.7582,-1.7582,-1.7582,-1.7662,-1.7856,-1.8257,-1.8571,-1.8751,-1.9145,-1.9815,-2.0702,-2.3143,-2.4931,-2.6045,-2.7051,-2.7726,-2.8291,-2.8291,-2.8291,-2.8291,-2.8291,-2.8291,-2.8291,-2.8291,-2.8291,0.0,-2.8291,-2.8291,-2.8291,-2.8291,-2.8291,-2.8291,-2.8291,-2.8291,-2.8291,-2.8291,-2.8291,-2.8291,-2.8291,-2.8291,-2.8291,-2.8291,-2.8291,-2.8291,-2.8291,-2.8291,-2.8184,-2.7609,-2.7501,-2.7286,-2.6726,-2.6608,-2.6726,-2.7394,-2.706,-2.6726,-2.7394,-2.6943,-2.6608,-2.6608,-2.6608,-2.6834,-2.7394,-2.7501,-2.7618,-2.8184,-2.8291,-2.8067,-2.7501,-2.7501,-2.649,-2.4044,-2.5261,-2.6381,-2.6943,-2.7276,-2.7726,-2.8291,-2.8291,-2.8291,-2.8291,-2.8291,-2.8291,-2.8291,-2.8291,-2.8291,-2.8291,-2.8291,-2.8437,0.0,-1.7375,-1.7582,-1.7582,-1.7582,-1.7582,-1.7582,-1.7582,0.0,-1.7582,-1.7582,-1.7582,-1.7582,-1.7582,-1.7582,-1.7582,-1.7582,-1.7582,-1.7582,-1.7582,-1.7582,-1.7582,-1.7582,-1.7582,-1.7582,-1.7582,-1.7595,-1.7615,-1.8163,-1.8497,-1.8517,-1.9058,-1.9366,-1.9366,-2.0702,-2.2814,-2.5709,-2.6036,-2.6825,-2.8174,-2.8291,-2.8291,-2.8291,-2.8291,-2.8291,-2.8291,-2.8291,-2.8291,-2.8291,-2.8291,-2.8291,-2.8291,-2.8291,-2.8291,-2.8291,-2.8291,-2.8291,-2.8291,-2.8291,-2.8291,-2.8291,-2.8291,-2.8291,-2.8291,-2.8291,-2.8291,-2.8291,-2.8291,-2.8291,-2.795,-2.649,-2.6155,-2.5709,-2.4156,-2.3822,-2.4156,-2.5599,-2.482,-2.4267,-2.5709,-2.482,-2.3822,-2.3822,-2.3822,-2.4267,-2.5709,-2.5936,-2.6381,-2.7843,-2.796,-2.7501,-2.6264,-2.6155,-2.5599,-2.4267,-2.538,-2.6608,-2.7843,-2.6825,-2.6717,-2.8067,-2.8174,-2.8184,-2.8291,-2.8291,-2.8291,-2.8291,-2.8291,-2.8291,-2.8291,-2.8291,-2.8291,-1.7502,0.0,-1.7582,-1.7582,-1.7582,-1.7582,0.0,-1.7582,-1.7582,-1.7582,-1.7582,-1.7582,-1.7582,-1.7582,-1.7582,-1.7582,-1.7582,-1.7582,-1.7582,-1.7582,-1.7582,-1.7582,-1.7582,-1.7582,-1.7582,-1.7582,-1.7682,-1.7916,-1.8283,-1.8591,-1.8811,-1.9165,-1.9366,-1.9366,-1.97,-2.0816,-2.2589,-2.4931,-2.6264,-2.6608,-2.7736,-2.8291,-2.8291,-2.8291,-2.8291,-2.8291,-2.8291,-2.8291,-2.8291,-2.8291,-2.8291,-2.8291,-2.8291,-2.8291,-2.8291,-2.8291,-2.8291,-2.8291,-2.8291,-2.8291,-2.8291,-2.8291,-2.8291,-2.8291,-2.8291,-2.8291,-2.8291,-2.8291,-2.8291,-2.795,-2.649,-2.6155,-2.5709,-2.4156,-2.3822,-2.3933,-2.4267,-2.4044,-2.3933,-2.4267,-2.4044,-2.3822,-2.3822,-2.3822,-2.3933,-2.4267,-2.4378,-2.4488,-2.4829,-2.4829,-2.516,-2.6036,-2.6155,-2.6381,-2.7168,-2.649,-2.5709,-2.4939,-2.5599,-2.6264,-2.6599,-2.6599,-2.7159,-2.8291,-2.8291,-2.8291,-2.8291,-2.8291,-2.8291,-2.8291,-2.8291,-2.8291,-1.7582,-1.7582,-1.7582,-1.7582,-1.7582,-1.7582,-1.7582,-1.7582,-1.7582,-1.7582,-1.7582,-1.7582,-1.7582,-1.7582,-1.7582,-1.7582,-1.7582,-1.7582,-1.7582,-1.7582,-1.7582,-1.7582,-1.7582,-1.7582,-1.7582,-1.7582,-1.7655,-1.7822,-1.8243,-1.8557,-1.8718,-1.9132,-1.9366,-1.9366,-1.9366,-2.0148,-2.1586,-2.3255,-2.4701,-2.6155,-2.6943,-2.7618,-2.8291,-2.7618,-2.7618,-2.8291,-2.7618,-2.7726,-2.8291,-2.8291,-2.8291,-2.8291,-2.8291,-2.8291,-2.8291,-2.8291,-2.8291,-2.8291,-2.8291,-2.8291,-2.8291,-2.8291,-2.8291,-2.8291,-2.8291,-2.8291,-2.8291,-2.8291,-2.8291,-2.795,-2.649,-2.6155,-2.5709,-2.4156,-2.3822,-2.3941,-2.4727,-2.3822,-2.3039,-2.371,-2.271,-2.182,-2.182,-2.182,-2.2047,-2.271,-2.2814,-2.3039,-2.371,-2.3822,-2.4156,-2.4931,-2.5041,-2.538,-2.6164,-2.6164,-2.6045,-2.5827,-2.6045,-2.6381,-2.7051,-2.7159,-2.7501,-2.8291,-2.8291,-2.8291,-2.8291,-2.8291,-2.8291,-2.8291,-2.8291,-2.8291,-1.7582,-1.7582,-1.7582,-1.7582,-1.7582,-1.7582,-1.7582,-1.7582,-1.7582,-1.7582,-1.7582,-1.7582,-1.7582,-1.7582,-1.7582,-1.7582,-1.7582,-1.7582,-1.7582,-1.7582,-1.7582,-1.7582,-1.7582,-1.7582,-1.7582,-1.7582,-1.7582,-1.7582,-1.8143,-1.849,-1.849,-1.9052,-1.9366,-1.9366,-1.9366,-2.004,-2.1252,-2.1472,-2.2919,-2.5371,-2.5599,-2.649,-2.795,-2.6717,-2.6933,-2.8184,-2.6943,-2.7051,-2.795,-2.8184,-2.8067,-2.7618,-2.7843,-2.795,-2.795,-2.795,-2.8067,-2.8291,-2.8291,-2.8291,-2.8291,-2.8291,-2.8291,-2.8291,-2.8291,-2.8291,-2.8291,-2.8291,-2.8291,-2.795,-2.649,-2.6155,-2.5709,-2.4156,-2.3822,-2.4164,-2.5516,-2.3718,-2.2258,-2.3599,-2.182,-2.004,-1.9815,-1.97,-2.0033,-2.1145,-2.1252,-2.1699,-2.2934,-2.3159,-2.3159,-2.3487,-2.3487,-2.3599,-2.3822,-2.5041,-2.6381,-2.7843,-2.6825,-2.6608,-2.795,-2.8174,-2.8291,-2.8291,-2.8291,-2.8291,-2.8291,-2.8291,-2.8291,-2.8291,-2.8291,-2.8291,-1.7582,-1.7582,-1.7582,-1.7582,-1.7582,-1.7582,-1.7582,-1.7582,-1.7582,-1.7582,-1.7582,-1.7582,-1.7582,-1.7582,-1.7582,-1.7582,-1.7582,-1.7582,-1.7582,-1.7582,-1.7582,-1.7582,-1.7582,-1.7582,-1.7582,-1.7582,-1.7582,-1.7582,-1.8143,-1.849,-1.849,-1.9052,-1.9366,-1.9366,-1.9366,-1.9482,-1.97,-2.1031,-2.1805,-2.2363,-2.3599,-2.4931,-2.6381,-2.6155,-2.6933,-2.8291,-2.8067,-2.7394,-2.649,-2.7833,-2.6834,-2.4608,-2.5936,-2.649,-2.649,-2.649,-2.7276,-2.8291,-2.8291,-2.8291,-2.8291,-2.8291,-2.8291,-2.8291,-2.8291,-2.8291,-2.8291,-2.8291,-2.8291,-2.795,-2.649,-2.6155,-2.5709,-2.4156,-2.3822,-2.3822,-2.4053,-2.3822,-2.3487,-2.371,-2.3375,-2.271,-2.1479,-2.1252,-2.0923,-1.9924,-1.97,-1.9815,-2.004,-2.004,-2.0594,-2.1805,-2.1919,-2.2484,-2.371,-2.4044,-2.482,-2.6381,-2.6264,-2.6155,-2.6381,-2.7618,-2.8291,-2.8291,-2.8291,-2.8291,-2.8291,-2.8291,-2.8291,-2.8291,-2.8291,-2.8291,-1.7582,-1.7582,-1.7582,-1.7582,-1.7582,-1.7582,-1.7582,-1.7582,-1.7582,-1.7582,-1.7582,-1.7582,-1.7582,-1.7582,-1.7582,-1.7582,-1.7582,-1.7582,-1.7582,-1.7582,-1.7582,-1.7582,-1.7582,-1.7582,-1.7582,-1.7582,-1.7582,-1.7582,-1.8143,-1.849,-1.849,-1.9052,-1.9366,-1.9366,-1.9366,-1.9366,-1.9366,-2.0033,-2.0809,-2.1586,-2.2258,-2.3375,-2.482,-2.4036,-2.4931,-2.7051,-2.6273,-2.6391,-2.7394,-2.8067,-2.7501,-2.6273,-2.7051,-2.7276,-2.7276,-2.7276,-2.7168,-2.7159,-2.7159,-2.6608,-2.5827,-2.5827,-2.5827,-2.5827,-2.5827,-2.5827,-2.5827,-2.5827,-2.706,-2.8174,-2.7501,-2.7276,-2.6943,-2.538,-2.5041,-2.482,-2.3933,-2.3151,-2.2589,-2.2589,-2.1926,-2.1266,-2.0479,-2.0364,-2.0148,-1.9482,-1.9366,-1.9366,-1.9366,-1.9366,-1.9707,-2.0371,-2.0364,-2.0709,-2.138,-2.2153,-2.359,-2.5927,-2.6825,-2.7276,-2.7276,-2.795,-2.8291,-2.8291,-2.8291,-2.8291,-2.8291,-2.8291,-2.8291,-2.8291,-2.8291,-2.8291,-1.7582,-1.7582,-1.7582,-1.7582,-1.7582,-1.747,-1.7147,-1.7041,-1.7041,-1.7041,-1.7041,-1.7147,-1.7582,-1.7582,-1.7582,-1.7582,-1.7582,-1.7582,-1.7582,-1.7582,-1.7582,-1.7582,-1.7582,-1.7582,-1.7582,-1.7582,-1.7582,-1.7582,-1.8083,-1.8417,-1.849,-1.8985,-1.9299,-1.9366,-1.9366,-1.9366,-1.9366,-1.9366,-1.9924,-2.1031,-2.1031,-2.1813,-2.3263,-2.2145,-2.3039,-2.5489,-2.4267,-2.4939,-2.6726,-2.706,-2.6844,-2.6282,-2.6608,-2.6943,-2.7286,-2.7618,-2.7276,-2.649,-2.5818,-2.527,-2.4829,-2.4488,-2.4378,-2.4378,-2.4378,-2.4044,-2.3822,-2.3822,-2.5489,-2.7286,-2.7286,-2.7286,-2.6943,-2.5827,-2.5599,-2.5261,-2.4044,-2.2927,-2.2145,-2.2145,-2.1145,-2.0378,-1.9924,-1.9924,-1.9815,-1.9482,-1.9366,-1.9482,-1.9924,-1.9924,-2.004,-2.0371,-2.0148,-1.9815,-1.9482,-2.0694,-2.2589,-2.4931,-2.6717,-2.7726,-2.7726,-2.8067,-2.8291,-2.8291,-2.8291,-2.8291,-2.8291,-2.8291,-2.8291,-2.8291,-2.8291,-2.8291,-1.7582,-1.7582,-1.7582,-1.7582,-1.7582,-1.7259,-1.5849,-1.5524,-1.5524,-1.5524,-1.5524,-1.5956,-1.7364,-1.7582,-1.7582,-1.7582,-1.7582,-1.7582,-1.7582,-1.7582,-1.7582,-1.7582,-1.7582,-1.7582,-1.7582,-1.7582,-1.7582,-1.7582,-1.7889,-1.8196,-1.8477,-1.8784,-1.9085,-1.9359,-1.9366,-1.9366,-1.9366,-1.9366,-1.9482,-1.9591,-1.9591,-2.0371,-2.1692,-2.1699,-2.2484,-2.3933,-2.3822,-2.3151,-2.2145,-2.3599,-2.2492,-2.0155,-2.1593,-2.2927,-2.4267,-2.5709,-2.7051,-2.7736,-2.4939,-2.5717,-2.7726,-2.6381,-2.5927,-2.5927,-2.5927,-2.4931,-2.3822,-2.3822,-2.3933,-2.4156,-2.4156,-2.4156,-2.4044,-2.4044,-2.3933,-2.3933,-2.3822,-2.371,-2.3599,-2.3599,-2.3599,-2.3047,-2.1699,-2.1472,-2.1031,-1.9591,-1.9366,-1.9924,-2.1252,-2.1472,-2.1919,-2.3383,-2.2258,-2.0923,-1.9482,-2.0694,-2.1699,-2.1919,-2.4701,-2.6264,-2.6264,-2.7609,-2.8291,-2.8291,-2.8291,-2.8291,-2.8291,-2.8291,-2.8291,-2.8291,-2.8291,-2.8291,-1.7582,-1.7582,-1.7582,-1.7582,-1.7582,-1.7259,-1.5743,-1.5417,-1.5204,-1.4234,-1.477,-1.5849,-1.7364,-1.7582,-1.7582,-1.7582,-1.7582,-1.7582,-1.7582,-1.7582,-1.7582,-1.7582,-1.7582,-1.7582,-1.7582,-1.7582,-1.7582,-1.7582,-1.7869,-1.8096,-1.821,-1.8664,-1.8978,-1.9085,-1.9272,-1.9366,-1.9366,-1.9366,-1.9366,-1.9366,-1.9366,-1.97,-2.0256,-2.0256,-2.1038,-2.2476,-2.2476,-2.2589,-2.3039,-2.3599,-2.3159,-2.2161,-2.271,-2.3263,-2.3822,-2.4488,-2.4488,-2.3925,-2.2814,-2.2597,-2.2717,-2.2161,-2.1934,-2.1934,-2.1934,-2.1487,-2.1266,-2.2145,-2.182,-2.1487,-2.3271,-2.3822,-2.3599,-2.2702,-2.2476,-2.2145,-2.1266,-2.1045,-2.1045,-2.1045,-2.1045,-2.0938,-2.0371,-2.0256,-2.0033,-1.9482,-1.9366,-1.9591,-2.0148,-2.0256,-2.0816,-2.2258,-2.2702,-2.2371,-2.0923,-2.1252,-2.1259,-2.0256,-2.3933,-2.6155,-2.6155,-2.7501,-2.8291,-2.8291,-2.8291,-2.8291,-2.8291,-2.8291,-2.8291,-2.8291,-2.8291,-2.8291,-1.7582,-1.7252,-1.6929,-1.6929,-1.6605,-1.5849,-1.4341,-1.4449,-1.4449,-1.348,-1.4449,-1.5849,-1.7364,-1.7252,-1.7041,-1.7477,-1.7582,-1.7582,-1.7582,-1.7582,-1.7582,-1.7582,-1.7582,-1.7582,-1.7582,-1.7582,-1.7582,-1.7582,-1.7776,-1.7943,-1.8043,-1.8517,-1.8831,-1.8918,-1.9212,-1.9366,-1.9366,-1.9366,-1.9366,-1.9366,-1.9366,-1.9366,-1.9366,-1.9366,-1.9924,-2.0923,-2.0923,-2.1487,-2.2379,-2.2379,-2.2379,-2.2492,-2.2934,-2.3151,-2.3151,-2.3151,-2.2814,-2.2145,-2.1252,-2.0816,-2.0709,-2.0256,-2.0148,-2.0148,-2.0148,-1.9815,-1.9591,-2.0587,-2.0148,-1.9815,-2.1934,-2.2379,-2.2153,-2.1145,-2.0923,-2.0587,-1.9591,-1.9366,-1.9366,-1.9366,-1.9366,-1.9366,-1.9366,-1.9366,-1.9366,-1.9366,-1.9366,-1.9591,-2.0033,-2.0148,-2.0479,-2.1472,-2.2927,-2.3151,-2.1692,-2.2032,-2.1813,-2.0823,-2.4156,-2.5927,-2.538,-2.6825,-2.7843,-2.8291,-2.8291,-2.8291,-2.8291,-2.8291,-2.8291,-2.8291,-2.8291,-2.8291,-1.7582,-1.6499,-1.5417,-1.5417,-1.4341,-1.2945,-1.1433,-1.2186,-1.3264,-1.3264,-1.4449,-1.5849,-1.7364,-1.6393,-1.5849,-1.7364,-1.7582,-1.7582,-1.7582,-1.7582,-1.7582,-1.7582,-1.7582,-1.7582,-1.7582,-1.7582,-1.7582,-1.7582,-1.7582,-1.7716,-1.8023,-1.8323,-1.8617,-1.8905,-1.9205,-1.9366,-1.9366,-1.9366,-1.9366,-1.9366,-1.9366,-1.9366,-1.9366,-1.9366,-1.9366,-1.9366,-1.9366,-1.9366,-1.9366,-1.9366,-1.9366,-1.9597,-2.1038,-2.1586,-2.1586,-2.1586,-2.2476,-2.3383,-2.0371,-2.1266,-2.3487,-2.2032,-2.1586,-2.1586,-2.1586,-2.0587,-1.9366,-1.9366,-1.9366,-1.9366,-1.9366,-1.9366,-1.9366,-1.9366,-1.9366,-1.9366,-1.9366,-1.9366,-1.9366,-1.9366,-1.9366,-1.9366,-1.9366,-1.9366,-1.9366,-1.9366,-1.9366,-1.9924,-2.1358,-2.1578,-2.1586,-2.1586,-2.2927,-2.3263,-2.1692,-2.2927,-2.3822,-2.3822,-2.5261,-2.5371,-2.3933,-2.5261,-2.6825,-2.8291,-2.8291,-2.8291,-2.8291,-2.8291,-2.8291,-2.8291,-2.8291,-2.8291,-1.6062,-1.499,-1.3911,-1.3911,0.0,-1.2945,-1.1433,-1.1433,-1.2077,-1.3048,-1.4449,-1.5849,-1.7364,-1.7259,-1.7041,-1.7582,-1.7582,-1.7582,-1.7582,-1.7582,-1.7582,-1.7582,-1.7582,-1.7582,-1.7582,-1.7582,-1.7582,-1.7582,-1.7582,-1.7622,-1.7716,-1.8009,-1.8217,-1.8303,-1.8791,-1.9058,-1.9058,-1.9265,-1.9366,-1.9366,-1.9366,-1.9366,-1.9366,-1.9366,-1.9366,-1.9366,-1.9366,-1.9366,-1.9366,-1.9366,-1.9366,-1.9482,-1.9924,-2.0033,-2.0033,-2.0033,-2.0371,-2.0601,-1.9707,-1.9924,-2.0594,-2.0148,-2.0033,-2.0033,-2.0033,-1.97,-1.9591,-2.0702,-2.0141,-1.9591,-2.0702,-2.0148,-1.9366,-1.9366,-1.9366,-1.9366,-1.9366,-1.9366,-1.9366,-1.9366,-1.9366,-1.9366,-1.9366,-1.9366,-1.9366,-1.9366,-1.9366,-1.9591,-2.004,-2.0923,-2.1586,-2.1586,-2.2927,-2.3599,-2.3151,-2.3599,-2.3822,-2.3822,-2.4267,-2.471,-2.538,-2.6825,-2.7843,-2.8291,-2.8291,-2.8291,-2.8291,-2.8291,-2.8291,-2.8291,-2.8291,-2.8291,-1.6068,-1.477,0.0,-1.3264,-1.2403,-1.1324,-1.0457,-1.1105,-1.2403,-1.3804,-1.4341,-1.5204,-1.7252,-1.6611,-1.628,-1.7364,-1.7582,-1.7582,-1.7582,-1.7147,-1.6929,-1.7582,-1.7041,-1.6935,-1.7582,-1.7582,-1.7582,-1.7582,-1.7582,-1.7582,-1.7582,-1.7876,-1.805,-1.805,-1.8504,-1.8751,-1.8751,-1.9045,-1.9192,-1.9192,-1.9312,-1.9366,-1.9366,-1.9366,-1.9366,-1.9366,-1.9366,-1.9366,-1.9366,-1.9366,-1.9366,-1.9366,-1.9366,-1.9366,-1.9366,-1.9366,-1.9366,-1.9366,-1.9366,-1.9366,-1.9366,-1.9366,-1.9366,-1.9366,-1.9366,-1.9366,-1.9591,-2.0479,-2.0033,-1.9591,-2.0479,-2.0033,-1.9366,-1.9366,-1.9366,-1.9366,-1.9366,-1.9366,-1.9366,-1.9366,-1.9366,-1.9366,-1.9366,-1.9366,-1.9366,-1.9366,-1.9366,-1.9366,-1.9366,-2.0148,-2.0702,-2.0702,-2.2597,-2.3822,-2.3822,-2.4939,-2.5608,-2.5608,-2.5608,-2.6054,-2.6943,-2.7276,-2.7726,-2.8291,-2.8291,-2.8291,-2.8291,-2.8291,-2.8291,-2.8291,-2.8291,-2.8291,-1.6711,-1.5097,-1.3048,-1.294,-1.0891,0.0,-0.9047,-1.1214,-1.348,-1.4877,-1.4341,-1.4341,-1.6929,-1.5097,-1.4234,-1.6935,-1.7364,-1.747,-1.7582,-1.628,-1.5849,-1.7259,-1.6174,-1.5956,-1.7259,-1.7477,-1.7582,-1.7582,-1.7582,-1.7582,-1.7582,-1.7849,-1.8003,-1.8003,-1.8297,-1.845,-1.845,-1.8738,-1.8885,-1.8885,-1.9158,-1.9285,-1.9292,-1.9339,-1.9366,-1.9366,-1.9366,-1.9366,-1.9366,-1.9366,-1.9366,-1.9366,-1.9366,-1.9366,-1.9366,-1.9366,-1.9366,-1.9366,-1.9366,-1.9366,-1.9366,-1.9366,-1.9366,-1.9366,-1.9332,-1.9325,-1.9325,-1.9292,-1.9285,-1.9285,-1.9285,-1.9285,-1.9285,-1.9285,-1.9325,-1.9366,-1.9366,-1.9366,-1.9366,-1.9366,-1.9366,-1.9366,-1.9366,-1.9366,-1.9366,-1.9366,-1.9366,-1.9366,-1.9366,-1.9366,-1.9366,-1.9366,-2.182,-2.3487,-2.3822,-2.6282,-2.796,-2.8291,-2.8291,-2.8291,-2.8291,-2.7051,-2.6943,-2.8291,-2.8291,-2.8291,-2.8291,-2.8291,-2.8291,-2.8291,-2.8291,-2.8291,-1.2724,-1.2077,0.0,-1.0131,-0.9372,-0.9154,-1.0347,-1.1109,-1.1973,-1.348,-1.4341,-1.5097,-1.5743,-1.4449,-1.3911,-1.563,-1.5849,-1.628,-1.747,-1.628,-1.5524,-1.5849,-1.563,-1.5524,-1.5849,-1.6929,-1.7582,-1.7582,-1.7582,-1.7582,-1.7582,-1.7649,-1.7682,-1.7682,-1.7983,-1.8143,-1.8143,-1.8437,-1.8584,-1.8584,-1.8651,-1.8677,-1.8698,-1.9158,-1.9366,-1.9366,-1.9366,-1.9366,-1.9366,-1.9366,-1.9366,-1.9366,-1.9366,-1.9366,-1.9366,-1.9366,-1.9366,-1.9366,-1.9366,-1.9366,-1.9366,-1.9366,-1.9366,-1.9325,-1.9092,-1.9018,-1.8971,-1.8744,-1.8677,-1.8677,-1.8677,-1.8677,-1.8677,-1.8677,-1.9032,-1.9366,-1.9366,-1.9366,-1.9366,-1.9366,-1.9366,-1.9366,-1.9366,-1.9366,-1.9366,-1.9366,-1.9366,-1.9366,-1.9366,-1.9366,-1.9366,-1.9366,-1.9924,-2.1266,-2.3599,-2.4378,-2.5827,-2.8174,-2.8291,-2.8291,-2.8291,-2.796,-2.796,-2.8291,-2.8291,-2.8291,-2.8291,-2.8291,-2.8291,-2.8291,-2.8291,-2.8291,-1.2037,-1.1434,0.0,-0.9036,0.0,-0.8932,-0.9674,-1.0412,-1.1176,-1.2019,-1.2759,-1.3804,-1.5204,-1.3696,-1.2729,-1.4126,-1.4341,-1.4883,-1.6387,-1.531,-1.4663,-1.531,-1.477,-1.4663,-1.531,-1.6068,-1.6823,-1.7582,-1.7582,-1.7582,-1.7582,-1.7582,-1.7582,-1.7582,-1.7742,-1.7822,-1.7822,-1.813,-1.8277,-1.8277,-1.8424,-1.849,-1.8504,-1.8951,-1.9078,-1.8958,-1.9092,-1.9078,-1.8945,-1.8945,-1.8945,-1.8945,-1.8945,-1.8945,-1.8945,-1.8945,-1.8945,-1.8945,-1.8945,-1.8945,-1.8945,-1.8945,-1.8945,-1.8918,-1.8764,-1.8718,-1.8684,-1.8537,-1.849,-1.849,-1.849,-1.849,-1.849,-1.849,-1.8724,-1.8945,-1.8945,-1.8945,-1.8985,-1.9125,-1.9158,-1.9199,-1.9339,-1.9366,-1.9366,-1.9366,-1.9366,-1.9366,-1.9366,-1.9366,-1.9366,-1.9366,-2.0033,-2.1373,-2.3599,-2.4488,-2.5827,-2.8184,-2.8291,-2.8291,-2.8291,-2.8291,-2.8291,-2.8291,-2.8291,-2.8291,-2.8291,-2.8291,-2.8291,-2.8291,-2.8291,-2.8291,-1.1934,-1.1281,-1.0028,-0.8793,-0.8482,0.0,-0.8482,-0.941,-1.0377,-1.0742,-1.0923,-1.1819,-1.4223,-1.2507,-1.1214,-1.2729,-1.294,-1.348,-1.5204,-1.4234,-1.3804,-1.5204,-1.4126,-1.3804,-1.4877,-1.531,-1.5956,-1.7147,-1.7477,-1.7582,-1.7582,-1.7582,-1.7582,-1.7582,-1.7582,-1.7582,-1.7582,-1.7842,-1.7969,-1.7969,-1.8217,-1.8337,-1.8343,-1.8637,-1.8671,-1.8504,-1.8744,-1.8718,-1.849,-1.849,-1.849,-1.849,-1.849,-1.849,-1.849,-1.849,-1.849,-1.849,-1.849,-1.849,-1.849,-1.849,-1.849,-1.8477,-1.8424,-1.841,-1.8404,-1.835,-1.8337,-1.8337,-1.8337,-1.8337,-1.8337,-1.8337,-1.8337,-1.8364,-1.847,-1.849,-1.8564,-1.8804,-1.8844,-1.8925,-1.9172,-1.9219,-1.9232,-1.9285,-1.9292,-1.9305,-1.9359,-1.9366,-1.9366,-1.9366,-2.0479,-2.1813,-2.3263,-2.482,-2.6381,-2.7843,-2.8174,-2.8291,-2.8291,-2.8291,-2.8291,-2.8291,-2.8291,-2.8291,-2.8291,-2.8291,-2.8291,-2.8291,-2.8291,-2.8291,-0.938,0.0,-0.8793,0.0,-0.8482,-0.8482,0.0,0.0,-0.9209,-1.0468,-1.0835,-1.1125,-1.1615,-1.0351,-0.9699,-1.1105,-1.1433,-1.2295,-1.499,-1.4234,-1.3804,-1.5204,-1.4126,-1.3372,-1.3588,-1.4663,-1.5524,-1.563,-1.6929,-1.7582,-1.7582,-1.7582,-1.7582,-1.7582,-1.7582,-1.7582,-1.7582,-1.7622,-1.7642,-1.7642,-1.7682,-1.7702,-1.7716,-1.8023,-1.8283,-1.8497,-1.8531,-1.8524,-1.849,-1.849,-1.849,-1.849,-1.849,-1.849,-1.849,-1.849,-1.849,-1.849,-1.849,-1.849,-1.849,-1.849,-1.849,-1.8437,-1.8163,-1.809,-1.805,-1.7782,-1.7702,-1.7702,-1.7702,-1.7702,-1.7702,-1.7702,-1.7702,-1.7849,-1.8377,-1.849,-1.8504,-1.8544,-1.8551,-1.8557,-1.8597,-1.8611,-1.8698,-1.8945,-1.8985,-1.9078,-1.9332,-1.9366,-1.9366,-1.9366,-1.9591,-2.0256,-2.1813,-2.3263,-2.471,-2.6264,-2.7609,-2.8291,-2.8291,-2.8291,-2.8291,-2.8291,-2.8291,-2.8291,-2.8291,-2.8291,-2.8291,-2.8291,-2.8291,-2.8291,-0.8501,-0.8235,-0.8235,0.0,-0.8235,-0.8235,-0.8235,-0.8235,-0.8459,-0.9157,-0.9442,-0.9778,-1.0791,-0.9851,-0.9154,-0.9805,-0.9915,-1.0562,-1.2724,-1.2507,-1.262,-1.4019,-1.3696,-1.3588,-1.4449,-1.4341,-1.4883,-1.6499,-1.6499,-1.6717,-1.7582,-1.7582,-1.7582,-1.7582,-1.7582,-1.7582,-1.7582,-1.7582,-1.7582,-1.7582,-1.7582,-1.7582,-1.7589,-1.7722,-1.7856,-1.7989,-1.817,-1.8143,-1.7983,-1.7983,-1.7983,-1.7983,-1.7983,-1.7983,-1.7983,-1.7983,-1.7983,-1.7983,-1.7983,-1.7983,-1.7983,-1.7983,-1.7983,-1.7956,-1.7816,-1.7782,-1.7756,-1.7622,-1.7582,-1.7582,-1.7582,-1.7582,-1.7582,-1.7582,-1.7582,-1.7655,-1.7923,-1.7983,-1.8029,-1.821,-1.8377,-1.849,-1.849,-1.849,-1.8537,-1.8657,-1.8684,-1.8731,-1.8858,-1.9786,-2.0111,-1.9226,-2.0044,-2.0923,-2.1586,-2.2927,-2.4488,-2.6045,-2.7501,-2.8291,-2.8291,-2.8291,-2.8291,-2.8291,-2.8291,-2.8291,-2.8291,-2.8291,-2.8291,-2.8291,-2.8291,-2.8291,0.0,0.0,-0.8038,-0.8038,-0.8038,-0.8038,0.0,0.0,-0.8072,-0.8187,-0.8245,-0.8745,-1.0011,-0.9496,-0.8879,-0.8879,-0.8913,-0.9372,-1.0891,-1.1105,-1.1647,-1.3156,-1.3264,-1.3696,-1.477,-1.4234,-1.4776,-1.6929,-1.6393,-1.6393,-1.7582,-1.7582,-1.7582,-1.7582,-1.7582,-1.7582,-1.7582,-1.7582,-1.7582,-1.7582,-1.7582,-1.7582,-1.7582,-1.7582,-1.7582,-1.7595,-1.7829,-1.7796,-1.7582,-1.7582,-1.7582,-1.7582,-1.7582,-1.7582,-1.7582,-1.7582,-1.7582,-1.7582,-1.7582,-1.7582,-1.7582,-1.7582,-1.7582,-1.7582,-1.7582,-1.7582,-1.7582,-1.7582,-1.7582,-1.7582,-1.7582,-1.7582,-1.7582,-1.7582,-1.7582,-1.7582,-1.7582,-1.7582,-1.7649,-1.7883,-1.811,-1.8257,-1.8257,-1.8257,-1.8283,-1.8364,-1.8377,-1.8404,-1.8477,-1.9646,-2.0226,-1.9353,-2.0605,-2.1684,-2.2022,-2.3438,-2.4939,-2.6036,-2.7501,-2.8291,-2.8291,-2.8291,-2.8291,-2.8291,-2.8291,-2.8291,-2.8291,-2.8291,-2.8291,-2.8291,-2.8291,-2.8291,0.0,-0.8038,0.0,-0.8038,-0.8038,-0.8038,0.0,-0.8038,-0.8041,-0.8052,-0.8167,-0.8378,-0.8392,-0.8632,-0.8723,-0.8723,-0.8845,-0.9372,-1.0891,-1.1105,-1.1647,-1.3156,-1.3264,-1.3372,-1.3372,-1.4556,-1.531,-1.5524,-1.6711,-1.7477,-1.7582,-1.7582,-1.7582,-1.7582,-1.7582,-1.7582,-1.7582,-1.7582,-1.7582,-1.7582,-1.7582,-1.7582,-1.7582,-1.7582,-1.7582,-1.7582,-1.7602,-1.7595,-1.7582,-1.7582,-1.7582,-1.7582,-1.7582,-1.7582,-1.7582,-1.7582,-1.7582,-1.7582,-1.7582,-1.7582,-1.7582,-1.7582,-1.7582,-1.7582,-1.7582,-1.7582,-1.7582,-1.7582,-1.7582,-1.7582,-1.7582,-1.7582,-1.7582,-1.7582,-1.7582,-1.7582,-1.7582,-1.7582,-1.7589,-1.7602,-1.7615,-1.7629,-1.7629,-1.7629,-1.7729,-1.8029,-1.807,-1.817,-1.8457,-1.8608,-1.9154,-2.0317,-2.0928,-2.1788,-2.2999,-2.4841,-2.6036,-2.6045,-2.7501,-2.8291,-2.8291,-2.8291,-2.8291,-2.8291,-2.8291,-2.8291,-2.8291,-2.8291,-2.8291,-2.8291,-2.8291,-2.8291,0.0,0.0,0.0,-0.8038,-0.8038,-0.8038,-0.8038,-0.8038,-0.8038,-0.8038,-0.8082,-0.8123,-0.8123,-0.8364,-0.8598,-0.8696,-0.8757,-0.8934,-0.9574,-0.9699,-1.0241,-1.1755,-1.1864,-1.2615,-1.4449,-1.4341,-1.477,-1.6711,-1.6387,-1.6605,-1.7582,-1.7582,-1.7582,-1.7582,-1.7582,-1.7582,-1.7582,-1.7582,-1.7582,-1.7582,-1.7582,-1.7582,-1.7582,-1.7582,-1.7582,-1.7582,-1.7582,-1.7582,-1.7582,-1.7582,-1.7582,-1.7582,-1.7582,-1.7582,-1.7582,-1.7582,-1.7582,-1.7582,-1.7582,-1.7582,-1.7582,-1.7582,-1.7582,-1.7582,-1.7582,-1.7582,-1.7582,-1.7582,-1.7582,-1.7582,-1.7582,-1.7582,-1.7582,-1.7582,-1.7582,-1.7582,-1.7582,-1.7582,-1.7582,-1.7582,-1.7582,-1.7582,-1.7582,-1.7582,-1.7622,-1.7736,-1.7749,-1.7789,-1.7896,-1.8919,-1.9779,-2.0193,-2.1441,-2.2497,-2.316,-2.4715,-2.5775,-2.6027,-2.7501,-2.8291,-2.8291,-2.8291,-2.8291,-2.8291,-2.8291,-2.8291,-2.8291,-2.8291,-2.8291,-2.8291,-2.8291,-2.8291,-0.8038,-0.8038,-0.8038,-0.8038,-0.8038,-0.8038,-0.8038,-0.8038,-0.8038,-0.8038,-0.8038,-0.8038,-0.8038,-0.8201,-0.8384,-0.8537,-0.8645,-0.8747,-0.8849,-0.8906,-0.9265,-1.0241,-1.0781,-1.186,-1.3798,-1.4019,-1.4776,-1.6717,-1.6387,-1.6605,-1.7582,-1.7582,-1.7582,-1.7582,-1.7582,-1.7582,-1.7582,-1.7582,-1.7582,-1.7582,-1.7582,-1.7582,-1.7582,-1.7582,-1.7582,-1.7582,-1.7582,-1.7582,-1.7582,-1.7582,-1.7582,-1.7582,-1.7582,-1.7582,-1.7582,-1.7582,-1.7582,-1.7582,-1.7582,-1.7582,-1.7582,-1.7582,-1.7582,-1.7582,-1.7582,-1.7582,-1.7582,-1.7582,-1.7582,-1.7582,-1.7582,-1.7582,-1.7582,-1.7582,-1.7582,-1.7582,-1.7582,-1.7582,-1.7582,-1.7582,-1.7582,-1.7582,-1.7582,-1.7582,-1.7582,-1.7582,-1.7582,-1.7582,-1.7582,-1.8689,-1.9542,-1.9851,-2.1513,-2.2878,-2.3547,-2.4968,-2.6185,-2.6602,-2.7525,-2.8144,-2.8281,-2.8291,-2.8291,-2.8291,-2.8291,-2.8291,-2.8291,-2.8291,-2.8291,-2.8291,-2.8291,-2.8291,0.0,0.0,0.0,-0.8041,-0.8041,-0.8041,-0.8041,-0.8041,-0.8041,-0.8041,-0.8041,-0.8038,-0.8038,-0.8038,-0.8089,-0.8238,-0.8509,-0.8699,-0.8703,-0.8835,-0.893,-0.893,-1.0127,-1.0996,-1.1105,-1.3583,-1.531,-1.531,-1.6717,-1.7582,-1.7582,-1.7582,-1.7582,-1.7582,-1.7582,-1.7582,-1.7582,-1.7582,-1.7582,-1.7582,-1.7582,-1.7582,-1.7582,-1.7582,-1.7582,-1.7582,-1.7582,-1.7582,-1.7582,-1.7582,-1.7582,-1.7582,-1.7582,-1.7582,-1.7582,-1.7582,-1.7582,-1.7582,-1.7582,-1.7582,-1.7582,-1.7582,-1.7582,-1.7582,-1.7582,-1.7582,-1.7582,-1.7582,-1.7582,-1.7582,-1.7582,-1.7582,-1.7582,-1.7582,-1.7582,-1.7582,-1.7582,-1.7582,-1.7582,-1.7582,-1.7582,-1.7582,-1.7582,-1.7582,-1.7582,-1.7582,-1.7582,-1.7582,-1.7582,-1.7582,-1.8094,-1.942,-2.1155,-2.2817,-2.4158,-2.5897,-2.7178,-2.7617,-2.7656,-2.7851,-2.8262,-2.8281,-2.8291,-2.8291,-2.8291,-2.8291,-2.8291,-2.8291,-2.8291,-2.8291,-2.8291,-2.8291,-0.7965,0.0,0.0,0.0,0.0,0.0,-0.7975,-0.7969,-0.7962,-0.7962,-0.7962,-0.7959,-0.8041,-0.8038,-0.8055,-0.8096,-0.8265,-0.8428,-0.853,-0.8676,-0.8774,-0.8774,-0.9194,-0.9915,-1.1,-1.1864,-1.2724,-1.3804,-1.5204,-1.6062,-1.6062,-1.7041,-1.7582,-1.7582,-1.7582,-1.7582,-1.7582,-1.7582,-1.7582,-1.7582,-1.7582,-1.7582,-1.7582,-1.7582,-1.7582,-1.7582,-1.7582,-1.7582,-1.7582,-1.7582,-1.7582,-1.7582,-1.7582,-1.7582,-1.7582,-1.7582,-1.7582,-1.7582,-1.7582,-1.7582,-1.7582,-1.7582,-1.7582,-1.7582,-1.7582,-1.7582,-1.7582,-1.7582,-1.7582,-1.7582,-1.7582,-1.7582,-1.7582,-1.7582,-1.7582,-1.7582,-1.7582,-1.7582,-1.7582,-1.7582,-1.7582,-1.7582,-1.7582,-1.7582,-1.7582,-1.7582,-1.7582,-1.7582,-1.7582,-1.7582,-1.8094,-1.942,-2.0933,-2.2528,-2.414,-2.5642,-2.6748,-2.7168,-2.749,-2.7715,-2.7832,-2.8135,-2.8291,-2.8291,-2.8291,-2.8291,-2.8291,-2.8291,-2.8291,-2.8291,-2.8291,-2.8291,-0.6342,-0.7163,-0.7782,-0.6648,0.0,0.0,-0.7775,-0.7463,-0.7147,-0.7859,-0.7959,-0.7955,-0.8041,-0.8038,-0.8038,-0.8038,-0.8116,-0.8225,-0.8374,-0.8523,-0.8638,-0.8703,-0.8791,-0.9406,-1.0992,-1.1105,-1.1755,-1.3156,-1.4556,-1.5636,-1.628,-1.7147,-1.7582,-1.7582,-1.7582,-1.7582,-1.7582,-1.7582,-1.7582,-1.7582,-1.7582,-1.7582,-1.7582,-1.7582,-1.7582,-1.7582,-1.7582,-1.7582,-1.7582,-1.7582,-1.7582,-1.7582,-1.7582,-1.7582,-1.7582,-1.7582,-1.7582,-1.7582,-1.7582,-1.7582,-1.7582,-1.7582,-1.7582,-1.7582,-1.7582,-1.7582,-1.7582,-1.7582,-1.7582,-1.7582,-1.7582,-1.7582,-1.7582,-1.7582,-1.7582,-1.7582,-1.7582,-1.7582,-1.7582,-1.7582,-1.7582,-1.7582,-1.7582,-1.7582,-1.7582,-1.7582,-1.7582,-1.7582,-1.7582,-1.7582,-1.7891,-1.8708,-2.0033,-2.1428,-2.3071,-2.4445,-2.5672,-2.6728,-2.7158,-2.748,-2.7656,-2.8066,-2.8291,-2.8291,-2.8291,-2.8291,-2.8291,-2.8291,-2.8291,-2.8291,-2.8291,-2.8291,-0.3515,-0.5334,-0.6662,-0.4929,-0.4017,0.0,-0.6548,-0.6342,-0.6132,-0.7646,-0.8048,-0.8048,-0.8045,-0.8041,-0.8041,-0.8038,-0.8038,-0.8089,-0.8225,-0.8367,-0.8509,-0.8645,-0.8676,-0.9277,-1.095,-1.1076,-1.1733,-1.3156,-1.4449,-1.5849,-1.747,-1.747,-1.747,-1.7582,-1.7582,-1.7582,-1.7582,-1.7582,-1.7582,-1.7582,-1.7582,-1.7582,-1.7582,-1.7582,-1.7582,-1.7582,-1.7582,-1.7582,-1.7582,-1.7582,-1.7582,-1.7582,-1.7582,-1.7582,-1.7582,-1.7582,-1.7582,-1.7582,-1.7582,-1.7582,-1.7582,-1.7582,-1.7582,-1.7582,-1.7582,-1.7582,-1.7582,-1.7582,-1.7582,-1.7582,-1.7582,-1.7582,-1.7582,-1.7582,-1.7582,-1.7582,-1.7582,-1.7582,-1.7582,-1.7582,-1.7582,-1.7582,-1.7582,-1.7582,-1.7582,-1.7582,-1.7582,-1.7582,-1.7582,-1.7681,-1.7786,-1.7786,-1.9013,-2.0333,-2.155,-2.2767,-2.4253,-2.5971,-2.6497,-2.7026,-2.7578,-2.7998,-2.8242,-2.8291,-2.8291,-2.8291,-2.8291,-2.8291,-2.8291,-2.8291,-2.8291,-2.8291,-0.0804,-0.1208,-0.2522,-0.6274,-0.3929,0.0,-0.1411,-0.4643,-0.7601,-0.7905,-0.8009,-0.7999,-0.7972,-0.7965,-0.7962,-0.8041,-0.8038,-0.8052,-0.8079,-0.8214,-0.8323,-0.8353,-0.8459,-0.9213,-1.0753,-1.0984,-1.1581,-1.3146,-1.3588,-1.4883,-1.7477,-1.6499,-1.6387,-1.7582,-1.7582,-1.7582,-1.7582,-1.7582,-1.7582,-1.7582,-1.7582,-1.7582,-1.7582,-1.7582,-1.7582,-1.7582,-1.7582,-1.7582,-1.7582,-1.7582,-1.7582,-1.7582,-1.7582,-1.7582,-1.7582,-1.7582,-1.7582,-1.7582,-1.7582,-1.7582,-1.7582,-1.7582,-1.7582,-1.7582,-1.7582,-1.7582,-1.7582,-1.7582,-1.7582,-1.7582,-1.7582,-1.7582,-1.7582,-1.7582,-1.7582,-1.7582,-1.7582,-1.7582,-1.7582,-1.7582,-1.7582,-1.7582,-1.7582,-1.7582,-1.7582,-1.7582,-1.7582,-1.7582,-1.7582,-1.8506,-1.922,-1.922,-2.0436,-2.1448,-2.1651,-2.1954,-2.2702,-2.4108,-2.4583,-2.5516,-2.7119,-2.7559,-2.7949,-2.8281,-2.8291,-2.8291,-2.8291,-2.8291,-2.8291,-2.8291,-2.8291,-2.8291,-0.0,-0.0,-0.0606,-0.3334,-0.2017,0.0,0.0,-0.2116,-0.4437,-0.5751,-0.6055,-0.6152,-0.6642,-0.7456,-0.7965,-0.8041,-0.8038,-0.8038,-0.8038,-0.8106,-0.8184,-0.8262,-0.8333,-0.9049,-1.0666,-1.0682,-1.1599,-1.3933,-1.4276,-1.531,-1.747,-1.6929,-1.6823,-1.7582,-1.7582,-1.7582,-1.7582,-1.7582,-1.7582,-1.7582,-1.7582,-1.7582,-1.7582,-1.7582,-1.7582,-1.7582,-1.7582,-1.7582,-1.7582,-1.7582,-1.7582,-1.7582,-1.7582,-1.7582,-1.7582,-1.7582,-1.7582,-1.7582,-1.7582,-1.7582,-1.7582,-1.7582,-1.7582,-1.7582,-1.7582,-1.7582,-1.7582,-1.7582,-1.7582,-1.7582,-1.7582,-1.7582,-1.7582,-1.7582,-1.7582,-1.7582,-1.7582,-1.7582,-1.7582,-1.7582,-1.7582,-1.7582,-1.7582,-1.7582,-1.7582,-1.7582,-1.7582,-1.7582,-1.7582,-1.8199,-1.8812,-1.9524,-2.0238,-2.1245,-2.2567,-2.2667,-2.3276,-2.4609,-2.5102,-2.5733,-2.6689,-2.7324,-2.7861,-2.8281,-2.8291,-2.8291,-2.8291,-2.8291,-2.8291,-2.8291,-2.8291,-2.8291,-0.0,-0.0,-0.0,-0.0,-0.0,-0.0,0.0,0.0,0.0,-0.2814,-0.3215,-0.3615,-0.4918,-0.6745,-0.7969,-0.8041,-0.8038,-0.8038,-0.8038,-0.8038,-0.8085,-0.8211,-0.8225,-0.8885,-1.0471,-1.0832,-1.2053,-1.5051,-1.5048,-1.5611,-1.739,-1.7279,-1.72,-1.7582,-1.7582,-1.7582,-1.7582,-1.7582,-1.7582,-1.7582,-1.7582,-1.7582,-1.7582,-1.7582,-1.7582,-1.7582,-1.7582,-1.7582,-1.7582,-1.7582,-1.7582,-1.7582,-1.7582,-1.7582,-1.7582,-1.7582,-1.7582,-1.7582,-1.7582,-1.7582,-1.7582,-1.7582,-1.7582,-1.7582,-1.7582,-1.7582,-1.7582,-1.7582,-1.7582,-1.7582,-1.7582,-1.7582,-1.7582,-1.7582,-1.7582,-1.7582,-1.7582,-1.7582,-1.7582,-1.7582,-1.7582,-1.7582,-1.7582,-1.7582,-1.7582,-1.7582,-1.7582,-1.7582,-1.7582,-1.7786,-1.8401,-1.9524,-1.9627,-2.0641,-2.3076,-2.3076,-2.3592,-2.5226,-2.565,-2.609,-2.6387,-2.7217,-2.7861,-2.8281,-2.8291,-2.8291,-2.8291,-2.8291,-2.8291,-2.8291,-2.8291,-2.8291,-0.0,-0.0,-0.0,-0.0,-0.0,-0.0,-0.0,0.0,-0.0101,-0.0404,0.0,-0.1209,-0.3715,0.0,0.0,-0.8045,-0.8038,-0.8038,-0.8038,-0.8038,-0.8045,-0.8065,-0.8065,-0.8618,-1.0285,-1.1676,-1.3642,-1.6338,-1.4304,-1.4207,-1.7078,-1.6031,-1.6033,-1.7575,-1.7582,-1.7582,-1.7582,-1.7582,-1.7582,-1.7582,-1.7582,-1.7582,-1.7582,-1.7582,-1.7582,-1.7582,-1.7582,-1.7582,-1.7582,-1.7582,-1.7582,-1.7582,-1.7582,-1.7582,-1.7582,-1.7582,-1.7582,-1.7582,-1.7582,-1.7582,-1.7582,-1.7582,-1.7582,-1.7582,-1.7582,-1.7582,-1.7582,-1.7582,-1.7582,-1.7582,-1.7582,-1.7582,-1.7582,-1.7582,-1.7582,-1.7582,-1.7582,-1.7582,-1.7582,-1.7582,-1.7582,-1.7582,-1.7582,-1.7582,-1.7582,-1.7582,-1.7582,-1.7582,-1.7582,-1.8603,-1.9428,-1.9627,-1.9627,-2.0238,-2.1752,-2.0743,-2.1151,-2.3791,-2.3935,-2.4743,-2.6367,-2.7217,-2.7861,-2.8281,-2.8291,-2.8291,-2.8291,-2.8291,-2.8291,-2.8291,-2.8291,-2.8291,-0.0,-0.0,-0.0,-0.0,-0.0,-0.0,-0.0,-0.0,-0.0,-0.0,0.0,0.0,0.0,0.0,0.0,0.0,-0.8048,-0.8038,-0.8038,-0.8038,-0.8038,-0.8038,-0.8038,-0.8556,-1.0008,-1.0883,-1.2511,-1.5128,-1.4453,-1.4796,-1.6779,-1.6367,-1.6394,-1.7321,-1.7328,-1.7415,-1.7582,-1.7582,-1.7582,-1.7582,-1.7582,-1.7582,-1.7582,-1.7582,-1.7582,-1.7582,-1.7582,-1.7582,-1.7582,-1.7582,-1.7582,-1.7582,-1.7582,-1.7582,-1.7582,-1.7582,-1.7582,-1.7582,-1.7582,-1.7582,-1.7582,-1.7582,-1.7582,-1.7582,-1.7582,-1.7582,-1.7582,-1.7582,-1.7582,-1.7582,-1.7582,-1.7582,-1.7582,-1.7582,-1.7582,-1.7582,-1.7582,-1.7582,-1.7582,-1.7582,-1.7582,-1.7582,-1.7582,-1.7582,-1.7582,-1.7582,-1.7582,-1.7582,-1.7582,-1.8094,-1.8708,-1.9531,-1.9627,-2.0444,-2.2667,-2.2366,-2.2776,-2.4716,-2.4815,-2.5309,-2.6367,-2.6973,-2.749,-2.792,-2.8164,-2.8291,-2.8291,-2.8291,-2.8291,-2.8291,-2.8291,-2.8291,-0.0,-0.0,-0.0,-0.0,-0.0,-0.0,-0.0,-0.0,-0.0,-0.0,-0.0,0.0,0.0,0.0,-0.625,-0.7769,0.0,-0.8045,-0.8041,-0.8038,-0.8038,-0.8038,-0.8038,-0.8531,-0.9899,-0.9821,-1.0789,-1.3462,-1.3828,-1.4572,-1.5969,-1.6381,-1.672,-1.7021,-1.7027,-1.7128,-1.7341,-1.7422,-1.7462,-1.7462,-1.7542,-1.7582,-1.7582,-1.7582,-1.7582,-1.7582,-1.7582,-1.7582,-1.7582,-1.7582,-1.7582,-1.7582,-1.7582,-1.7582,-1.7582,-1.7582,-1.7582,-1.7582,-1.7582,-1.7582,-1.7582,-1.7582,-1.7582,-1.7582,-1.7582,-1.7582,-1.7582,-1.7582,-1.7582,-1.7582,-1.7582,-1.7582,-1.7582,-1.7582,-1.7582,-1.7582,-1.7582,-1.7582,-1.7582,-1.7582,-1.7582,-1.7582,-1.7582,-1.7582,-1.7582,-1.7582,-1.7582,-1.7582,-1.7582,-1.7582,-1.7989,-1.8909,-1.9013,-2.0033,-2.2366,-2.2976,-2.389,-2.5635,-2.5742,-2.5937,-2.6367,-2.6797,-2.7217,-2.7656,-2.8076,-2.8291,-2.8291,-2.8291,-2.8291,-2.8291,-2.8291,-2.8291,-0.0,-0.0,-0.0,-0.0,-0.0,-0.0,-0.0,-0.0,-0.0,-0.0,-0.0,-0.0,-0.0,-0.0101,-0.1909,-0.7156,-0.7972,0.0,0.0,-0.8038,-0.8038,-0.8038,-0.8038,-0.8531,-0.9899,-0.8829,-0.9122,-1.176,-1.1965,-1.2644,-1.4254,-1.5575,-1.642,-1.6707,-1.672,-1.6727,-1.6734,-1.7021,-1.7161,-1.7271,-1.7448,-1.7582,-1.7582,-1.7582,-1.7582,-1.7582,-1.7582,-1.7582,-1.7582,-1.7582,-1.7582,-1.7582,-1.7582,-1.7582,-1.7582,-1.7582,-1.7582,-1.7582,-1.7582,-1.7582,-1.7582,-1.7582,-1.7582,-1.7582,-1.7582,-1.7582,-1.7582,-1.7582,-1.7582,-1.7582,-1.7582,-1.7582,-1.7582,-1.7582,-1.7582,-1.7582,-1.7582,-1.7582,-1.7582,-1.7582,-1.7582,-1.7582,-1.7582,-1.7582,-1.7582,-1.7582,-1.7582,-1.7582,-1.7582,-1.7582,-1.7582,-1.7687,-1.7687,-1.8199,-1.9627,-2.0939,-2.2868,-2.5538,-2.5742,-2.5937,-2.6367,-2.6797,-2.7217,-2.7656,-2.8076,-2.8291,-2.8291,-2.8291,-2.8291,-2.8291,-2.8291,-2.8291,-0.0,-0.0,-0.0,-0.0,-0.0,-0.0,-0.0,-0.0,-0.0,-0.0,-0.0,-0.0,-0.0,-0.0,-0.171,-0.7083,-0.7989,-0.7969,0.0,-0.8048,-0.8038,-0.8038,-0.8038,-0.8137,-0.8627,-0.8233,-0.8726,-1.0485,-1.1463,-1.2559,-1.3996,-1.5287,-1.6112,-1.6413,-1.642,-1.6513,-1.67,-1.6807,-1.6854,-1.6854,-1.6954,-1.7001,-1.7007,-1.7208,-1.7295,-1.7308,-1.7502,-1.7582,-1.7582,-1.7582,-1.7582,-1.7582,-1.7582,-1.7582,-1.7582,-1.7582,-1.7582,-1.7582,-1.7582,-1.7582,-1.7582,-1.7582,-1.7582,-1.7582,-1.7582,-1.7582,-1.7582,-1.7582,-1.7582,-1.7582,-1.7582,-1.7582,-1.7582,-1.7582,-1.7582,-1.7582,-1.7582,-1.7582,-1.7582,-1.7582,-1.7582,-1.7582,-1.7582,-1.7582,-1.7582,-1.7582,-1.7582,-1.7582,-1.7582,-1.7582,-1.7891,-1.8812,-1.8909,-1.9524,-2.0837,-2.2257,-2.3384,-2.4304,-2.5226,-2.5801,-2.5947,-2.6377,-2.6797,-2.7226,-2.7666,-2.8018,-2.8291,-2.8291,-2.8291,-2.8291,-2.8291,-2.8291,-0.0,-0.0,-0.0,-0.0,-0.0,-0.0,-0.0,-0.0,-0.0,-0.0,-0.0,-0.0,-0.0,-0.0,-0.1411,-0.5866,-0.6561,-0.6948,0.0,-0.8048,-0.8038,-0.8038,-0.8038,-0.8237,-0.8627,-0.8233,-0.8528,-0.9903,-1.0779,-1.1551,-1.2425,-1.4172,-1.523,-1.5409,-1.5919,-1.6206,-1.6393,-1.65,-1.6553,-1.6553,-1.6653,-1.6707,-1.6714,-1.6907,-1.6987,-1.7001,-1.7188,-1.7275,-1.7275,-1.7275,-1.7275,-1.7281,-1.7388,-1.7428,-1.7442,-1.7542,-1.7582,-1.7582,-1.7582,-1.7582,-1.7582,-1.7582,-1.7582,-1.7582,-1.7582,-1.7582,-1.7582,-1.7582,-1.7582,-1.7582,-1.7582,-1.7582,-1.7582,-1.7582,-1.7582,-1.7582,-1.7582,-1.7582,-1.7582,-1.7582,-1.7582,-1.7582,-1.7582,-1.7582,-1.7582,-1.7582,-1.7582,-1.7582,-1.7582,-1.7582,-1.7891,-1.8812,-1.9324,-2.0333,-2.2265,-2.3176,-2.389,-2.4402,-2.5226,-2.5742,-2.5742,-2.6162,-2.6592,-2.7012,-2.7441,-2.7871,-2.8291,-2.8291,-2.8291,-2.8291,-2.8291,-2.8291]},{"header":{"parameterUnit":"m.s-1","parameterCategory":1,"la1":30.6,"la2":29.2853,"lo1":-89.7004,"lo2":-87.6739,"dy":0.0162,"dx":0.0183,"nx":112,"ny":82,"refTime":"2023-10-09T00:00:00:Z","depth":0,"parameterNumber":3,"parameterNumberName":"V-component_of_WINDS"},"data":[0.0,0.0,0.0,0.0,0.0,0.0,0.0,0.0,0.0,0.0,0.0,0.0,0.0,0.0,0.0,0.0,0.0,0.0,0.0,0.0,0.0,0.0,0.0,0.0,0.0,0.0,0.0,0.0,0.0,0.0,0.0,0.0,0.0,0.0,0.0,0.0,0.0,0.0,0.0,0.0,0.0,0.0,0.0,0.0,0.0,0.0,0.0,0.0,0.0,0.0,0.0,0.0,0.0,0.0,0.0,0.0,0.0,0.0,0.0,0.0,0.0,0.0,0.0,0.0,0.0,0.0,0.0,0.0,0.0,0.0,0.0,0.0,0.0,0.0,0.0,0.0,0.0,0.0,0.0,0.0,0.0,0.0,0.0,0.0,0.0,0.0,0.0,0.0,0.0,0.0,-4.0417,-4.0856,-4.0417,-4.0121,-4.0204,-4.0171,-4.007,-4.007,0.0,0.0,0.0,0.0,0.0,0.0,0.0,0.0,0.0,0.0,0.0,0.0,0.0,0.0,0.0,0.0,0.0,0.0,0.0,0.0,0.0,0.0,0.0,0.0,0.0,0.0,0.0,0.0,0.0,0.0,0.0,0.0,0.0,0.0,0.0,0.0,0.0,0.0,0.0,0.0,0.0,0.0,0.0,0.0,0.0,0.0,0.0,0.0,0.0,0.0,0.0,0.0,0.0,0.0,0.0,0.0,0.0,0.0,0.0,0.0,0.0,0.0,0.0,0.0,0.0,0.0,0.0,0.0,0.0,0.0,0.0,0.0,0.0,0.0,0.0,0.0,0.0,0.0,0.0,0.0,0.0,0.0,0.0,0.0,0.0,0.0,0.0,0.0,0.0,0.0,0.0,0.0,0.0,0.0,0.0,0.0,0.0,0.0,0.0,0.0,0.0,0.0,0.0,0.0,-4.0827,-4.0903,-4.0417,-4.0286,-4.0733,-4.0368,-4.007,-4.007,0.0,0.0,0.0,0.0,0.0,0.0,0.0,0.0,0.0,0.0,0.0,0.0,0.0,0.0,0.0,0.0,0.0,0.0,0.0,0.0,0.0,0.0,0.0,0.0,0.0,0.0,0.0,0.0,0.0,0.0,0.0,0.0,0.0,0.0,0.0,0.0,0.0,0.0,0.0,0.0,0.0,0.0,0.0,0.0,0.0,0.0,0.0,0.0,0.0,0.0,0.0,0.0,0.0,0.0,0.0,0.0,0.0,0.0,0.0,0.0,0.0,0.0,0.0,0.0,0.0,0.0,0.0,0.0,0.0,0.0,0.0,0.0,0.0,0.0,0.0,0.0,0.0,0.0,0.0,0.0,0.0,0.0,0.0,0.0,0.0,0.0,0.0,0.0,0.0,0.0,0.0,0.0,0.0,0.0,0.0,0.0,0.0,0.0,0.0,0.0,0.0,0.0,0.0,-4.1508,-4.175,-4.1446,-4.115,-4.1105,-4.1358,-4.115,-4.0891,-4.0528,-4.0528,0.0,0.0,0.0,0.0,0.0,0.0,0.0,0.0,0.0,0.0,0.0,0.0,0.0,0.0,0.0,0.0,0.0,0.0,0.0,0.0,0.0,0.0,0.0,0.0,0.0,0.0,0.0,0.0,0.0,0.0,0.0,0.0,0.0,0.0,0.0,0.0,0.0,0.0,0.0,0.0,0.0,0.0,0.0,0.0,0.0,0.0,0.0,0.0,0.0,0.0,0.0,0.0,0.0,0.0,0.0,0.0,0.0,0.0,0.0,0.0,0.0,0.0,0.0,0.0,0.0,0.0,0.0,0.0,0.0,0.0,0.0,0.0,0.0,0.0,0.0,0.0,0.0,0.0,0.0,0.0,0.0,0.0,0.0,0.0,0.0,0.0,0.0,0.0,0.0,0.0,0.0,0.0,0.0,0.0,0.0,0.0,0.0,0.0,0.0,0.0,0.0,0.0,-4.2302,-4.2342,-4.2038,-4.175,-4.1664,-4.181,-4.1664,-4.1358,-4.075,-4.0949,0.0,0.0,0.0,0.0,0.0,0.0,0.0,0.0,0.0,0.0,0.0,0.0,0.0,0.0,0.0,0.0,0.0,0.0,0.0,0.0,0.0,0.0,0.0,0.0,0.0,0.0,0.0,0.0,0.0,0.0,0.0,0.0,0.0,0.0,0.0,0.0,0.0,0.0,0.0,0.0,0.0,0.0,0.0,0.0,0.0,0.0,0.0,0.0,0.0,0.0,0.0,0.0,0.0,0.0,0.0,0.0,0.0,0.0,0.0,0.0,0.0,0.0,0.0,0.0,0.0,0.0,0.0,0.0,0.0,0.0,0.0,0.0,0.0,0.0,0.0,0.0,0.0,0.0,0.0,0.0,0.0,0.0,0.0,0.0,0.0,0.0,0.0,0.0,0.0,0.0,0.0,0.0,0.0,0.0,0.0,0.0,0.0,0.0,0.0,0.0,0.0,0.0,-4.2162,-4.208,-4.2577,-4.1621,-4.1178,-4.175,-4.1313,-4.075,-4.0204,-4.115,0.0,0.0,0.0,0.0,0.0,0.0,0.0,0.0,0.0,0.0,0.0,0.0,0.0,0.0,0.0,0.0,0.0,0.0,0.0,0.0,0.0,0.0,0.0,0.0,0.0,0.0,0.0,0.0,0.0,0.0,0.0,0.0,0.0,0.0,0.0,0.0,0.0,0.0,0.0,0.0,0.0,0.0,0.0,0.0,0.0,0.0,0.0,0.0,0.0,0.0,0.0,0.0,0.0,0.0,0.0,0.0,0.0,0.0,0.0,0.0,0.0,0.0,0.0,0.0,0.0,0.0,0.0,0.0,0.0,0.0,0.0,0.0,0.0,0.0,0.0,0.0,0.0,0.0,0.0,0.0,0.0,0.0,0.0,0.0,0.0,0.0,0.0,0.0,0.0,0.0,0.0,0.0,0.0,0.0,0.0,0.0,0.0,0.0,0.0,0.0,0.0,0.0,-4.2995,-4.294,-4.316,-4.281,-4.2621,-4.2847,-4.2659,-4.2109,-4.1196,0.0,0.0,0.0,0.0,0.0,0.0,0.0,0.0,0.0,0.0,0.0,0.0,0.0,0.0,0.0,0.0,0.0,0.0,0.0,0.0,0.0,0.0,0.0,0.0,0.0,0.0,0.0,0.0,0.0,0.0,0.0,0.0,0.0,0.0,0.0,0.0,0.0,0.0,0.0,0.0,0.0,0.0,0.0,0.0,0.0,0.0,0.0,0.0,0.0,0.0,0.0,0.0,0.0,0.0,0.0,0.0,0.0,0.0,0.0,0.0,0.0,0.0,0.0,0.0,0.0,0.0,0.0,0.0,0.0,0.0,0.0,0.0,0.0,0.0,0.0,0.0,0.0,0.0,0.0,0.0,0.0,0.0,0.0,0.0,0.0,0.0,0.0,0.0,0.0,0.0,0.0,0.0,0.0,0.0,0.0,0.0,0.0,0.0,0.0,0.0,0.0,0.0,-4.3497,-4.3497,-4.3497,-4.3497,-4.3339,-4.325,-4.325,-4.325,-4.2828,-4.1853,0.0,0.0,0.0,0.0,0.0,0.0,0.0,0.0,0.0,0.0,0.0,0.0,0.0,0.0,0.0,0.0,0.0,0.0,0.0,0.0,0.0,0.0,0.0,0.0,0.0,0.0,0.0,0.0,0.0,0.0,0.0,0.0,0.0,0.0,0.0,0.0,0.0,0.0,0.0,0.0,0.0,0.0,0.0,0.0,0.0,0.0,0.0,0.0,0.0,0.0,0.0,0.0,0.0,0.0,0.0,0.0,0.0,0.0,0.0,0.0,0.0,0.0,0.0,0.0,0.0,0.0,0.0,0.0,0.0,0.0,0.0,0.0,0.0,0.0,0.0,0.0,0.0,0.0,0.0,0.0,0.0,0.0,0.0,0.0,0.0,0.0,0.0,0.0,0.0,0.0,0.0,0.0,0.0,0.0,0.0,0.0,0.0,0.0,0.0,0.0,0.0,0.0,-4.3497,-4.3497,-4.3497,-4.3497,-4.3032,-4.2711,-4.2711,-4.2711,-4.244,0.0,0.0,0.0,0.0,0.0,0.0,0.0,0.0,0.0,0.0,0.0,0.0,0.0,0.0,0.0,0.0,0.0,0.0,0.0,0.0,0.0,0.0,0.0,0.0,0.0,0.0,0.0,0.0,0.0,0.0,0.0,0.0,0.0,0.0,0.0,0.0,0.0,0.0,0.0,0.0,0.0,0.0,0.0,0.0,0.0,0.0,0.0,0.0,0.0,0.0,0.0,0.0,0.0,0.0,0.0,0.0,0.0,0.0,0.0,0.0,0.0,0.0,0.0,0.0,0.0,0.0,0.0,0.0,0.0,0.0,0.0,0.0,0.0,0.0,0.0,0.0,0.0,0.0,0.0,0.0,0.0,0.0,0.0,0.0,0.0,0.0,0.0,0.0,0.0,0.0,0.0,0.0,0.0,0.0,0.0,0.0,0.0,0.0,0.0,0.0,0.0,0.0,0.0,-4.3497,-4.3497,-4.3497,-4.3497,-4.3375,-4.325,-4.325,-4.325,-4.3287,-4.3292,0.0,0.0,0.0,0.0,0.0,0.0,0.0,0.0,0.0,0.0,0.0,0.0,0.0,0.0,0.0,0.0,0.0,0.0,0.0,0.0,0.0,0.0,0.0,0.0,0.0,0.0,0.0,0.0,0.0,0.0,0.0,0.0,0.0,0.0,0.0,0.0,0.0,0.0,0.0,0.0,0.0,0.0,0.0,0.0,0.0,0.0,0.0,0.0,0.0,0.0,0.0,0.0,0.0,0.0,0.0,0.0,0.0,0.0,0.0,0.0,0.0,0.0,0.0,0.0,0.0,0.0,0.0,0.0,0.0,0.0,0.0,0.0,0.0,0.0,0.0,0.0,0.0,0.0,0.0,0.0,0.0,0.0,0.0,0.0,0.0,0.0,0.0,0.0,0.0,0.0,0.0,0.0,0.0,0.0,0.0,0.0,0.0,0.0,0.0,0.0,0.0,0.0,-4.3938,-4.3975,-4.4103,-4.4415,-4.4452,-4.4452,-4.4452,-4.4452,-4.4528,-4.4687,0.0,0.0,0.0,0.0,0.0,0.0,0.0,0.0,0.0,0.0,0.0,0.0,0.0,0.0,0.0,0.0,0.0,0.0,0.0,0.0,0.0,0.0,0.0,0.0,0.0,0.0,0.0,0.0,0.0,0.0,0.0,0.0,0.0,0.0,0.0,0.0,0.0,0.0,0.0,0.0,0.0,0.0,0.0,0.0,0.0,0.0,0.0,0.0,0.0,0.0,0.0,0.0,0.0,0.0,0.0,0.0,0.0,0.0,0.0,0.0,0.0,0.0,0.0,0.0,0.0,0.0,0.0,0.0,0.0,0.0,0.0,0.0,0.0,0.0,0.0,0.0,0.0,0.0,0.0,0.0,0.0,0.0,0.0,0.0,0.0,0.0,0.0,0.0,0.0,0.0,0.0,0.0,0.0,0.0,0.0,0.0,0.0,0.0,0.0,0.0,0.0,0.0,-4.4727,-4.4819,-4.5094,-4.581,-4.5902,-4.5902,-4.5902,-4.5902,-4.592,-4.6012,0.0,0.0,0.0,0.0,0.0,0.0,0.0,0.0,0.0,0.0,0.0,0.0,0.0,0.0,0.0,0.0,0.0,0.0,0.0,0.0,0.0,0.0,0.0,0.0,0.0,0.0,0.0,0.0,0.0,0.0,0.0,0.0,0.0,0.0,0.0,0.0,0.0,0.0,0.0,0.0,0.0,0.0,0.0,0.0,0.0,0.0,0.0,0.0,0.0,0.0,0.0,0.0,0.0,0.0,0.0,0.0,0.0,0.0,0.0,0.0,-4.103,-4.0955,0.0,0.0,0.0,0.0,0.0,0.0,0.0,0.0,0.0,0.0,0.0,0.0,0.0,0.0,0.0,0.0,0.0,0.0,0.0,0.0,0.0,0.0,0.0,0.0,0.0,0.0,0.0,0.0,0.0,0.0,0.0,0.0,0.0,0.0,0.0,0.0,0.0,0.0,0.0,0.0,-4.5626,-4.5645,-4.5718,-4.5883,-4.5902,-4.5902,-4.5902,-4.5902,-4.6177,-4.6819,-4.6856,0.0,0.0,0.0,0.0,0.0,0.0,0.0,0.0,0.0,0.0,0.0,0.0,0.0,0.0,0.0,0.0,0.0,0.0,0.0,0.0,0.0,0.0,0.0,0.0,0.0,0.0,0.0,0.0,0.0,0.0,0.0,0.0,0.0,0.0,0.0,0.0,0.0,0.0,0.0,0.0,0.0,0.0,0.0,0.0,0.0,0.0,0.0,0.0,0.0,0.0,0.0,0.0,0.0,0.0,0.0,0.0,0.0,0.0,0.0,-4.0892,-4.0642,0.0,0.0,0.0,0.0,0.0,0.0,0.0,0.0,0.0,0.0,0.0,0.0,0.0,0.0,0.0,0.0,0.0,0.0,0.0,0.0,0.0,0.0,0.0,0.0,0.0,0.0,0.0,0.0,0.0,0.0,0.0,0.0,0.0,0.0,0.0,0.0,0.0,0.0,0.0,0.0,-4.6434,-4.6489,-4.6636,-4.7021,-4.7058,-4.7058,-4.7058,-4.7058,-4.7241,-4.7664,-4.77,0.0,0.0,0.0,0.0,0.0,0.0,0.0,0.0,0.0,0.0,0.0,0.0,0.0,0.0,0.0,0.0,0.0,0.0,0.0,0.0,0.0,0.0,0.0,0.0,0.0,0.0,0.0,0.0,0.0,0.0,0.0,0.0,0.0,0.0,0.0,0.0,0.0,0.0,0.0,0.0,0.0,0.0,0.0,0.0,0.0,0.0,0.0,0.0,0.0,0.0,0.0,0.0,0.0,-4.0888,-4.0711,-4.1129,-4.0678,-4.0815,-4.1356,-4.073,-4.046,-4.046,-4.046,0.0,0.0,0.0,0.0,0.0,0.0,0.0,0.0,0.0,0.0,0.0,0.0,0.0,0.0,0.0,0.0,0.0,0.0,0.0,0.0,0.0,0.0,-4.2258,-4.2798,-4.3427,-4.3802,-4.363,0.0,0.0,0.0,0.0,0.0,0.0,0.0,0.0,0.0,0.0,0.0,-4.7241,-4.7333,-4.7572,-4.8233,-4.8306,-4.8306,-4.8306,-4.8306,-4.8306,-4.8306,-4.8306,-4.8306,0.0,0.0,0.0,0.0,0.0,0.0,0.0,0.0,0.0,0.0,0.0,0.0,0.0,0.0,0.0,0.0,0.0,0.0,0.0,0.0,0.0,0.0,0.0,0.0,0.0,0.0,0.0,0.0,0.0,0.0,0.0,0.0,-4.3497,-4.3497,0.0,0.0,0.0,0.0,0.0,0.0,0.0,0.0,0.0,0.0,0.0,0.0,0.0,-4.1534,-4.1041,-4.1613,-4.1736,-4.1274,-4.1799,-4.2052,-4.214,-4.2052,-4.2049,-4.2151,-4.2049,0.0,-4.1999,-4.1999,0.0,0.0,0.0,0.0,0.0,0.0,0.0,0.0,0.0,0.0,0.0,0.0,0.0,0.0,0.0,0.0,0.0,0.0,0.0,0.0,0.0,0.0,-4.2432,-4.3037,-4.3253,-4.3398,-4.3846,-4.397,-4.4191,-4.4818,-4.4581,-4.4421,0.0,0.0,0.0,0.0,0.0,0.0,-4.8141,-4.8141,-4.8196,-4.8306,-4.8306,-4.8306,-4.8306,-4.8306,-4.8306,-4.8306,-4.8306,-4.8306,-4.8306,-4.8306,0.0,0.0,0.0,0.0,0.0,0.0,0.0,0.0,0.0,0.0,0.0,0.0,0.0,0.0,0.0,0.0,0.0,0.0,0.0,0.0,0.0,0.0,0.0,0.0,0.0,0.0,0.0,0.0,0.0,-4.3497,-4.3497,-4.3497,-4.3497,-4.3497,0.0,0.0,0.0,0.0,0.0,0.0,0.0,0.0,0.0,-4.1296,-4.14,-4.1326,-4.1098,-4.1801,-4.2091,-4.1813,-4.2151,-4.2286,-4.2286,-4.2286,-4.2523,-4.2929,-4.2929,-4.3166,-4.3504,-4.2642,-4.2286,-4.2286,0.0,0.0,0.0,0.0,-4.2286,-4.2286,-4.2286,-4.2286,-4.2286,-4.2286,0.0,0.0,0.0,0.0,0.0,0.0,0.0,-4.2339,-4.2637,-4.2804,-4.2966,-4.3268,-4.3645,-4.4059,-4.4285,-4.4337,-4.4468,-4.5018,-4.5257,-4.545,-4.574,-4.607,0.0,0.0,0.0,-4.7219,-4.7219,-4.7219,-4.7219,-4.7219,-4.7219,-4.7219,-4.7219,-4.7572,-4.7797,-4.7797,-4.8114,-4.8306,-4.8306,-4.8306,-4.8306,0.0,0.0,0.0,0.0,0.0,0.0,0.0,0.0,0.0,0.0,0.0,0.0,0.0,0.0,0.0,0.0,0.0,0.0,0.0,0.0,0.0,0.0,0.0,0.0,0.0,0.0,0.0,0.0,-4.3497,-4.3497,-4.3497,-4.3375,-4.3304,0.0,0.0,0.0,0.0,0.0,0.0,-4.1578,-4.1324,-4.1138,-4.0995,-4.1308,-4.1474,-4.1474,-4.2202,-4.2574,-4.2574,-4.2777,-4.2878,-4.2878,-4.2878,-4.3183,-4.3724,-4.3724,-4.4045,-4.4485,-4.3352,-4.2878,-4.2878,-4.2878,-4.2878,-4.2878,-4.2878,-4.2878,-4.2878,-4.2878,-4.2878,-4.2878,-4.2878,-4.2878,-4.2878,-4.2878,0.0,0.0,0.0,0.0,-4.2878,-4.2878,-4.3301,-4.3724,-4.3724,-4.4147,-4.4587,-4.4587,-4.4587,-4.4736,-4.5211,-4.5659,-4.6014,-4.6143,-4.6143,0.0,-4.6143,-4.643,-4.6664,-4.6664,-4.6801,-4.6892,-4.6892,-4.6892,-4.6892,-4.6892,-4.7324,-4.7614,-4.7614,-4.8035,-4.8306,-4.8306,-4.8306,-4.8306,-4.8306,0.0,0.0,0.0,0.0,0.0,0.0,0.0,0.0,0.0,0.0,0.0,0.0,0.0,0.0,0.0,0.0,0.0,0.0,0.0,0.0,0.0,0.0,0.0,0.0,0.0,0.0,0.0,0.0,0.0,-4.3497,-4.305,0.0,0.0,0.0,0.0,-4.1853,-4.181,-4.1534,-4.0995,-4.1648,-4.1791,-4.1188,-4.1847,-4.2236,-4.2236,-4.298,-4.3352,-4.3369,-4.4113,-4.4451,-4.4451,-4.4451,-4.4485,-4.4519,-4.4519,-4.4536,-4.457,-4.4502,-4.4451,-4.4451,-4.4451,-4.4451,-4.4451,-4.4451,-4.4451,-4.4451,-4.4451,-4.4451,-4.4451,-4.4451,-4.4451,-4.4451,-4.4451,-4.4451,0.0,0.0,-4.4451,-4.4451,-4.4451,-4.4485,-4.4519,-4.4519,-4.4553,-4.4587,-4.4587,-4.4587,-4.4759,-4.5356,-4.5072,-4.4852,-4.5459,0.0,-4.5563,-4.5563,-4.6589,-4.7342,-4.7342,-4.7838,-4.821,-4.821,-4.821,-4.821,-4.821,-4.8229,-4.8249,-4.8249,-4.8267,-4.8306,-4.8306,-4.8306,-4.8306,-4.8306,-4.8306,0.0,0.0,0.0,0.0,0.0,0.0,0.0,0.0,0.0,0.0,0.0,0.0,0.0,0.0,0.0,0.0,0.0,0.0,0.0,0.0,0.0,0.0,0.0,0.0,0.0,0.0,0.0,0.0,-4.3032,-4.3142,0.0,-4.2203,-4.1937,-4.1639,-4.1303,-4.1375,-4.1332,-4.1102,-4.1818,-4.2142,-4.1897,-4.2625,-4.3014,-4.3014,-4.3775,-4.4164,-4.4181,-4.4451,-4.4587,-4.4587,-4.4587,-4.4587,-4.4587,-4.4587,-4.4587,-4.4587,-4.4587,-4.4587,-4.4587,-4.4587,-4.4587,-4.4587,-4.4587,-4.4587,-4.4587,-4.4587,-4.4587,-4.4587,-4.4587,-4.4587,-4.4587,-4.4587,-4.4587,-4.4587,-4.4587,-4.4587,-4.4587,-4.4587,-4.4587,-4.4587,-4.4587,-4.4587,-4.4587,-4.4587,-4.4587,-4.4682,-4.4852,-4.4776,-4.4682,-4.4852,-4.4906,-4.4906,-4.4906,-4.5337,-4.5614,-4.5614,-4.58,-4.5933,-4.5933,-4.5933,-4.5933,-4.5933,-4.6257,-4.6495,-4.6495,-4.7281,-4.7715,-4.7715,-4.8075,-4.8306,-4.8306,-4.8306,-4.8306,0.0,0.0,0.0,0.0,0.0,0.0,0.0,0.0,0.0,0.0,0.0,0.0,0.0,0.0,0.0,0.0,0.0,0.0,0.0,0.0,0.0,0.0,0.0,0.0,0.0,-4.3321,-4.3105,-4.275,-4.2828,-4.2544,-4.1578,-4.149,-4.1391,-4.1068,-4.1154,-4.1322,-4.1559,-4.2269,-4.2675,-4.2675,-4.342,-4.3809,-4.3809,-4.4316,-4.4587,-4.4587,-4.4587,-4.4587,-4.4587,-4.4587,-4.4587,-4.4587,-4.4587,-4.4587,-4.4587,-4.4587,-4.4587,-4.4587,-4.4587,-4.4587,-4.4587,-4.4587,-4.4587,-4.4587,-4.4587,-4.4587,-4.4587,-4.4587,-4.4587,-4.4587,-4.4587,-4.4587,-4.4587,-4.4587,-4.4587,-4.4587,-4.4587,-4.4587,-4.4587,-4.4587,-4.4587,-4.4587,-4.4587,-4.4587,-4.4587,-4.4587,-4.4587,-4.4587,-4.4587,-4.4587,-4.4654,-4.4925,-4.4929,-4.5077,-4.5589,-4.5637,-4.5731,-4.5971,-4.6006,-4.6006,-4.6006,-4.6326,-4.6567,-4.6567,-4.737,-4.785,-4.785,-4.8454,-4.878,-4.878,-4.8739,-4.86,-4.8306,0.0,0.0,0.0,0.0,0.0,0.0,0.0,0.0,0.0,0.0,0.0,0.0,0.0,0.0,0.0,0.0,0.0,0.0,0.0,0.0,0.0,0.0,0.0,-4.3497,-4.3014,-4.2711,-4.2655,-4.2162,-4.1595,-4.0984,-4.0938,-4.1016,-4.1222,-4.1271,-4.1576,-4.2286,-4.3047,-4.3453,-4.3453,-4.4181,-4.4587,-4.4587,-4.4587,-4.4587,-4.4587,-4.4587,-4.4587,-4.4587,-4.4587,-4.4587,-4.4604,-4.4604,-4.4621,-4.4654,-4.4654,-4.4654,-4.4654,-4.4621,-4.4604,-4.4621,-4.4637,-4.4654,-4.4654,-4.4654,-4.4654,-4.4654,-4.4654,-4.4654,-4.4654,-4.4654,-4.4654,-4.4654,-4.4654,-4.4654,-4.4654,-4.4654,-4.4654,-4.4654,-4.4654,-4.4654,-4.4654,-4.4654,-4.4654,-4.4654,-4.4654,-4.4654,-4.4637,-4.4621,-4.4621,-4.4891,-4.5635,-4.5637,0.0,-4.7482,-4.7646,-4.7855,-4.8547,-4.8617,-4.8617,-4.8617,-4.8617,-4.8617,-4.8617,-4.8667,-4.8667,-4.8717,-4.9299,-4.964,-4.964,-4.9596,-4.9166,-4.8341,0.0,0.0,0.0,0.0,0.0,0.0,0.0,0.0,0.0,0.0,0.0,0.0,0.0,0.0,0.0,0.0,0.0,0.0,0.0,0.0,0.0,-4.3178,-4.2902,-4.2902,-4.2788,-4.24,-4.1587,-4.1639,-4.163,-4.1136,-4.1515,-4.1825,-4.1984,-4.2506,-4.2895,-4.3098,-4.3842,-4.4265,-4.4265,-4.4468,-4.4587,-4.4587,-4.4587,-4.4587,-4.4587,-4.4587,-4.4587,-4.4587,-4.4587,-4.4874,-4.5399,-4.5399,-4.5686,-4.6194,-4.6194,-4.6194,-4.6126,-4.5602,-4.5399,-4.5449,-4.5991,-4.6194,-4.6194,-4.6194,-4.6194,-4.6194,-4.6194,-4.6194,-4.6194,-4.6194,-4.6194,-4.6194,-4.6194,-4.6194,-4.6194,-4.6194,-4.6194,-4.6194,-4.6194,-4.6194,-4.6194,-4.6194,-4.6194,-4.6194,-4.6194,-4.6194,-4.6024,-4.5483,-4.5838,-4.6244,-4.6464,-4.6469,-4.6567,-4.6992,-4.7011,-4.7112,-4.7317,-4.7335,-4.7335,-4.7335,-4.7335,-4.7335,-4.7335,-4.7726,-4.8207,-4.8717,-4.8915,-4.8964,-4.8964,-4.896,-4.909,0.0,0.0,0.0,0.0,0.0,0.0,0.0,0.0,0.0,0.0,0.0,0.0,0.0,0.0,0.0,0.0,0.0,0.0,0.0,0.0,0.0,0.0,-4.2902,-4.2711,-4.2711,-4.248,-4.1997,-4.1076,-4.1538,-4.1737,-4.1256,-4.2053,-4.2634,-4.2763,-4.3166,-4.3555,-4.3876,-4.4333,-4.4587,-4.4587,-4.4587,-4.4587,-4.4587,-4.4587,-4.4587,-4.4587,-4.4587,-4.4739,-4.5043,-4.5043,-4.5449,-4.616,-4.616,-4.6397,-4.6786,-4.6786,-4.6786,-4.6752,0.0,0.0,0.0,0.0,-4.6786,-4.6786,-4.6786,-4.6786,-4.6786,-4.6786,-4.6786,-4.6786,-4.6786,-4.6786,-4.6786,-4.6786,-4.6786,-4.6786,-4.6786,-4.6786,-4.6786,-4.6786,-4.6786,-4.6786,-4.6786,-4.6786,-4.6786,-4.6786,-4.7056,0.0,-4.6701,-4.6718,-4.6904,-4.7208,-4.7005,-4.7005,-4.7631,-4.7445,-4.7378,-4.7682,-4.7716,-4.7716,-4.7716,-4.7716,0.0,0.0,0.0,-4.8566,-4.9276,-4.9276,0.0,0.0,0.0,-4.9639,-4.9704,-5.0007,0.0,0.0,-4.8394,-4.8037,0.0,0.0,0.0,0.0,0.0,0.0,0.0,0.0,0.0,0.0,0.0,0.0,0.0,0.0,0.0,0.0,-4.2693,-4.2616,-4.2711,-4.2192,-4.1631,-4.1088,-4.1605,-4.1879,-4.1476,-4.2501,-4.3306,-4.3542,-4.3555,-4.3859,-4.4536,-4.4587,0.0,0.0,0.0,-4.4587,-4.4587,-4.4587,-4.4621,-4.4705,-4.4705,-4.5094,-4.5821,-4.5821,-4.6227,-4.6921,-4.6921,-4.6955,-4.7039,-4.7039,-4.7039,-4.7039,-4.6955,-4.6972,-4.7039,-4.7039,-4.7039,-4.7039,-4.7039,0.0,0.0,-4.7039,-4.7039,-4.7039,-4.7039,-4.7039,-4.7039,-4.7039,-4.7039,-4.7039,-4.7039,-4.7039,-4.7039,-4.7039,-4.7039,-4.7039,-4.7039,-4.7039,-4.7039,-4.7039,-4.7581,-4.8037,-4.8037,-4.7479,-4.7276,-4.7936,-4.7479,-4.7513,-4.8832,-4.8443,-4.8291,-4.8934,-4.9001,0.0,-4.9001,-4.9001,-4.9001,-4.9001,-4.9046,-4.9376,-4.9879,-4.9976,-4.9928,-4.9785,-5.0378,-5.0378,-4.9726,-5.0402,-5.0384,-4.9708,-4.915,-4.8834,0.0,0.0,0.0,0.0,0.0,0.0,0.0,0.0,0.0,0.0,0.0,0.0,0.0,0.0,0.0,-4.3196,-4.2562,-4.2162,-4.2616,-4.2334,-4.1985,-4.189,-4.1576,-4.1817,-4.2878,-4.3223,-4.3613,-4.4299,-4.435,-4.4418,-4.457,-4.4587,-4.4587,-4.4587,-4.4587,-4.4587,-4.4587,-4.4587,-4.4891,-4.5483,-4.5483,0.0,-4.6583,-4.6583,-4.6989,-4.7699,-4.7699,-4.8037,-4.8578,-4.8578,-4.8578,-4.8528,-4.7936,-4.8054,-4.8578,-4.8578,-4.8578,-4.8578,-4.8578,-4.8578,-4.8578,-4.8578,-4.8578,-4.8578,-4.8578,-4.8578,0.0,-4.8578,-4.8578,-4.8578,-4.8578,-4.8578,-4.8578,-4.8578,-4.8578,-4.8578,-4.8578,-4.8578,-4.8578,-4.8578,-4.8697,-4.8798,-4.8798,-4.868,-4.8629,-4.8781,-4.868,-4.868,-4.8968,-4.8883,-4.8849,-4.8984,-4.9001,-4.9001,-4.9001,-4.9001,-4.9001,-4.9001,-4.9521,-4.9622,-4.9212,-4.9722,-4.9752,-4.9155,-4.9316,-4.9545,-4.9953,-5.0062,-5.0062,-4.9918,-4.9648,-4.9204,0.0,0.0,0.0,0.0,0.0,0.0,0.0,0.0,0.0,0.0,0.0,-4.3014,-4.2696,0.0,-4.2324,-4.26,-4.2185,-4.2019,-4.2697,-4.2412,-4.2211,-4.2485,-4.2396,-4.2734,-4.3819,-4.396,-4.4164,-4.4553,-4.4587,-4.4587,-4.4587,-4.4587,-4.4587,-4.4587,-4.4587,-4.4587,-4.4587,-4.4959,-4.5331,-4.5703,-4.6075,-4.6633,-4.7361,-4.7361,-4.7767,-4.846,-4.846,-4.8663,-4.9001,-4.9001,-4.9001,-4.8968,-4.8595,-4.868,-4.9001,-4.9001,-4.9001,-4.9001,-4.9001,-4.9001,-4.9001,-4.9001,-4.9001,-4.9001,-4.9001,-4.9001,-4.9001,-4.9001,-4.9001,-4.9001,-4.9001,-4.9001,-4.9001,-4.9001,-4.9001,-4.9001,-4.9001,-4.9001,-4.9001,-4.9001,-4.9001,-4.9001,-4.9001,-4.9001,-4.9001,-4.9001,-4.9001,-4.9001,-4.9001,-4.9001,-4.9001,-4.9001,-4.9001,-4.9001,-4.9001,-4.9001,-4.9001,-4.9001,-4.9299,-4.9359,-4.9001,-4.9299,-4.9359,-4.9001,-4.9316,-4.9681,-4.9976,-5.0352,-5.0352,-5.0016,-4.9908,-4.9504,0.0,0.0,0.0,0.0,0.0,0.0,0.0,-4.341,-4.3214,-4.2788,-4.2958,-4.2903,-4.1979,-4.2203,-4.2382,-4.2021,-4.1892,-4.2167,-4.2942,-4.2672,-4.2628,-4.3342,-4.3406,-4.3671,-4.4389,-4.4548,-4.4587,-4.4587,-4.4587,-4.4587,-4.4587,-4.4587,-4.4587,-4.4587,-4.4587,-4.4654,-4.479,-4.5399,-4.5838,-4.6143,-4.6735,-4.7394,-4.8122,-4.8122,-4.8443,-4.9001,-4.9001,-4.9001,-4.9001,-4.9001,-4.9001,-4.9001,-4.9001,-4.9001,-4.9001,-4.9001,-4.9001,-4.9001,-4.9001,-4.9001,-4.9001,-4.9001,-4.9001,-4.9001,-4.9001,-4.9001,-4.9001,-4.9001,-4.9001,-4.9001,-4.9001,-4.9001,-4.9001,-4.9001,-4.9001,-4.9001,-4.9001,-4.9001,-4.9001,-4.9001,-4.9001,-4.9001,-4.9001,-4.9001,-4.9001,-4.9001,-4.9001,-4.9001,-4.9001,-4.9001,-4.9001,-4.9001,-4.9001,-4.9001,-4.9001,-4.9001,-4.9001,-4.9001,-4.9001,-4.9001,-4.9001,-4.9001,-4.9001,-4.9001,-4.9504,-4.9821,-4.9821,-5.0407,-5.0407,-4.9821,-4.9821,-4.9521,-4.9683,-4.7876,-4.5751,-4.4064,-4.3552,-4.3497,0.0,-4.3142,-4.2788,-4.2711,-4.2342,-4.1961,-4.1793,-4.1853,-4.2062,-4.2519,-4.23,-4.2461,-4.3548,-4.3436,-4.3683,-4.4812,-4.4044,-4.369,-4.4478,-4.4575,-4.4587,-4.4587,-4.4587,-4.4587,-4.4587,-4.4587,-4.4587,-4.4587,-4.4587,-4.4891,-4.5568,-4.5669,-4.6363,-4.7665,-4.775,-4.8173,-4.8883,-4.8883,-4.8934,-4.9001,-4.9001,-4.9001,-4.9001,-4.9001,-4.9001,-4.9001,-4.9001,-4.9001,-4.9001,-4.9001,-4.9001,-4.9001,-4.9001,-4.9001,-4.9001,-4.9001,-4.9001,-4.9001,-4.9001,-4.9001,-4.9001,-4.9001,-4.9001,-4.9001,-4.9001,-4.9001,-4.9001,-4.9001,-4.9001,-4.9001,-4.9001,-4.9001,-4.9001,-4.9001,-4.9001,-4.9001,-4.9001,-4.9001,-4.9001,-4.9001,-4.9001,-4.9001,-4.9001,-4.9001,-4.9001,-4.9001,-4.9001,-4.9001,-4.9001,-4.9001,-4.9001,-4.9001,-4.9001,-4.9001,-4.9001,-4.9001,-4.9001,-4.9001,-4.9046,-4.9107,-4.9107,-4.9212,-4.9212,-4.9107,-4.9107,-4.9046,-4.9377,-4.7575,-4.5736,-4.5057,-4.4176,-4.3497,-4.3497,-4.3105,-4.2711,-4.2711,-4.2203,-4.181,-4.181,-4.1534,-4.1515,-4.2229,-4.2236,-4.2427,-4.3423,-4.3785,-4.4164,-4.4785,-4.4429,-4.4364,-4.5054,-4.4814,-4.4587,-4.4587,-4.4587,-4.4587,-4.4587,-4.4587,-4.4587,-4.4587,-4.501,-4.5382,-4.5703,-4.6566,-4.731,-4.7919,-4.8359,-4.8714,-4.9001,-4.9001,-4.9001,-4.9001,-4.9001,-4.9001,-4.9001,-4.9001,-4.9001,-4.9001,-4.9001,-4.9001,-4.9001,-4.9001,-4.9001,-4.9001,-4.9001,-4.9001,-4.9001,-4.9001,-4.9001,-4.9001,-4.9001,-4.9001,-4.9001,-4.9001,-4.9001,-4.9001,-4.9001,-4.9001,-4.9001,-4.9001,-4.9001,-4.9001,-4.9001,-4.9001,-4.9001,-4.9001,-4.9001,-4.9001,-4.9001,-4.9001,-4.9001,-4.9001,-4.9001,-4.9001,-4.9001,-4.9001,-4.9001,-4.9001,-4.9001,-4.9001,-4.9001,-4.9001,-4.9001,-4.9001,-4.9001,-4.9001,-4.9001,-4.9001,-4.9001,-4.9001,-4.9001,-4.9001,-4.9001,-4.9001,-4.9001,-4.9001,-4.9001,-4.9001,-4.8617,-4.7036,-4.5571,-4.5571,-4.4525,-4.3497,-4.3497,-4.2958,-4.248,-4.2673,-4.2203,-4.1839,-4.1877,-4.1646,-4.1661,-4.2306,-4.2423,-4.2807,-4.3769,-4.4181,-4.4489,-4.4783,-4.472,-4.4759,-4.5232,-4.4869,-4.4587,-4.4587,-4.4587,-4.4587,-4.4587,-4.4587,-4.4587,-4.4587,-4.5314,-4.5805,-4.6007,-4.7276,-4.802,-4.8223,-4.8748,-4.9001,-4.9001,-4.9001,-4.9001,-4.9001,-4.9001,-4.9001,-4.9001,-4.9001,-4.9001,-4.9001,-4.9001,-4.9001,-4.9001,-4.9001,-4.9001,-4.9001,-4.9001,-4.9001,-4.9001,-4.9001,-4.9001,-4.9001,-4.9001,-4.9001,-4.9001,-4.9001,-4.9001,-4.9001,-4.9001,-4.9001,-4.9001,-4.9001,-4.9001,-4.9001,-4.9001,-4.9001,-4.9001,-4.9001,-4.9001,-4.9001,-4.9001,-4.9001,-4.9001,-4.9001,-4.9001,-4.9001,-4.9001,-4.9001,-4.9001,-4.9001,-4.9001,-4.9001,-4.9001,-4.9001,-4.9001,-4.9001,-4.9001,-4.9001,-4.9001,-4.9001,-4.9001,-4.9001,-4.9001,-4.9001,-4.9001,-4.9001,-4.9001,-4.9001,-4.9001,-4.9001,-4.7279,-4.5975,-4.4745,-4.4745,-4.4103,-4.3497,-4.3497,-4.2639,-4.1979,-4.2577,-4.2203,-4.1868,-4.2037,-4.2496,-4.2906,-4.3117,-4.327,-4.3784,-4.4964,-4.482,-4.478,-4.5407,-4.4961,-4.4626,-4.4626,-4.4626,-4.4587,-4.4587,-4.4587,-4.4587,-4.4587,-4.4587,-4.4587,-4.4587,-4.5314,-4.6041,-4.6752,-4.753,-4.8274,-4.8968,-4.8984,-4.9001,-4.9001,-4.9001,-4.9001,-4.9001,-4.9001,-4.9001,-4.9001,-4.9001,-4.9001,-4.9001,-4.9001,-4.9001,-4.9001,-4.9001,-4.9001,-4.9001,-4.9001,-4.9001,-4.9001,-4.9001,-4.9001,-4.9001,-4.9001,-4.9001,-4.9001,-4.9001,-4.9001,-4.9001,-4.9001,-4.9001,-4.9001,-4.9001,-4.9001,-4.9001,-4.9001,-4.9001,-4.9001,-4.9001,-4.9001,-4.9001,-4.9001,-4.9001,-4.9001,-4.9001,-4.9001,-4.9001,-4.9001,-4.9001,-4.9001,-4.9001,-4.9001,-4.9001,-4.9001,-4.9001,-4.9001,-4.9001,-4.9001,-4.9001,-4.9001,-4.9001,-4.9001,-4.9001,-4.9001,-4.9001,-4.9001,-4.9001,-4.9001,-4.9001,-4.9001,-4.9001,-4.7279,-4.6324,-4.5498,-4.5498,-4.4488,-4.3497,-4.3497,-4.2921,-4.2559,-4.3142,-4.2483,-4.2101,-4.3113,-4.2775,-4.2736,-4.3828,-4.3681,-4.388,-4.5229,-4.4934,-4.4814,-4.5407,-4.4944,-4.4587,-4.4587,-4.4587,-4.4587,-4.4587,-4.4587,-4.4587,-4.4587,-4.4587,-4.4807,-4.5314,-4.6041,-4.6786,-4.753,-4.8274,-4.8765,-4.9001,-4.9001,-4.9001,-4.9001,-4.9001,-4.9001,-4.9001,-4.9001,-4.9001,-4.9001,-4.9001,-4.9001,-4.9001,-4.9001,-4.9001,-4.9001,-4.9001,-4.9001,-4.9001,-4.9001,-4.9001,-4.9001,-4.9001,-4.9001,-4.9001,-4.9001,-4.9001,-4.9001,-4.9001,-4.9001,-4.9001,-4.9001,-4.9001,-4.9001,-4.9001,-4.9001,-4.9001,-4.9001,-4.9001,-4.9001,-4.9001,-4.9001,-4.9001,-4.9001,-4.9001,-4.9001,-4.9001,-4.9001,-4.9001,-4.9001,-4.9001,-4.9001,-4.9001,-4.9001,-4.9001,-4.9001,-4.9001,-4.9001,-4.9001,-4.9001,-4.9001,-4.9001,-4.9001,-4.9001,-4.9001,-4.9001,-4.9001,-4.9001,-4.9001,-4.9001,-4.9001,-4.9001,-4.9001,-4.7609,-4.6526,-4.5535,-4.5828,-4.469,-4.3497,-4.3497,-4.3121,-4.3012,-4.376,-4.3249,-4.3045,-4.4471,-4.3899,-4.3554,-4.4609,-4.4439,-4.4559,-4.5662,-4.532,-4.5142,-4.5732,-4.5267,-4.4869,-4.4626,-4.4814,-4.4814,-4.4626,-4.4587,-4.4587,-4.4587,-4.4587,-4.4925,-4.5686,-4.6413,-4.7158,-4.7919,-4.8646,-4.9001,-4.9001,-4.9001,-4.9001,-4.9001,-4.9001,-4.9001,-4.9001,-4.9001,-4.9001,-4.9001,-4.9001,-4.9001,-4.9001,-4.9001,-4.9001,-4.9001,-4.9001,-4.9001,-4.9001,-4.9001,-4.9001,-4.9001,-4.9001,-4.9001,-4.9001,-4.9001,-4.9001,-4.9001,-4.9001,-4.9001,-4.9001,-4.9001,-4.9001,-4.9001,-4.9001,-4.9001,-4.9001,-4.9001,-4.9001,-4.9001,-4.9001,-4.9001,-4.9001,-4.9001,-4.9001,-4.9001,-4.9001,-4.9001,-4.9001,-4.9001,-4.9001,-4.9001,-4.9001,-4.9001,-4.9001,-4.9001,-4.9001,-4.9001,-4.9001,-4.9001,-4.9001,-4.9001,-4.9001,-4.9001,-4.9001,-4.9001,-4.9001,-4.9001,-4.9001,-4.9001,-4.9001,-4.9001,-4.9001,-4.8049,-4.6544,-4.4947,-4.5718,-4.469,-4.3497,-4.3534,-4.3271,-4.3304,-4.4492,-4.4439,-4.4582,-4.5942,-4.5641,-4.5276,-4.5526,-4.5511,-4.5681,-4.6288,-4.5865,-4.5681,-4.6288,-4.5833,-4.5267,-4.4682,-4.5142,-4.5267,-4.4665,-4.4626,-4.4587,-4.4587,-4.4621,-4.4976,-4.5737,-4.6464,-4.7208,-4.797,-4.8663,-4.9001,-4.9001,-4.9001,-4.9001,-4.9001,-4.9001,-4.9001,-4.9001,-4.9001,-4.9001,-4.9001,-4.9001,-4.9001,-4.9001,-4.9001,-4.9001,-4.9001,-4.9001,-4.9001,-4.9001,-4.9001,-4.9001,-4.9001,-4.9001,-4.9001,-4.9001,-4.9001,-4.9001,-4.9001,-4.9001,-4.9001,-4.9001,-4.9001,-4.9001,-4.9001,-4.9001,-4.9001,-4.9001,-4.9001,-4.9001,-4.9001,-4.9001,-4.9001,-4.9001,-4.9001,-4.9001,-4.9001,-4.9001,-4.9001,-4.9001,-4.9001,-4.9001,-4.9001,-4.9001,-4.9001,-4.9001,-4.9001,-4.9001,-4.9001,-4.9001,-4.9001,-4.9001,-4.9001,-4.9001,-4.9001,-4.9001,-4.9001,-4.9001,-4.9001,-4.9001,-4.9001,-4.9001,-4.9001,-4.9001,-4.7517,-4.6526,-4.5645,-4.5847,-4.469,-4.3644,-4.4268,-4.4291,-4.4396,-4.4823,-4.5192,-4.5612,-4.6127,-4.5641,-4.5417,-4.6068,-4.5783,-4.5545,-4.5681,-4.5597,-4.5545,-4.5681,-4.5597,-4.5267,-4.4682,-4.5142,-4.5459,-4.5267,-4.4852,-4.4587,-4.4587,-4.5111,-4.5754,-4.6498,-4.7242,-4.7986,-4.8714,-4.8917,-4.9001,-4.9001,-4.9001,-4.9001,-4.9001,-4.9001,-4.9001,-4.9001,-4.9001,-4.9001,-4.9001,-4.9001,-4.9001,-4.9001,-4.9001,-4.9001,-4.9001,-4.9001,-4.9001,-4.9001,-4.9001,-4.9001,-4.9001,-4.9001,-4.9001,-4.9001,-4.9001,-4.9001,-4.9001,-4.9001,-4.9001,-4.9001,-4.9001,-4.9001,-4.9001,-4.9001,-4.9001,-4.9001,-4.9001,-4.9001,-4.9001,-4.9001,-4.9001,-4.9001,-4.9001,-4.9001,-4.9001,-4.9001,-4.9001,-4.9001,-4.9001,-4.9001,-4.9001,-4.9001,-4.9001,-4.9001,-4.9001,-4.9001,-4.9001,-4.9001,-4.9001,-4.9001,-4.9001,-4.9001,-4.9001,-4.9001,-4.9001,-4.9001,-4.9001,-4.9001,-4.9001,-4.9001,-4.9001,-4.9001,-4.7755,-4.7058,-4.6434,-4.6434,-4.548,-4.458,-4.469,-4.4816,-4.4935,-4.5003,-4.5603,-4.6217,-4.6645,-4.6204,-4.5853,-4.6312,-4.6112,-4.5865,-4.5865,-4.5865,-4.5865,-4.5865,-4.5865,-4.5545,-4.4665,-4.5372,-4.5783,-4.5511,-4.4961,-4.472,-4.4998,-4.5433,-4.6041,-4.6769,-4.753,-4.8257,-4.9001,-4.9001,-4.9001,-4.9001,-4.9001,-4.9001,-4.9001,-4.9001,-4.9001,-4.9001,-4.9001,-4.9001,-4.9001,-4.9001,-4.9001,-4.9001,-4.9001,-4.9001,-4.9001,-4.9001,-4.9001,-4.9001,-4.9001,-4.9001,-4.9001,-4.9001,-4.9001,-4.9001,-4.9001,-4.9001,-4.9001,-4.9001,-4.9001,-4.9001,-4.9001,-4.9001,-4.9001,-4.9001,-4.9001,-4.9001,-4.9001,-4.9001,-4.9001,-4.9001,-4.9001,-4.9001,-4.9001,-4.9001,-4.9001,-4.9001,-4.9001,-4.9001,-4.9001,-4.9001,-4.9001,-4.9001,-4.9001,-4.9001,-4.9001,-4.9001,-4.9001,-4.9001,-4.9001,-4.9001,-4.9001,-4.9001,-4.9001,-4.9001,-4.9001,-4.9001,-4.9001,-4.9001,-4.9001,-4.9001,-4.9001,-4.9001,-4.8306,-4.7719,-4.7113,-4.7113,-4.6507,-4.5755,-4.5168,-4.5201,-4.5285,-4.5228,-4.59,-4.6664,-4.7194,-4.6847,-4.6524,-4.6413,-4.646,-4.6478,-4.6288,-4.6336,-4.6383,-4.6288,-4.6336,-4.5915,-4.472,-4.5783,-4.6288,-4.5699,-4.5035,-4.4961,-4.5459,-4.5725,-4.6227,-4.7056,-4.7716,-4.8359,-4.9001,-4.9001,-4.9001,-4.9001,-4.9001,-4.9001,-4.9001,-4.9001,-4.9001,-4.9001,-4.9001,-4.9001,-4.9001,-4.9001,-4.9001,-4.9001,-4.9001,-4.9001,-4.9001,-4.9001,-4.9001,-4.9001,-4.9001,-4.9001,-4.9001,-4.9001,-4.9001,-4.9001,-4.9001,-4.9001,-4.9001,-4.9001,-4.9001,-4.9001,-4.9001,-4.9001,-4.9001,-4.9001,-4.9001,-4.9001,-4.9001,-4.9001,-4.9001,-4.9001,-4.9001,-4.9001,-4.9001,-4.9001,-4.9001,-4.9001,-4.9001,-4.9001,-4.9001,-4.9001,-4.9001,-4.9001,-4.9001,-4.9001,-4.9001,-4.9001,-4.9001,-4.9001,-4.9001,-4.9001,-4.9001,-4.9001,-4.9001,-4.9001,-4.9001,-4.9001,-4.9001,-4.9001,-4.9001,-4.9001,-4.9001,-4.9052,-4.8306,-4.7719,-4.7113,-4.7113,-4.6507,-4.6049,-4.6581,-4.6335,-4.604,-4.6148,-4.6713,-4.7088,-4.6664,-4.6955,-4.7062,-4.6478,-4.6847,-4.6864,-4.5783,-4.6112,-4.6192,-4.5732,-4.6112,-4.5915,-4.472,-4.6161,-4.6955,-4.6288,-4.5681,-4.5372,-4.5494,-4.6203,-4.7225,-4.8578,-4.8748,-4.8883,-4.9001,-4.9001,-4.9001,-4.9001,-4.9001,-4.9001,-4.9001,-4.9001,-4.9001,-4.9001,-4.9001,-4.9001,-4.9001,-4.9001,-4.9001,-4.9001,-4.9001,-4.9001,-4.9001,-4.9001,-4.9001,-4.9001,-4.9001,-4.9001,-4.9001,-4.9001,-4.9001,-4.9001,-4.9001,-4.9001,-4.9001,-4.9001,-4.9001,-4.9001,-4.9001,-4.9001,-4.9001,-4.9001,-4.9001,-4.9001,-4.9001,-4.9001,-4.9001,-4.9001,-4.9001,-4.9001,-4.9001,-4.9001,-4.9001,-4.9001,-4.9001,-4.9001,-4.9001,-4.9001,-4.9001,-4.9001,-4.9001,-4.9001,-4.9001,-4.9001,-4.9001,-4.9001,-4.9001,-4.9001,-4.9001,-4.9001,-4.9001,-4.9001,-4.9001,-4.9001,-4.9001,-4.9001,-4.9001,-4.9001,-4.9001,-4.9323,-4.8306,-4.8031,-4.7737,-4.7737,-4.7443,-4.715,-4.7131,-4.6943,-4.6722,-4.6364,-4.6863,-4.7299,-4.6999,-4.7194,-4.7281,-4.6955,-4.7194,-4.7194,-4.6589,-4.643,-4.643,-4.6495,-4.643,-4.6063,-4.5142,-4.6495,-4.7132,-4.6478,-4.5815,-4.5822,-4.656,-4.7112,-4.7868,-4.8968,-4.9001,-4.9001,-4.9001,-4.9001,-4.9001,-4.9001,-4.9001,-4.9001,-4.9001,-4.9001,-4.9001,-4.9001,-4.9001,-4.9001,-4.9001,-4.9001,-4.9001,-4.9001,-4.9001,-4.9001,-4.9001,-4.9001,-4.9001,-4.9001,-4.9001,-4.9001,-4.9001,-4.9001,-4.9001,-4.9001,-4.9001,-4.9001,-4.9001,-4.9001,-4.9001,-4.9001,-4.9001,-4.9001,-4.9001,-4.9001,-4.9001,-4.9001,-4.9001,-4.9001,-4.9001,-4.9001,-4.9001,-4.9001,-4.9001,-4.9001,-4.9001,-4.9001,-4.9001,-4.9001,-4.9001,-4.9001,-4.9001,-4.9001,-4.9001,-4.9001,-4.9001,-4.9001,-4.9001,-4.9001,-4.9001,-4.9001,-4.9001,-4.9001,-4.9001,-4.9001,-4.9001,-4.9001,-4.9001,-4.9001,-4.9001,-4.9001,-4.9001,-4.9407,-4.8306,-4.8306,-4.8306,-4.8306,-4.8306,-4.8141,-4.7517,-4.7361,-4.7204,-4.6609,-4.6952,-4.7385,-4.7385,-4.753,-4.7572,-4.7428,-4.753,-4.7572,-4.7428,-4.6955,-4.6801,-4.7342,-4.6955,-4.6383,-4.5732,-4.6864,-4.7324,-4.6664,-4.633,-4.655,-4.7366,-4.7746,-4.8257,-4.8984,-4.9001,-4.9001,-4.9001,-4.9001,-4.9001,-4.9001,-4.9001,-4.9001,-4.9001,-4.9001,-4.9001,-4.9001,-4.9001,-4.9001,-4.9001,-4.9001,-4.9001,-4.9001,-4.9001,-4.9001,-4.9001,-4.9001,-4.9001,-4.9001,-4.9001,-4.9001,-4.9001,-4.9001,-4.9001,-4.9001,-4.9001,-4.9001,-4.9001,-4.9001,-4.9001,-4.9001,-4.9001,-4.9001,-4.9001,-4.9001,-4.9001,-4.9001,-4.9001,-4.9001,-4.9001,-4.9001,-4.9001,-4.9001,-4.9001,-4.9001,-4.9001,-4.9001,-4.9001,-4.9001,-4.9001,-4.9001,-4.9001,-4.9001,-4.9001,-4.9001,-4.9001,-4.9001,-4.9001,-4.9001,-4.9001,-4.9001,-4.9001,-4.9001,-4.9001,-4.9001,-4.9001,-4.9001,-4.9001,-4.9001,-4.9001,-4.9001,-4.9001,-4.9475,-4.8306,-4.8306,-4.8306,-4.8306,-4.8306,-4.8288,-4.8214,-4.7802,-4.7367,-4.7295,-4.7331,-4.7385,-4.7385,-4.7856,-4.8035,-4.7488,-4.7856,-4.8035,-4.7488,-4.7342,-4.7342,-4.7385,-4.7342,-4.7044,-4.6383,-4.747,-4.7977,-4.7342,-4.7998,-4.7963,-4.6941,-4.7522,-4.8257,-4.8984,-4.9001,-4.9001,-4.9001,-4.9001,-4.9001,-4.9001,-4.9001,-4.9001,-4.9001,-4.9001,-4.9001,-4.9001,-4.9001,-4.9001,-4.9001,-4.9001,-4.9001,-4.9001,-4.9001,-4.9001,-4.9001,-4.9001,-4.9001,-4.9001,-4.9001,-4.9001,-4.9001,-4.9001,-4.9001,-4.9001,-4.9001,-4.9001,-4.9001,-4.9001,-4.9001,-4.9001,-4.9001,-4.9001,-4.9001,-4.9001,-4.9001,-4.9001,-4.9001,-4.9001,-4.9001,-4.9001,-4.9001,-4.9001,-4.9001,-4.9001,-4.9001,-4.9001,-4.9001,-4.9001,-4.9001,-4.9001,-4.9001,-4.9001,-4.9001,-4.9001,-4.9001,-4.9001,-4.9001,-4.9001,-4.9001,-4.9001,-4.9001,-4.9001,-4.9001,-4.9001,-4.9001,-4.9001,-4.9001,-4.9001,-4.9001,-4.9001,-4.9001,-4.9763,-4.8177,-4.8306,-4.8306,-4.8306,-4.8306,-4.8306,-4.8306,-4.8114,-4.7937,-4.7937,-4.7937,-4.7937,-4.7937,-4.8132,-4.821,-4.7977,-4.8132,-4.8229,-4.7995,-4.7614,-4.753,-4.7897,-4.7614,-4.7299,-4.7044,-4.7797,-4.8035,-4.7446,-4.8559,-4.8915,-4.8032,-4.8384,-4.8846,-4.9563,-4.9212,-4.9001,-4.9001,-4.9001,-4.9001,-4.9001,-4.9001,-4.9001,-4.9001,-4.9001,-4.9001,-4.9001,-4.9001,-4.9001,-4.9001,-4.9001,-4.9001,-4.9001,-4.9001,-4.9001,-4.9001,-4.9001,-4.9001,-4.9001,-4.9001,-4.9001,-4.9001,-4.9001,-4.9001,-4.9001,-4.9001,-4.9001,-4.9001,-4.9001,-4.9001,-4.9001,-4.9001,-4.9001,-4.9001,-4.9001,-4.9001,-4.9001,-4.9001,-4.9001,-4.9001,-4.9001,-4.9001,-4.9001,-4.9001,-4.9001,-4.9001,-4.9001,-4.9001,-4.9001,-4.9001,-4.9001,-4.9001,-4.9001,-4.9001,-4.9001,-4.9001,-4.9001,-4.9001,-4.9001,-4.9001,-4.9001,-4.9001,-4.9001,-4.9001,-4.9001,-4.9001,-4.9001,-4.9001,-4.9001,-4.9001,-4.9001,-4.9001,-4.956,-4.781,-4.8122,-4.8306,-4.8306,-4.8306,-4.8306,-4.8306,-4.8306,-4.8306,-4.8306,-4.8306,-4.8306,-4.8306,-4.8306,-4.8306,-4.8306,-4.8306,-4.8306,-4.8306,-4.7937,-4.7797,-4.8267,-4.7937,-4.7674,-4.7674,-4.8035,-4.8114,-4.7715,-4.8952,-4.9613,-4.9381,-4.9532,-4.9722,-4.9976,-4.9504,-4.9212,-4.9001,-4.9001,-4.9001,-4.9001,-4.9001,-4.9001,-4.9001,-4.9001,-4.9001,-4.9001,-4.9001,-4.9001,-4.9001,-4.9001,-4.9001,-4.9001,-4.9001,-4.9001,-4.9001,-4.9001,-4.9001,-4.9001,-4.9001,-4.9001,-4.9001,-4.9001,-4.9001,-4.9001,-4.9001,-4.9001,-4.9001,-4.9001,-4.9001,-4.9001,-4.9001,-4.9001,-4.9001,-4.9001,-4.9001,-4.9001,-4.9001,-4.9001,-4.9001,-4.9001,-4.9001,-4.9001,-4.9001,-4.9001,-4.9001,-4.9001,-4.9001,-4.9001,-4.9001,-4.9001,-4.9046,-4.9256,-4.9316,-4.9212,-4.9001,-4.9001,-4.9001,-4.9001,-4.9001,-4.9001,-4.9001,-4.9001,-4.9001,-4.9001,-4.9001,-4.9001,-4.9001,-4.9001,-4.9001,-4.9001,-4.9001,-4.9407,-4.7131,-4.77,-4.8306,-4.8306,-4.8306,-4.8306,-4.8306,-4.8306,-4.8306,-4.8306,-4.8306,-4.8306,-4.8306,-4.8306,-4.8306,-4.8306,-4.8306,-4.8306,-4.8306,-4.8306,-4.8306,-4.8306,-4.8306,-4.8306,-4.8306,-4.8306,-4.8306,-4.8306,-4.9186,-5.0007,-5.0743,-5.0982,-5.077,-5.0033,-4.9976,-4.9664,-4.9001,-4.9001,-4.9001,-4.9001,-4.9001,-4.9001,-4.9001,-4.9001,-4.9001,-4.9001,-4.9001,-4.9001,-4.9001,-4.9001,-4.9001,-4.9001,-4.9001,-4.9001,-4.9001,-4.9001,-4.9001,-4.9001,-4.9001,-4.9001,-4.9001,-4.9001,-4.9001,-4.9001,-4.9001,-4.9001,-4.9001,-4.9001,-4.9001,-4.9001,-4.9001,-4.9001,-4.9001,-4.9001,-4.9001,-4.9001,-4.9001,-4.9001,-4.9001,-4.9001,-4.9001,-4.9001,-4.9001,-4.9001,-4.9001,-4.9001,-4.9001,-4.9001,-4.9001,-4.9001,-4.9256,-4.9919,-4.9976,-4.9722,-4.9063,-4.9001,-4.9001,-4.9001,-4.9001,-4.9001,-4.9001,-4.9001,-4.9001,-4.9001,-4.9001,-4.9001,-4.9001,-4.9001,-4.9001,-4.9001,-4.9001,-4.9407,-4.7774,-4.8122,-4.8306,-4.8306,-4.8306,-4.8306,-4.8306,-4.8306,-4.8306,-4.8306,-4.8306,-4.8306,-4.8306,-4.8306,-4.8306,-4.8306,-4.8306,-4.8306,-4.8306,-4.8306,-4.8306,-4.8306,-4.8306,-4.8306,-4.8306,-4.8306,-4.8545,-4.9132,-4.998,-5.078,-5.1591,-5.2204,-5.2196,-5.1444,-5.05,-4.9919,-4.9664,-4.9212,-4.9001,-4.9001,-4.9001,-4.9001,-4.9001,-4.9001,-4.9001,-4.9001,-4.9001,-4.9001,-4.9001,-4.9001,-4.9001,-4.9001,-4.9001,-4.9001,-4.9001,-4.9001,-4.9001,-4.9001,-4.9001,-4.9001,-4.9001,-4.9001,-4.9001,-4.9001,-4.9001,-4.9001,-4.9001,-4.9001,-4.9001,-4.9001,-4.9001,-4.9001,-4.9001,-4.9001,-4.9001,-4.9001,-4.9001,-4.9001,-4.9001,-4.9001,-4.9001,-4.9001,-4.9001,-4.9001,-4.9001,-4.9001,-4.9001,-4.9001,-4.9001,-4.9001,-4.9107,-4.9316,-4.9316,-4.9622,-5.0352,-4.9993,-4.9664,-4.9664,-4.9256,-4.9001,-4.9001,-4.9001,-4.9001,-4.9001,-4.9001,-4.9001,-4.9001,-4.9001,-4.9001,-4.9001,-4.9001,-4.9407,-4.781,-4.8086,-4.8306,-4.8306,-4.8306,-4.8306,-4.8306,-4.8306,-4.8306,-4.8306,-4.8306,-4.8306,-4.8306,-4.8306,-4.8306,-4.8306,-4.8306,-4.8306,-4.8306,-4.8306,-4.8306,-4.8306,-4.8306,-4.8306,-4.8306,-4.8306,-4.8526,-4.9058,-5.016,-5.1022,-5.1518,-5.2601,-5.2999,-5.2554,-5.1376,-5.0554,-5.0033,-4.9563,-4.9256,-4.9001,-4.9001,-4.9001,-4.9001,-4.9001,-4.9001,-4.9001,-4.9001,-4.9001,0.0,-4.9001,-4.9001,-4.9001,-4.9001,-4.9001,-4.9001,-4.9001,-4.9001,-4.9001,-4.9001,-4.9001,-4.9001,-4.9001,-4.9001,-4.9001,-4.9001,-4.9001,-4.9001,-4.9001,-4.9001,-4.9063,-4.9299,-4.9359,-4.9479,-4.9739,-4.978,-4.9739,-4.9419,-4.958,-4.9739,-4.9419,-4.9622,-4.978,-4.978,-4.978,-4.9681,-4.9419,-4.9359,-4.9316,-4.9063,-4.9001,-4.9107,-4.9359,-4.9359,-4.9821,-5.0981,-5.039,-4.9879,-4.9622,-4.9462,-4.9256,-4.9001,-4.9001,-4.9001,-4.9001,-4.9001,-4.9001,-4.9001,-4.9001,-4.9001,-4.9001,-4.9001,-4.9255,0.0,-4.7737,-4.8306,-4.8306,-4.8306,-4.8306,-4.8306,-4.8306,0.0,-4.8306,-4.8306,-4.8306,-4.8306,-4.8306,-4.8306,-4.8306,-4.8306,-4.8306,-4.8306,-4.8306,-4.8306,-4.8306,-4.8306,-4.8306,-4.8306,-4.8306,-4.8343,-4.8398,-4.9903,-5.082,-5.0875,-5.2362,-5.3206,-5.3206,-5.2554,-5.1544,-5.0185,-5.0016,-4.9664,-4.9046,-4.9001,-4.9001,-4.9001,-4.9001,-4.9001,-4.9001,-4.9001,-4.9001,-4.9001,-4.9001,-4.9001,-4.9001,-4.9001,-4.9001,-4.9001,-4.9001,-4.9001,-4.9001,-4.9001,-4.9001,-4.9001,-4.9001,-4.9001,-4.9001,-4.9001,-4.9001,-4.9001,-4.9001,-4.9001,-4.9152,-4.9821,-4.9976,-5.0185,-5.0929,-5.1086,-5.0929,-5.0241,-5.0608,-5.0876,-5.0185,-5.0608,-5.1086,-5.1086,-5.1086,-5.0876,-5.0185,-5.009,-4.9879,-4.9212,-4.9168,-4.9359,-4.9919,-4.9976,-5.0241,-5.0876,-5.0352,-4.978,-4.9212,-4.9664,-4.9722,-4.9107,-4.9046,-4.9063,-4.9001,-4.9001,-4.9001,-4.9001,-4.9001,-4.9001,-4.9001,-4.9001,-4.9001,-4.8086,0.0,-4.8306,-4.8306,-4.8306,-4.8306,0.0,-4.8306,-4.8306,-4.8306,-4.8306,-4.8306,-4.8306,-4.8306,-4.8306,-4.8306,-4.8306,-4.8306,-4.8306,-4.8306,-4.8306,-4.8306,-4.8306,-4.8306,-4.8306,-4.8306,-4.8581,-4.9224,-5.0233,-5.1077,-5.1683,-5.2656,-5.3206,-5.3206,-5.3042,-5.2509,-5.1643,-5.0554,-4.9919,-4.978,-4.9273,-4.9001,-4.9001,-4.9001,-4.9001,-4.9001,-4.9001,-4.9001,-4.9001,-4.9001,-4.9001,-4.9001,-4.9001,-4.9001,-4.9001,-4.9001,-4.9001,-4.9001,-4.9001,-4.9001,-4.9001,-4.9001,-4.9001,-4.9001,-4.9001,-4.9001,-4.9001,-4.9001,-4.9001,-4.9152,-4.9821,-4.9976,-5.0185,-5.0929,-5.1086,-5.1034,-5.0876,-5.0981,-5.1034,-5.0876,-5.0981,-5.1086,-5.1086,-5.1086,-5.1034,-5.0876,-5.0823,-5.077,-5.0626,-5.0626,-5.0462,-5.0016,-4.9976,-4.9879,-4.9521,-4.9821,-5.0185,-5.0572,-5.0241,-4.9919,-4.9763,-4.9763,-4.9504,-4.9001,-4.9001,-4.9001,-4.9001,-4.9001,-4.9001,-4.9001,-4.9001,-4.9001,-4.8306,-4.8306,-4.8306,-4.8306,-4.8306,-4.8306,-4.8306,-4.8306,-4.8306,-4.8306,-4.8306,-4.8306,-4.8306,-4.8306,-4.8306,-4.8306,-4.8306,-4.8306,-4.8306,-4.8306,-4.8306,-4.8306,-4.8306,-4.8306,-4.8306,-4.8306,-4.8508,-4.8967,-5.0123,-5.0986,-5.1426,-5.2564,-5.3206,-5.3206,-5.3206,-5.2831,-5.2112,-5.1325,-5.0645,-4.9976,-4.9622,-4.9316,-4.9001,-4.9316,-4.9316,-4.9001,-4.9316,-4.9256,-4.9001,-4.9001,-4.9001,-4.9001,-4.9001,-4.9001,-4.9001,-4.9001,-4.9001,-4.9001,-4.9001,-4.9001,-4.9001,-4.9001,-4.9001,-4.9001,-4.9001,-4.9001,-4.9001,-4.9001,-4.9001,-4.9152,-4.9821,-4.9976,-5.0185,-5.0929,-5.1086,-5.1051,-5.0697,-5.1086,-5.1444,-5.1138,-5.1611,-5.2036,-5.2036,-5.2036,-5.194,-5.1611,-5.1544,-5.1444,-5.1138,-5.1086,-5.0929,-5.0554,-5.05,-5.0352,-4.9993,-4.9993,-5.0033,-5.0146,-5.0033,-4.9879,-4.9563,-4.9504,-4.9359,-4.9001,-4.9001,-4.9001,-4.9001,-4.9001,-4.9001,-4.9001,-4.9001,-4.9001,-4.8306,-4.8306,-4.8306,-4.8306,-4.8306,-4.8306,-4.8306,-4.8306,-4.8306,-4.8306,-4.8306,-4.8306,-4.8306,-4.8306,-4.8306,-4.8306,-4.8306,-4.8306,-4.8306,-4.8306,-4.8306,-4.8306,-4.8306,-4.8306,-4.8306,-4.8306,-4.8306,-4.8306,-4.9848,-5.0802,-5.0802,-5.2344,-5.3206,-5.3206,-5.3206,-5.2893,-5.2271,-5.2159,-5.1476,-5.0335,-5.0241,-4.9821,-4.9152,-4.9722,-4.9605,-4.9063,-4.9622,-4.9563,-4.9152,-4.9063,-4.9107,-4.9316,-4.9212,-4.9152,-4.9152,-4.9152,-4.9107,-4.9001,-4.9001,-4.9001,-4.9001,-4.9001,-4.9001,-4.9001,-4.9001,-4.9001,-4.9001,-4.9001,-4.9001,-4.9152,-4.9821,-4.9976,-5.0185,-5.0929,-5.1086,-5.0947,-5.0349,-5.1155,-5.1808,-5.1189,-5.2036,-5.2893,-5.2999,-5.3042,-5.2875,-5.2335,-5.2271,-5.2065,-5.1512,-5.1411,-5.1411,-5.1241,-5.1241,-5.1189,-5.1086,-5.05,-4.9879,-4.9212,-4.9664,-4.978,-4.9152,-4.9046,-4.9001,-4.9001,-4.9001,-4.9001,-4.9001,-4.9001,-4.9001,-4.9001,-4.9001,-4.9001,-4.8306,-4.8306,-4.8306,-4.8306,-4.8306,-4.8306,-4.8306,-4.8306,-4.8306,-4.8306,-4.8306,-4.8306,-4.8306,-4.8306,-4.8306,-4.8306,-4.8306,-4.8306,-4.8306,-4.8306,-4.8306,-4.8306,-4.8306,-4.8306,-4.8306,-4.8306,-4.8306,-4.8306,-4.9848,-5.0802,-5.0802,-5.2344,-5.3206,-5.3206,-5.3206,-5.3164,-5.3042,-5.2381,-5.2,-5.1741,-5.1189,-5.0554,-4.9879,-4.9976,-4.9605,-4.9001,-4.9107,-4.9419,-4.9821,-4.9195,-4.9681,-5.0734,-5.009,-4.9821,-4.9821,-4.9821,-4.9462,-4.9001,-4.9001,-4.9001,-4.9001,-4.9001,-4.9001,-4.9001,-4.9001,-4.9001,-4.9001,-4.9001,-4.9001,-4.9152,-4.9821,-4.9976,-5.0185,-5.0929,-5.1086,-5.1086,-5.0999,-5.1086,-5.1241,-5.1138,-5.1292,-5.1611,-5.2177,-5.2271,-5.2445,-5.2937,-5.3042,-5.2999,-5.2893,-5.2893,-5.2617,-5.2,-5.1952,-5.171,-5.1138,-5.0981,-5.0608,-4.9879,-4.9919,-4.9976,-4.9879,-4.9316,-4.9001,-4.9001,-4.9001,-4.9001,-4.9001,-4.9001,-4.9001,-4.9001,-4.9001,-4.9001,-4.8306,-4.8306,-4.8306,-4.8306,-4.8306,-4.8306,-4.8306,-4.8306,-4.8306,-4.8306,-4.8306,-4.8306,-4.8306,-4.8306,-4.8306,-4.8306,-4.8306,-4.8306,-4.8306,-4.8306,-4.8306,-4.8306,-4.8306,-4.8306,-4.8306,-4.8306,-4.8306,-4.8306,-4.9848,-5.0802,-5.0802,-5.2344,-5.3206,-5.3206,-5.3206,-5.3206,-5.3206,-5.2875,-5.249,-5.2112,-5.1808,-5.1292,-5.0608,-5.0964,-5.0554,-4.9563,-4.9936,-4.9896,-4.9419,-4.9107,-4.9359,-4.9936,-4.9563,-4.9462,-4.9462,-4.9462,-4.9521,-4.9504,-4.9504,-4.978,-5.0146,-5.0146,-5.0146,-5.0146,-5.0146,-5.0146,-5.0146,-5.0146,-4.958,-4.9046,-4.9359,-4.9462,-4.9622,-5.0352,-5.05,-5.0608,-5.1034,-5.1393,-5.1643,-5.1643,-5.197,-5.2307,-5.2662,-5.2707,-5.2831,-5.3164,-5.3206,-5.3206,-5.3206,-5.3206,-5.306,-5.2725,-5.2707,-5.2572,-5.226,-5.1874,-5.1172,-5.0072,-4.9664,-4.9462,-4.9462,-4.9152,-4.9001,-4.9001,-4.9001,-4.9001,-4.9001,-4.9001,-4.9001,-4.9001,-4.9001,-4.9001,-4.8306,-4.8306,-4.8306,-4.8306,-4.8306,-4.8326,-4.8421,-4.8458,-4.8458,-4.8458,-4.8458,-4.8421,-4.8306,-4.8306,-4.8306,-4.8306,-4.8306,-4.8306,-4.8306,-4.8306,-4.8306,-4.8306,-4.8306,-4.8306,-4.8306,-4.8306,-4.8306,-4.8306,-4.9682,-5.06,-5.0802,-5.216,-5.3023,-5.3206,-5.3206,-5.3206,-5.3206,-5.3206,-5.2937,-5.2381,-5.2381,-5.2018,-5.1343,-5.1856,-5.1444,-5.0297,-5.0876,-5.0572,-4.9739,-4.958,-4.9698,-4.9953,-4.978,-4.9622,-4.9479,-4.9316,-4.9462,-4.9821,-5.0129,-5.0407,-5.0626,-5.077,-5.0823,-5.0823,-5.0823,-5.0981,-5.1086,-5.1086,-5.0297,-4.9479,-4.9479,-4.9479,-4.9622,-5.0146,-5.0241,-5.039,-5.0981,-5.1494,-5.1856,-5.1856,-5.2335,-5.2743,-5.2937,-5.2937,-5.2999,-5.3164,-5.3206,-5.3164,-5.2937,-5.2937,-5.2893,-5.2725,-5.2831,-5.2999,-5.3164,-5.2536,-5.1643,-5.0554,-4.9722,-4.9256,-4.9256,-4.9107,-4.9001,-4.9001,-4.9001,-4.9001,-4.9001,-4.9001,-4.9001,-4.9001,-4.9001,-4.9001,-4.8306,-4.8306,-4.8306,-4.8306,-4.8306,-4.8402,-4.8779,-4.8863,-4.8863,-4.8863,-4.8863,-4.8744,-4.8364,-4.8306,-4.8306,-4.8306,-4.8306,-4.8306,-4.8306,-4.8306,-4.8306,-4.8306,-4.8306,-4.8306,-4.8306,-4.8306,-4.8306,-4.8306,-4.915,-4.9994,-5.0765,-5.161,-5.2435,-5.3188,-5.3206,-5.3206,-5.3206,-5.3206,-5.3164,-5.3103,-5.3103,-5.2725,-5.2047,-5.2065,-5.171,-5.1034,-5.1086,-5.1393,-5.1856,-5.1189,-5.1728,-5.285,-5.2131,-5.1494,-5.0876,-5.0185,-4.9563,-4.9273,-5.0572,-5.0202,-4.9256,-4.9879,-5.0072,-5.0072,-5.0072,-5.0554,-5.1086,-5.1086,-5.1034,-5.0929,-5.0929,-5.0929,-5.0981,-5.0981,-5.1034,-5.1034,-5.1086,-5.1138,-5.1189,-5.1189,-5.1189,-5.1462,-5.2065,-5.2159,-5.2381,-5.3103,-5.3206,-5.2937,-5.2271,-5.2159,-5.1952,-5.131,-5.1808,-5.2445,-5.3164,-5.2536,-5.2065,-5.1952,-5.0645,-4.9919,-4.9919,-4.9299,-4.9001,-4.9001,-4.9001,-4.9001,-4.9001,-4.9001,-4.9001,-4.9001,-4.9001,-4.9001,-4.8306,-4.8306,-4.8306,-4.8306,-4.8306,-4.8402,-4.8813,-4.8897,-4.8963,-4.9234,-4.9075,-4.8779,-4.8364,-4.8306,-4.8306,-4.8306,-4.8306,-4.8306,-4.8306,-4.8306,-4.8306,-4.8306,-4.8306,-4.8306,-4.8306,-4.8306,-4.8306,-4.8306,-4.9095,-4.9719,-5.0031,-5.1279,-5.2142,-5.2435,-5.2949,-5.3206,-5.3206,-5.3206,-5.3206,-5.3206,-5.3206,-5.3042,-5.2769,-5.2769,-5.2399,-5.1692,-5.1692,-5.1643,-5.1444,-5.1189,-5.1411,-5.1892,-5.1611,-5.1343,-5.1086,-5.077,-5.077,-5.1016,-5.1544,-5.1661,-5.1629,-5.1892,-5.1988,-5.1988,-5.1988,-5.2196,-5.2307,-5.1856,-5.2036,-5.2196,-5.1361,-5.1086,-5.1189,-5.1593,-5.1692,-5.1856,-5.2307,-5.2417,-5.2417,-5.2417,-5.2417,-5.2481,-5.2725,-5.2769,-5.2875,-5.3164,-5.3206,-5.3103,-5.2831,-5.2769,-5.2509,-5.1808,-5.1593,-5.1759,-5.2445,-5.2271,-5.2289,-5.2769,-5.1034,-4.9976,-4.9976,-4.9359,-4.9001,-4.9001,-4.9001,-4.9001,-4.9001,-4.9001,-4.9001,-4.9001,-4.9001,-4.9001,-4.8306,-4.8383,-4.8477,-4.8477,-4.8568,-4.8779,-4.9202,-4.9171,-4.9171,-4.9445,-4.9171,-4.8779,-4.8364,-4.8383,-4.8458,-4.8344,-4.8306,-4.8306,-4.8306,-4.8306,-4.8306,-4.8306,-4.8306,-4.8306,-4.8306,-4.8306,-4.8306,-4.8306,-4.8838,-4.9297,-4.9572,-5.0875,-5.1738,-5.1977,-5.2784,-5.3206,-5.3206,-5.3206,-5.3206,-5.3206,-5.3206,-5.3206,-5.3206,-5.3206,-5.2937,-5.2445,-5.2445,-5.2196,-5.1777,-5.1777,-5.1777,-5.1728,-5.1512,-5.1393,-5.1393,-5.1393,-5.1544,-5.1856,-5.2271,-5.2509,-5.2572,-5.2769,-5.2831,-5.2831,-5.2831,-5.2999,-5.3103,-5.2599,-5.2831,-5.2999,-5.1988,-5.1777,-5.1874,-5.2335,-5.2445,-5.2599,-5.3103,-5.3206,-5.3206,-5.3206,-5.3206,-5.3206,-5.3206,-5.3206,-5.3206,-5.3206,-5.3206,-5.3103,-5.2875,-5.2831,-5.2662,-5.2159,-5.1494,-5.1393,-5.2047,-5.1904,-5.2018,-5.2527,-5.0929,-5.0072,-5.0352,-4.9664,-4.9212,-4.9001,-4.9001,-4.9001,-4.9001,-4.9001,-4.9001,-4.9001,-4.9001,-4.9001,-4.8306,-4.8604,-4.8897,-4.8897,-4.9202,-4.9608,-5.0019,-4.98,-4.9504,-4.9504,-4.9171,-4.8779,-4.8364,-4.864,-4.8779,-4.8364,-4.8306,-4.8306,-4.8306,-4.8306,-4.8306,-4.8306,-4.8306,-4.8306,-4.8306,-4.8306,-4.8306,-4.8306,-4.8306,-4.8673,-4.9517,-5.0343,-5.1151,-5.194,-5.2766,-5.3206,-5.3206,-5.3206,-5.3206,-5.3206,-5.3206,-5.3206,-5.3206,-5.3206,-5.3206,-5.3206,-5.3206,-5.3206,-5.3206,-5.3206,-5.3206,-5.3121,-5.2399,-5.2112,-5.2112,-5.2112,-5.1692,-5.131,-5.2725,-5.2307,-5.1241,-5.1904,-5.2112,-5.2112,-5.2112,-5.2599,-5.3206,-5.3206,-5.3206,-5.3206,-5.3206,-5.3206,-5.3206,-5.3206,-5.3206,-5.3206,-5.3206,-5.3206,-5.3206,-5.3206,-5.3206,-5.3206,-5.3206,-5.3206,-5.3206,-5.3206,-5.3206,-5.2937,-5.2206,-5.2094,-5.2112,-5.2112,-5.1494,-5.1343,-5.2047,-5.1494,-5.1086,-5.1086,-5.039,-5.0335,-5.1034,-5.039,-4.9664,-4.9001,-4.9001,-4.9001,-4.9001,-4.9001,-4.9001,-4.9001,-4.9001,-4.9001,-4.8709,-4.9029,-4.9326,-4.9326,0.0,-4.9608,-5.0019,-5.0019,-4.9827,-4.9561,-4.9171,-4.8779,-4.8364,-4.8402,-4.8458,-4.8306,-4.8306,-4.8306,-4.8306,-4.8306,-4.8306,-4.8306,-4.8306,-4.8306,-4.8306,-4.8306,-4.8306,-4.8306,-4.8306,-4.8416,-4.8673,-4.9481,-5.005,-5.0288,-5.1628,-5.2362,-5.2362,-5.2931,-5.3206,-5.3206,-5.3206,-5.3206,-5.3206,-5.3206,-5.3206,-5.3206,-5.3206,-5.3206,-5.3206,-5.3206,-5.3206,-5.3164,-5.2937,-5.2875,-5.2875,-5.2875,-5.2725,-5.2635,-5.306,-5.2937,-5.2617,-5.2831,-5.2875,-5.2875,-5.2875,-5.3042,-5.3103,-5.2554,-5.2813,-5.3103,-5.2554,-5.2831,-5.3206,-5.3206,-5.3206,-5.3206,-5.3206,-5.3206,-5.3206,-5.3206,-5.3206,-5.3206,-5.3206,-5.3206,-5.3206,-5.3206,-5.3206,-5.3103,-5.2893,-5.2445,-5.2112,-5.2112,-5.1494,-5.1189,-5.1393,-5.1189,-5.1086,-5.1086,-5.0876,-5.0662,-5.0352,-4.9664,-4.9212,-4.9001,-4.9001,-4.9001,-4.9001,-4.9001,-4.9001,-4.9001,-4.9001,-4.9001,-4.8728,-4.9075,0.0,-4.9504,-4.9746,-5.0043,-5.0272,-5.0092,-4.9746,-4.9356,-4.9202,-4.8963,-4.8383,-4.8586,-4.8657,-4.8364,-4.8306,-4.8306,-4.8306,-4.8421,-4.8477,-4.8306,-4.8458,-4.8495,-4.8306,-4.8306,-4.8306,-4.8306,-4.8306,-4.8306,-4.8306,-4.9114,-4.9591,-4.9591,-5.0839,-5.1518,-5.1518,-5.2325,-5.2729,-5.2729,-5.3059,-5.3206,-5.3206,-5.3206,-5.3206,-5.3206,-5.3206,-5.3206,-5.3206,-5.3206,-5.3206,-5.3206,-5.3206,-5.3206,-5.3206,-5.3206,-5.3206,-5.3206,-5.3206,-5.3206,-5.3206,-5.3206,-5.3206,-5.3206,-5.3206,-5.3206,-5.3103,-5.2662,-5.2875,-5.3103,-5.2662,-5.2875,-5.3206,-5.3206,-5.3206,-5.3206,-5.3206,-5.3206,-5.3206,-5.3206,-5.3206,-5.3206,-5.3206,-5.3206,-5.3206,-5.3206,-5.3206,-5.3206,-5.3206,-5.2831,-5.2554,-5.2554,-5.1661,-5.1086,-5.1086,-5.0572,-5.0258,-5.0258,-5.0258,-5.005,-4.9622,-4.9462,-4.9256,-4.9001,-4.9001,-4.9001,-4.9001,-4.9001,-4.9001,-4.9001,-4.9001,-4.9001,-4.8532,-4.8996,-4.9561,-4.9589,-5.0159,0.0,-5.0663,-5.0068,-4.9445,-4.9043,-4.9202,-4.9202,-4.8477,-4.8996,-4.9234,-4.8495,-4.8364,-4.8326,-4.8306,-4.8657,-4.8779,-4.8402,-4.8692,-4.8744,-4.8402,-4.8344,-4.8306,-4.8306,-4.8306,-4.8306,-4.8306,-4.904,-4.9462,-4.9462,-5.027,-5.0692,-5.0692,-5.1481,-5.1885,-5.1885,-5.2637,-5.2986,-5.3004,-5.3133,-5.3206,-5.3206,-5.3206,-5.3206,-5.3206,-5.3206,-5.3206,-5.3206,-5.3206,-5.3206,-5.3206,-5.3206,-5.3206,-5.3206,-5.3206,-5.3206,-5.3206,-5.3206,-5.3206,-5.3206,-5.3115,-5.3096,-5.3096,-5.3004,-5.2986,-5.2986,-5.2986,-5.2986,-5.2986,-5.2986,-5.3096,-5.3206,-5.3206,-5.3206,-5.3206,-5.3206,-5.3206,-5.3206,-5.3206,-5.3206,-5.3206,-5.3206,-5.3206,-5.3206,-5.3206,-5.3206,-5.3206,-5.3206,-5.2036,-5.1241,-5.1086,-4.9953,-4.9168,-4.9001,-4.9001,-4.9001,-4.9001,-4.9563,-4.9622,-4.9001,-4.9001,-4.9001,-4.9001,-4.9001,-4.9001,-4.9001,-4.9001,-4.9001,-4.9645,-4.9827,0.0,-5.0358,-5.0565,-5.0624,-5.0294,-5.0111,-4.9872,-4.9445,-4.9202,-4.8996,-4.8813,-4.9171,-4.9326,-4.8829,-4.8779,-4.8657,-4.8326,-4.8657,-4.8863,-4.8779,-4.8829,-4.8863,-4.8779,-4.8477,-4.8306,-4.8306,-4.8306,-4.8306,-4.8306,-4.8489,-4.8581,-4.8581,-4.9407,-4.9848,-4.9848,-5.0655,-5.1059,-5.1059,-5.1242,-5.1316,-5.1371,-5.2637,-5.3206,-5.3206,-5.3206,-5.3206,-5.3206,-5.3206,-5.3206,-5.3206,-5.3206,-5.3206,-5.3206,-5.3206,-5.3206,-5.3206,-5.3206,-5.3206,-5.3206,-5.3206,-5.3206,-5.3096,-5.2454,-5.2252,-5.2123,-5.1499,-5.1316,-5.1316,-5.1316,-5.1316,-5.1316,-5.1316,-5.2289,-5.3206,-5.3206,-5.3206,-5.3206,-5.3206,-5.3206,-5.3206,-5.3206,-5.3206,-5.3206,-5.3206,-5.3206,-5.3206,-5.3206,-5.3206,-5.3206,-5.3206,-5.2937,-5.2307,-5.1189,-5.0823,-5.0146,-4.9046,-4.9001,-4.9001,-4.9001,-4.9168,-4.9168,-4.9001,-4.9001,-4.9001,-4.9001,-4.9001,-4.9001,-4.9001,-4.9001,-4.9001,-4.9193,-4.9036,0.0,-4.9355,0.0,-4.9394,-4.9194,-4.8984,-4.8895,-4.9117,-4.9334,-4.9356,-4.8963,-4.9386,-4.9664,-4.9265,-4.9202,-4.9062,-4.8621,-4.893,-4.9108,-4.893,-4.9075,-4.9108,-4.893,-4.8728,-4.8513,-4.8306,-4.8306,-4.8306,-4.8306,-4.8306,-4.8306,-4.8306,-4.8746,-4.8967,-4.8967,-4.9811,-5.0215,-5.0215,-5.0618,-5.0802,-5.0839,-5.2068,-5.2417,-5.2087,-5.2454,-5.2417,-5.205,-5.205,-5.205,-5.205,-5.205,-5.205,-5.205,-5.205,-5.205,-5.205,-5.205,-5.205,-5.205,-5.205,-5.205,-5.1977,-5.1555,-5.1426,-5.1334,-5.093,-5.0802,-5.0802,-5.0802,-5.0802,-5.0802,-5.0802,-5.1444,-5.205,-5.205,-5.205,-5.216,-5.2546,-5.2637,-5.2747,-5.3133,-5.3206,-5.3206,-5.3206,-5.3206,-5.3206,-5.3206,-5.3206,-5.3206,-5.3206,-5.2875,-5.2242,-5.1189,-5.077,-5.0146,-4.9063,-4.9001,-4.9001,-4.9001,-4.9001,-4.9001,-4.9001,-4.9001,-4.9001,-4.9001,-4.9001,-4.9001,-4.9001,-4.9001,-4.9001,-4.8313,-4.7908,-4.7687,-4.803,-4.8105,0.0,-4.8105,-4.7853,-4.7793,-4.8452,-4.9272,-4.9708,-4.9196,-4.97,-5.0068,-4.9664,-4.9589,-4.9445,-4.8963,-4.9234,-4.9356,-4.8963,-4.9265,-4.9356,-4.9043,-4.893,-4.8744,-4.8421,-4.8344,-4.8306,-4.8306,-4.8306,-4.8306,-4.8306,-4.8306,-4.8306,-4.8306,-4.9022,-4.937,-4.937,-5.005,-5.038,-5.0398,-5.1206,-5.1298,-5.0839,-5.1499,-5.1426,-5.0802,-5.0802,-5.0802,-5.0802,-5.0802,-5.0802,-5.0802,-5.0802,-5.0802,-5.0802,-5.0802,-5.0802,-5.0802,-5.0802,-5.0802,-5.0765,-5.0618,-5.0582,-5.0563,-5.0417,-5.038,-5.038,-5.038,-5.038,-5.038,-5.038,-5.038,-5.0453,-5.0747,-5.0802,-5.1004,-5.1665,-5.1775,-5.1995,-5.2674,-5.2803,-5.2839,-5.2986,-5.3004,-5.3041,-5.3188,-5.3206,-5.3206,-5.3206,-5.2662,-5.2018,-5.1343,-5.0608,-4.9879,-4.9212,-4.9046,-4.9001,-4.9001,-4.9001,-4.9001,-4.9001,-4.9001,-4.9001,-4.9001,-4.9001,-4.9001,-4.9001,-4.9001,-4.9001,-4.8257,0.0,-4.803,0.0,-4.8105,-4.8105,0.0,0.0,-4.7932,-4.7713,-4.8372,-4.9167,-4.9816,-5.0313,-5.0483,-5.0092,-5.0019,-4.9773,-4.9029,-4.9234,-4.9356,-4.8963,-4.9265,-4.9475,-4.9416,-4.9108,-4.8863,-4.8829,-4.8477,-4.8306,-4.8306,-4.8306,-4.8306,-4.8306,-4.8306,-4.8306,-4.8306,-4.8416,-4.8471,-4.8471,-4.8581,-4.8636,-4.8673,-4.9517,-5.0233,-5.082,-5.0912,-5.0894,-5.0802,-5.0802,-5.0802,-5.0802,-5.0802,-5.0802,-5.0802,-5.0802,-5.0802,-5.0802,-5.0802,-5.0802,-5.0802,-5.0802,-5.0802,-5.0655,-4.9903,-4.9701,-4.9591,-4.8857,-4.8636,-4.8636,-4.8636,-4.8636,-4.8636,-4.8636,-4.8636,-4.904,-5.049,-5.0802,-5.0839,-5.0949,-5.0967,-5.0986,-5.1096,-5.1132,-5.1371,-5.205,-5.216,-5.2417,-5.3115,-5.3206,-5.3206,-5.3206,-5.3103,-5.2769,-5.2018,-5.1343,-5.0662,-4.9919,-4.9299,-4.9001,-4.9001,-4.9001,-4.9001,-4.9001,-4.9001,-4.9001,-4.9001,-4.9001,-4.9001,-4.9001,-4.9001,-4.9001,-4.7011,-4.6701,-4.6701,0.0,-4.6701,-4.6701,-4.6701,-4.6701,-4.678,-4.7106,-4.7468,-4.8058,-4.9182,-5.0095,-5.0624,-5.0442,-5.0421,-5.023,-4.9645,-4.97,-4.9692,-4.9295,-4.9386,-4.9416,-4.9171,-4.9202,-4.9062,-4.8604,-4.8604,-4.855,-4.8306,-4.8306,-4.8306,-4.8306,-4.8306,-4.8306,-4.8306,-4.8306,-4.8306,-4.8306,-4.8306,-4.8306,-4.8324,-4.8691,-4.9058,-4.9426,-4.9921,-4.9848,-4.9407,-4.9407,-4.9407,-4.9407,-4.9407,-4.9407,-4.9407,-4.9407,-4.9407,-4.9407,-4.9407,-4.9407,-4.9407,-4.9407,-4.9407,-4.9334,-4.8948,-4.8857,-4.8783,-4.8416,-4.8306,-4.8306,-4.8306,-4.8306,-4.8306,-4.8306,-4.8306,-4.8508,-4.9242,-4.9407,-4.9536,-5.0031,-5.049,-5.0802,-5.0802,-5.0802,-5.093,-5.1261,-5.1334,-5.1463,-5.1811,-5.1882,-5.2051,-5.2467,-5.2558,-5.2445,-5.2112,-5.1494,-5.077,-5.0033,-4.9359,-4.9001,-4.9001,-4.9001,-4.9001,-4.9001,-4.9001,-4.9001,-4.9001,-4.9001,-4.9001,-4.9001,-4.9001,-4.9001,0.0,0.0,-4.5586,-4.5586,-4.5586,-4.5586,0.0,0.0,-4.5778,-4.6432,-4.6759,-4.7185,-4.813,-4.9428,-5.0356,-5.0356,-5.0548,-5.0565,-5.0159,-5.0092,-4.9949,-4.9532,-4.9504,-4.9386,-4.9075,-4.9234,-4.9094,-4.8477,-4.864,-4.864,-4.8306,-4.8306,-4.8306,-4.8306,-4.8306,-4.8306,-4.8306,-4.8306,-4.8306,-4.8306,-4.8306,-4.8306,-4.8306,-4.8306,-4.8306,-4.8343,-4.8985,-4.8893,-4.8306,-4.8306,-4.8306,-4.8306,-4.8306,-4.8306,-4.8306,-4.8306,-4.8306,-4.8306,-4.8306,-4.8306,-4.8306,-4.8306,-4.8306,-4.8306,-4.8306,-4.8306,-4.8306,-4.8306,-4.8306,-4.8306,-4.8306,-4.8306,-4.8306,-4.8306,-4.8306,-4.8306,-4.8306,-4.8306,-4.8489,-4.9132,-4.9756,-5.016,-5.016,-5.016,-5.0233,-5.0453,-5.049,-5.0563,-5.0765,-5.0848,-5.102,-5.142,-5.1647,-5.1712,-5.1569,-5.1134,-5.0572,-5.0016,-4.9359,-4.9001,-4.9001,-4.9001,-4.9001,-4.9001,-4.9001,-4.9001,-4.9001,-4.9001,-4.9001,-4.9001,-4.9001,-4.9001,0.0,-4.5586,0.0,-4.5586,-4.5586,-4.5586,0.0,-4.5586,-4.5605,-4.5663,-4.6317,-4.6914,-4.6991,-4.8337,-4.9471,-4.9471,-5.0164,-5.0565,-5.0159,-5.0092,-4.9949,-4.9532,-4.9504,-4.9475,-4.9475,-4.9139,-4.893,-4.8863,-4.8532,-4.8344,-4.8306,-4.8306,-4.8306,-4.8306,-4.8306,-4.8306,-4.8306,-4.8306,-4.8306,-4.8306,-4.8306,-4.8306,-4.8306,-4.8306,-4.8306,-4.8306,-4.8361,-4.8343,-4.8306,-4.8306,-4.8306,-4.8306,-4.8306,-4.8306,-4.8306,-4.8306,-4.8306,-4.8306,-4.8306,-4.8306,-4.8306,-4.8306,-4.8306,-4.8306,-4.8306,-4.8306,-4.8306,-4.8306,-4.8306,-4.8306,-4.8306,-4.8306,-4.8306,-4.8306,-4.8306,-4.8306,-4.8306,-4.8306,-4.8324,-4.8361,-4.8398,-4.8434,-4.8434,-4.8434,-4.871,-4.9536,-4.9646,-4.9921,-5.071,-5.078,-5.0556,-4.9973,-5.0525,-5.0713,-5.0175,-5.0097,-5.0016,-5.0033,-4.9359,-4.9001,-4.9001,-4.9001,-4.9001,-4.9001,-4.9001,-4.9001,-4.9001,-4.9001,-4.9001,-4.9001,-4.9001,-4.9001,0.0,0.0,0.0,-4.5586,-4.5586,-4.5586,-4.5586,-4.5586,-4.5586,-4.5586,-4.5836,-4.6067,-4.6067,-4.7432,-4.8759,-4.9317,-4.9663,-5.0029,-5.0427,-5.0483,-5.0336,-4.9924,-4.9898,-4.9673,-4.9171,-4.9202,-4.9075,-4.8532,-4.8621,-4.8568,-4.8306,-4.8306,-4.8306,-4.8306,-4.8306,-4.8306,-4.8306,-4.8306,-4.8306,-4.8306,-4.8306,-4.8306,-4.8306,-4.8306,-4.8306,-4.8306,-4.8306,-4.8306,-4.8306,-4.8306,-4.8306,-4.8306,-4.8306,-4.8306,-4.8306,-4.8306,-4.8306,-4.8306,-4.8306,-4.8306,-4.8306,-4.8306,-4.8306,-4.8306,-4.8306,-4.8306,-4.8306,-4.8306,-4.8306,-4.8306,-4.8306,-4.8306,-4.8306,-4.8306,-4.8306,-4.8306,-4.8306,-4.8306,-4.8306,-4.8306,-4.8306,-4.8306,-4.8306,-4.8306,-4.8416,-4.8728,-4.8765,-4.8875,-4.9169,-4.9286,-4.9264,-4.9053,-4.931,-4.9653,-4.9951,-4.9571,-4.9513,-4.9998,-4.9359,-4.9001,-4.9001,-4.9001,-4.9001,-4.9001,-4.9001,-4.9001,-4.9001,-4.9001,-4.9001,-4.9001,-4.9001,-4.9001,-4.5586,-4.5586,-4.5586,-4.5586,-4.5586,-4.5586,-4.5586,-4.5586,-4.5586,-4.5586,-4.5586,-4.5586,-4.5586,-4.6509,-4.7548,-4.8413,-4.9029,-4.9606,-5.0183,-5.051,-5.0604,-5.0336,-5.0183,-4.9879,-4.9337,-4.9295,-4.9094,-4.855,-4.8621,-4.8568,-4.8306,-4.8306,-4.8306,-4.8306,-4.8306,-4.8306,-4.8306,-4.8306,-4.8306,-4.8306,-4.8306,-4.8306,-4.8306,-4.8306,-4.8306,-4.8306,-4.8306,-4.8306,-4.8306,-4.8306,-4.8306,-4.8306,-4.8306,-4.8306,-4.8306,-4.8306,-4.8306,-4.8306,-4.8306,-4.8306,-4.8306,-4.8306,-4.8306,-4.8306,-4.8306,-4.8306,-4.8306,-4.8306,-4.8306,-4.8306,-4.8306,-4.8306,-4.8306,-4.8306,-4.8306,-4.8306,-4.8306,-4.8306,-4.8306,-4.8306,-4.8306,-4.8306,-4.8306,-4.8306,-4.8306,-4.8306,-4.8306,-4.8306,-4.8306,-4.837,-4.8369,-4.8222,-4.8318,-4.8508,-4.8817,-4.8479,-4.8478,-4.9251,-4.8899,-4.8748,-4.8984,-4.9001,-4.9001,-4.9001,-4.9001,-4.9001,-4.9001,-4.9001,-4.9001,-4.9001,-4.9001,-4.9001,0.0,0.0,0.0,-4.5605,-4.5605,-4.5605,-4.5605,-4.5605,-4.5605,-4.5605,-4.5605,-4.5586,-4.5586,-4.5586,-4.5874,-4.6721,-4.8259,-4.9336,-4.9356,-5.0106,-5.0644,-5.0644,-5.0339,-5.0116,-5.0092,-4.9397,-4.893,-4.893,-4.855,-4.8306,-4.8306,-4.8306,-4.8306,-4.8306,-4.8306,-4.8306,-4.8306,-4.8306,-4.8306,-4.8306,-4.8306,-4.8306,-4.8306,-4.8306,-4.8306,-4.8306,-4.8306,-4.8306,-4.8306,-4.8306,-4.8306,-4.8306,-4.8306,-4.8306,-4.8306,-4.8306,-4.8306,-4.8306,-4.8306,-4.8306,-4.8306,-4.8306,-4.8306,-4.8306,-4.8306,-4.8306,-4.8306,-4.8306,-4.8306,-4.8306,-4.8306,-4.8306,-4.8306,-4.8306,-4.8306,-4.8306,-4.8306,-4.8306,-4.8306,-4.8306,-4.8306,-4.8306,-4.8306,-4.8306,-4.8306,-4.8306,-4.8306,-4.8306,-4.8306,-4.8306,-4.8075,-4.747,-4.7515,-4.7304,-4.6655,-4.672,-4.7073,-4.7834,-4.7902,-4.824,-4.8951,-4.8984,-4.9001,-4.9001,-4.9001,-4.9001,-4.9001,-4.9001,-4.9001,-4.9001,-4.9001,-4.9001,-4.5757,0.0,0.0,0.0,0.0,0.0,-4.5815,-4.5776,-4.5738,-4.5738,-4.5738,-4.5719,-4.5605,-4.5586,-4.5682,-4.5913,-4.6874,-4.7798,-4.8375,-4.9202,-4.976,-4.976,-5.022,-5.0421,-5.0135,-4.9898,-4.9645,-4.9356,-4.8963,-4.8709,-4.8709,-4.8458,-4.8306,-4.8306,-4.8306,-4.8306,-4.8306,-4.8306,-4.8306,-4.8306,-4.8306,-4.8306,-4.8306,-4.8306,-4.8306,-4.8306,-4.8306,-4.8306,-4.8306,-4.8306,-4.8306,-4.8306,-4.8306,-4.8306,-4.8306,-4.8306,-4.8306,-4.8306,-4.8306,-4.8306,-4.8306,-4.8306,-4.8306,-4.8306,-4.8306,-4.8306,-4.8306,-4.8306,-4.8306,-4.8306,-4.8306,-4.8306,-4.8306,-4.8306,-4.8306,-4.8306,-4.8306,-4.8306,-4.8306,-4.8306,-4.8306,-4.8306,-4.8306,-4.8306,-4.8306,-4.8306,-4.8306,-4.8306,-4.8306,-4.8306,-4.8075,-4.747,-4.7015,-4.6706,-4.6621,-4.6259,-4.6329,-4.7056,-4.7614,-4.8003,-4.8206,-4.8731,-4.9001,-4.9001,-4.9001,-4.9001,-4.9001,-4.9001,-4.9001,-4.9001,-4.9001,-4.9001,-4.5852,-4.587,-4.5888,-4.5849,0.0,0.0,-4.5849,-4.5822,-4.5773,-4.5736,-4.5719,-4.5699,-4.5605,-4.5586,-4.5586,-4.5586,-4.6028,-4.6644,-4.749,-4.8336,-4.899,-4.9356,-4.9856,-5.0141,-5.0097,-5.0092,-4.9924,-4.9532,-4.9139,-4.8847,-4.8657,-4.8421,-4.8306,-4.8306,-4.8306,-4.8306,-4.8306,-4.8306,-4.8306,-4.8306,-4.8306,-4.8306,-4.8306,-4.8306,-4.8306,-4.8306,-4.8306,-4.8306,-4.8306,-4.8306,-4.8306,-4.8306,-4.8306,-4.8306,-4.8306,-4.8306,-4.8306,-4.8306,-4.8306,-4.8306,-4.8306,-4.8306,-4.8306,-4.8306,-4.8306,-4.8306,-4.8306,-4.8306,-4.8306,-4.8306,-4.8306,-4.8306,-4.8306,-4.8306,-4.8306,-4.8306,-4.8306,-4.8306,-4.8306,-4.8306,-4.8306,-4.8306,-4.8306,-4.8306,-4.8306,-4.8306,-4.8306,-4.8306,-4.8306,-4.8306,-4.8172,-4.7797,-4.7194,-4.6749,-4.6527,-4.5975,-4.584,-4.6295,-4.7039,-4.7597,-4.7902,-4.8612,-4.9001,-4.9001,-4.9001,-4.9001,-4.9001,-4.9001,-4.9001,-4.9001,-4.9001,-4.9001,-4.594,-4.5922,-4.5945,-4.5928,-4.5918,0.0,-4.5863,-4.5852,-4.5802,-4.5693,-4.5643,-4.5643,-4.5624,-4.5605,-4.5605,-4.5586,-4.5586,-4.5874,-4.6644,-4.7451,-4.8259,-4.9029,-4.9202,-4.945,-4.9907,-4.9959,-4.9829,-4.9532,-4.9171,-4.8779,-4.8326,-4.8326,-4.8326,-4.8306,-4.8306,-4.8306,-4.8306,-4.8306,-4.8306,-4.8306,-4.8306,-4.8306,-4.8306,-4.8306,-4.8306,-4.8306,-4.8306,-4.8306,-4.8306,-4.8306,-4.8306,-4.8306,-4.8306,-4.8306,-4.8306,-4.8306,-4.8306,-4.8306,-4.8306,-4.8306,-4.8306,-4.8306,-4.8306,-4.8306,-4.8306,-4.8306,-4.8306,-4.8306,-4.8306,-4.8306,-4.8306,-4.8306,-4.8306,-4.8306,-4.8306,-4.8306,-4.8306,-4.8306,-4.8306,-4.8306,-4.8306,-4.8306,-4.8306,-4.8306,-4.8306,-4.8306,-4.8306,-4.8306,-4.8306,-4.8249,-4.821,-4.821,-4.7656,-4.7044,-4.6478,-4.5915,-4.5613,-4.5671,-4.636,-4.7048,-4.7767,-4.8494,-4.8917,-4.9001,-4.9001,-4.9001,-4.9001,-4.9001,-4.9001,-4.9001,-4.9001,-4.9001,-4.6087,-4.6136,-4.6201,-4.6098,-4.6063,0.0,-4.6189,-4.6114,-4.6037,-4.6005,-4.6007,-4.595,-4.5796,-4.5757,-4.5738,-4.5605,-4.5586,-4.5663,-4.5817,-4.6586,-4.7201,-4.7375,-4.7971,-4.8528,-4.901,-4.9039,-4.9182,-4.9495,-4.9416,-4.9062,-4.8344,-4.8604,-4.8621,-4.8306,-4.8306,-4.8306,-4.8306,-4.8306,-4.8306,-4.8306,-4.8306,-4.8306,-4.8306,-4.8306,-4.8306,-4.8306,-4.8306,-4.8306,-4.8306,-4.8306,-4.8306,-4.8306,-4.8306,-4.8306,-4.8306,-4.8306,-4.8306,-4.8306,-4.8306,-4.8306,-4.8306,-4.8306,-4.8306,-4.8306,-4.8306,-4.8306,-4.8306,-4.8306,-4.8306,-4.8306,-4.8306,-4.8306,-4.8306,-4.8306,-4.8306,-4.8306,-4.8306,-4.8306,-4.8306,-4.8306,-4.8306,-4.8306,-4.8306,-4.8306,-4.8306,-4.8306,-4.8306,-4.8306,-4.8306,-4.7897,-4.7572,-4.7572,-4.6999,-4.6524,-4.643,-4.6288,-4.6035,-4.558,-4.6234,-4.6752,-4.6972,-4.7733,-4.8409,-4.8984,-4.9001,-4.9001,-4.9001,-4.9001,-4.9001,-4.9001,-4.9001,-4.9001,-4.6211,-4.625,-4.6285,-4.6227,-4.6206,0.0,0.0,-4.6143,-4.6076,-4.6009,-4.599,-4.5957,-4.581,-4.5783,-4.5757,-4.5605,-4.5586,-4.5586,-4.5586,-4.597,-4.6413,-4.6855,-4.7259,-4.7664,-4.8109,-4.8185,-4.8315,-4.8589,-4.8977,-4.893,-4.8326,-4.8477,-4.8513,-4.8306,-4.8306,-4.8306,-4.8306,-4.8306,-4.8306,-4.8306,-4.8306,-4.8306,-4.8306,-4.8306,-4.8306,-4.8306,-4.8306,-4.8306,-4.8306,-4.8306,-4.8306,-4.8306,-4.8306,-4.8306,-4.8306,-4.8306,-4.8306,-4.8306,-4.8306,-4.8306,-4.8306,-4.8306,-4.8306,-4.8306,-4.8306,-4.8306,-4.8306,-4.8306,-4.8306,-4.8306,-4.8306,-4.8306,-4.8306,-4.8306,-4.8306,-4.8306,-4.8306,-4.8306,-4.8306,-4.8306,-4.8306,-4.8306,-4.8306,-4.8306,-4.8306,-4.8306,-4.8306,-4.8306,-4.8306,-4.8035,-4.7756,-4.7428,-4.7106,-4.6618,-4.6014,-4.5965,-4.5681,-4.5089,-4.5754,-4.6186,-4.6227,-4.7327,-4.8257,-4.8984,-4.9001,-4.9001,-4.9001,-4.9001,-4.9001,-4.9001,-4.9001,-4.9001,-4.6308,-4.6308,-4.6308,-4.6308,-4.6308,-4.6269,0.0,0.0,0.0,-4.6008,-4.5981,-4.5932,-4.5831,-4.5815,-4.5776,-4.5605,-4.5586,-4.5586,-4.5586,-4.5586,-4.5855,-4.6567,-4.6644,-4.6801,-4.7232,-4.7391,-4.7458,-4.7374,-4.8091,-4.8404,-4.8105,-4.8125,-4.8236,-4.8306,-4.8306,-4.8306,-4.8306,-4.8306,-4.8306,-4.8306,-4.8306,-4.8306,-4.8306,-4.8306,-4.8306,-4.8306,-4.8306,-4.8306,-4.8306,-4.8306,-4.8306,-4.8306,-4.8306,-4.8306,-4.8306,-4.8306,-4.8306,-4.8306,-4.8306,-4.8306,-4.8306,-4.8306,-4.8306,-4.8306,-4.8306,-4.8306,-4.8306,-4.8306,-4.8306,-4.8306,-4.8306,-4.8306,-4.8306,-4.8306,-4.8306,-4.8306,-4.8306,-4.8306,-4.8306,-4.8306,-4.8306,-4.8306,-4.8306,-4.8306,-4.8306,-4.8306,-4.8306,-4.8306,-4.8306,-4.821,-4.7937,-4.7428,-4.7385,-4.691,-4.5783,-4.5783,-4.5563,-4.4814,-4.5337,-4.5648,-4.5703,-4.7141,-4.8257,-4.8984,-4.9001,-4.9001,-4.9001,-4.9001,-4.9001,-4.9001,-4.9001,-4.9001,-4.6308,-4.6308,-4.6308,-4.6308,-4.6308,-4.6308,-4.6289,0.0,-4.6269,-4.6268,0.0,-4.6175,-4.5924,0.0,0.0,-4.5624,-4.5586,-4.5586,-4.5586,-4.5586,-4.5624,-4.574,-4.574,-4.5937,-4.6393,-4.6828,-4.6802,-4.6138,-4.6788,-4.7205,-4.7242,-4.7566,-4.7916,-4.8288,-4.8306,-4.8306,-4.8306,-4.8306,-4.8306,-4.8306,-4.8306,-4.8306,-4.8306,-4.8306,-4.8306,-4.8306,-4.8306,-4.8306,-4.8306,-4.8306,-4.8306,-4.8306,-4.8306,-4.8306,-4.8306,-4.8306,-4.8306,-4.8306,-4.8306,-4.8306,-4.8306,-4.8306,-4.8306,-4.8306,-4.8306,-4.8306,-4.8306,-4.8306,-4.8306,-4.8306,-4.8306,-4.8306,-4.8306,-4.8306,-4.8306,-4.8306,-4.8306,-4.8306,-4.8306,-4.8306,-4.8306,-4.8306,-4.8306,-4.8306,-4.8306,-4.8306,-4.8306,-4.8306,-4.8306,-4.7838,-4.7488,-4.7385,-4.7385,-4.7106,-4.6383,-4.6864,-4.6682,-4.5459,-4.5494,-4.5571,-4.5669,-4.7141,-4.8257,-4.8984,-4.9001,-4.9001,-4.9001,-4.9001,-4.9001,-4.9001,-4.9001,-4.9001,-4.6308,-4.6308,-4.6308,-4.6308,-4.6308,-4.6308,-4.6308,-4.6308,-4.6308,-4.6308,0.0,0.0,0.0,0.0,0.0,0.0,-4.5643,-4.5586,-4.5586,-4.5586,-4.5586,-4.5586,-4.5586,-4.5611,-4.5614,-4.6216,-4.6288,-4.5541,-4.619,-4.6573,-4.6416,-4.6542,-4.6946,-4.759,-4.7609,-4.7847,-4.8306,-4.8306,-4.8306,-4.8306,-4.8306,-4.8306,-4.8306,-4.8306,-4.8306,-4.8306,-4.8306,-4.8306,-4.8306,-4.8306,-4.8306,-4.8306,-4.8306,-4.8306,-4.8306,-4.8306,-4.8306,-4.8306,-4.8306,-4.8306,-4.8306,-4.8306,-4.8306,-4.8306,-4.8306,-4.8306,-4.8306,-4.8306,-4.8306,-4.8306,-4.8306,-4.8306,-4.8306,-4.8306,-4.8306,-4.8306,-4.8306,-4.8306,-4.8306,-4.8306,-4.8306,-4.8306,-4.8306,-4.8306,-4.8306,-4.8306,-4.8306,-4.8306,-4.8306,-4.8075,-4.7797,-4.7446,-4.7385,-4.7017,-4.5965,-4.6112,-4.5933,-4.5052,-4.4998,-4.5192,-4.5669,-4.6718,-4.7614,-4.8359,-4.8781,-4.9001,-4.9001,-4.9001,-4.9001,-4.9001,-4.9001,-4.9001,-4.6308,-4.6308,-4.6308,-4.6308,-4.6308,-4.6308,-4.6308,-4.6308,-4.6308,-4.6308,-4.6308,0.0,0.0,0.0,-4.5924,-4.5811,0.0,-4.5624,-4.5605,-4.5586,-4.5586,-4.5586,-4.5586,-4.5476,-4.5118,-4.5715,-4.5817,-4.5084,-4.5585,-4.5866,-4.5729,-4.5625,-4.5938,-4.6764,-4.6783,-4.7058,-4.7645,-4.7865,-4.7976,-4.7976,-4.8196,-4.8306,-4.8306,-4.8306,-4.8306,-4.8306,-4.8306,-4.8306,-4.8306,-4.8306,-4.8306,-4.8306,-4.8306,-4.8306,-4.8306,-4.8306,-4.8306,-4.8306,-4.8306,-4.8306,-4.8306,-4.8306,-4.8306,-4.8306,-4.8306,-4.8306,-4.8306,-4.8306,-4.8306,-4.8306,-4.8306,-4.8306,-4.8306,-4.8306,-4.8306,-4.8306,-4.8306,-4.8306,-4.8306,-4.8306,-4.8306,-4.8306,-4.8306,-4.8306,-4.8306,-4.8306,-4.8306,-4.8306,-4.8306,-4.8306,-4.8114,-4.7697,-4.7656,-4.7194,-4.6112,-4.5833,-4.5407,-4.4626,-4.4587,-4.4925,-4.5669,-4.6413,-4.7141,-4.7902,-4.8629,-4.9001,-4.9001,-4.9001,-4.9001,-4.9001,-4.9001,-4.9001,-4.6308,-4.6308,-4.6308,-4.6308,-4.6308,-4.6308,-4.6308,-4.6308,-4.6308,-4.6308,-4.6308,-4.6269,-4.6113,-4.6094,-4.6035,-4.5831,-4.5796,0.0,0.0,-4.5586,-4.5586,-4.5586,-4.5586,-4.5476,-4.5118,-4.5419,-4.5341,-4.4669,-4.4655,-4.4833,-4.5208,-4.4915,-4.5112,-4.5902,-4.5938,-4.5957,-4.5975,-4.6764,-4.715,-4.713,-4.7939,-4.8306,-4.8306,-4.8306,-4.8306,-4.8306,-4.8306,-4.8306,-4.8306,-4.8306,-4.8306,-4.8306,-4.8306,-4.8306,-4.8306,-4.8306,-4.8306,-4.8306,-4.8306,-4.8306,-4.8306,-4.8306,-4.8306,-4.8306,-4.8306,-4.8306,-4.8306,-4.8306,-4.8306,-4.8306,-4.8306,-4.8306,-4.8306,-4.8306,-4.8306,-4.8306,-4.8306,-4.8306,-4.8306,-4.8306,-4.8306,-4.8306,-4.8306,-4.8306,-4.8306,-4.8306,-4.8306,-4.8306,-4.8306,-4.8306,-4.8306,-4.8267,-4.8267,-4.8035,-4.7385,-4.6756,-4.5865,-4.4682,-4.4587,-4.4925,-4.5669,-4.6413,-4.7141,-4.7902,-4.8629,-4.9001,-4.9001,-4.9001,-4.9001,-4.9001,-4.9001,-4.9001,-4.6308,-4.6308,-4.6308,-4.6308,-4.6308,-4.6308,-4.6308,-4.6308,-4.6308,-4.6308,-4.6308,-4.6289,-4.623,-4.6152,-4.6081,-4.602,-4.5892,-4.5776,0.0,-4.5643,-4.5586,-4.5586,-4.5586,-4.5568,-4.5438,-4.5531,-4.5419,-4.4966,-4.4726,-4.4532,-4.4389,-4.4085,-4.4268,-4.5094,-4.5112,-4.5369,-4.5883,-4.6177,-4.6305,-4.6305,-4.6581,-4.6709,-4.6728,-4.7278,-4.7517,-4.7553,-4.8086,-4.8306,-4.8306,-4.8306,-4.8306,-4.8306,-4.8306,-4.8306,-4.8306,-4.8306,-4.8306,-4.8306,-4.8306,-4.8306,-4.8306,-4.8306,-4.8306,-4.8306,-4.8306,-4.8306,-4.8306,-4.8306,-4.8306,-4.8306,-4.8306,-4.8306,-4.8306,-4.8306,-4.8306,-4.8306,-4.8306,-4.8306,-4.8306,-4.8306,-4.8306,-4.8306,-4.8306,-4.8306,-4.8306,-4.8306,-4.8306,-4.8306,-4.8306,-4.8306,-4.8172,-4.7756,-4.7697,-4.7428,-4.6801,-4.6143,-4.5648,-4.5232,-4.4814,-4.4688,-4.4942,-4.5686,-4.6413,-4.7158,-4.7919,-4.8528,-4.9001,-4.9001,-4.9001,-4.9001,-4.9001,-4.9001,-4.6308,-4.6308,-4.6308,-4.6308,-4.6308,-4.6308,-4.6308,-4.6308,-4.6308,-4.6308,-4.6308,-4.6308,-4.6308,-4.623,-4.617,-4.6113,-4.596,-4.5804,0.0,-4.5643,-4.5586,-4.5586,-4.5586,-4.555,-4.5438,-4.5531,-4.5457,-4.5137,-4.4896,-4.4663,-4.4428,-4.3943,-4.3919,-4.4435,-4.4338,-4.4525,-4.5039,-4.5333,-4.548,-4.548,-4.5755,-4.5902,-4.592,-4.6452,-4.6673,-4.6709,-4.7223,-4.7462,-4.7462,-4.7462,-4.7462,-4.748,-4.7774,-4.7884,-4.7921,-4.8196,-4.8306,-4.8306,-4.8306,-4.8306,-4.8306,-4.8306,-4.8306,-4.8306,-4.8306,-4.8306,-4.8306,-4.8306,-4.8306,-4.8306,-4.8306,-4.8306,-4.8306,-4.8306,-4.8306,-4.8306,-4.8306,-4.8306,-4.8306,-4.8306,-4.8306,-4.8306,-4.8306,-4.8306,-4.8306,-4.8306,-4.8306,-4.8306,-4.8306,-4.8306,-4.8172,-4.7756,-4.753,-4.7044,-4.6161,-4.5732,-4.5407,-4.5178,-4.4814,-4.4587,-4.4587,-4.5314,-4.6058,-4.6786,-4.753,-4.8274,-4.9001,-4.9001,-4.9001,-4.9001,-4.9001,-4.9001]}]]